[[{"header":{"parameterUnit":"m.s-1","parameterCategory":1,"la1":30.6,"la2":28.766,"lo1":-90.7593,"lo2":-88.6598,"dy":0.0162,"dx":0.0183,"nx":116,"ny":114,"refTime":"2023-07-14T00:00:00:Z","depth":0,"parameterNumber":2,"parameterNumberName":"U-component_of_WINDS"},"data":[0.0,0.0,0.0,0.0,0.0,0.0,0.0,0.0,0.0,0.0,0.0,0.0,0.0,0.0,0.0,0.0,0.0,0.0,0.0,0.0,0.0,0.0,0.0,0.0,0.0,0.0,0.0,0.0,0.0,0.0,0.0,0.0,0.0,0.0,0.0,0.0,0.0,0.0,0.0,0.0,0.0,0.0,0.0,0.0,0.0,0.0,0.0,0.0,0.0,0.0,0.0,0.0,0.0,0.0,0.0,0.0,0.0,0.0,0.0,0.0,0.0,0.0,0.0,0.0,0.0,0.0,0.0,0.0,0.0,0.0,0.0,0.0,0.0,0.0,0.0,0.0,0.0,0.0,0.0,0.0,0.0,0.0,0.0,0.0,0.0,0.0,0.0,0.0,0.0,0.0,0.0,0.0,0.0,0.0,0.0,0.0,0.0,0.0,0.0,0.0,0.0,0.0,0.0,0.0,0.0,0.0,0.0,0.0,0.0,0.0,0.0,0.0,0.0,0.0,0.0,0.0,0.0,0.0,0.0,0.0,0.0,0.0,0.0,0.0,0.0,0.0,0.0,0.0,0.0,0.0,0.0,0.0,0.0,0.0,0.0,0.0,0.0,0.0,0.0,0.0,0.0,0.0,0.0,0.0,0.0,0.0,0.0,0.0,0.0,0.0,0.0,0.0,0.0,0.0,0.0,0.0,0.0,0.0,0.0,0.0,0.0,0.0,0.0,0.0,0.0,0.0,0.0,0.0,0.0,0.0,0.0,0.0,0.0,0.0,0.0,0.0,0.0,0.0,0.0,0.0,0.0,0.0,0.0,0.0,0.0,0.0,0.0,0.0,0.0,0.0,0.0,0.0,0.0,0.0,0.0,0.0,0.0,0.0,0.0,0.0,0.0,0.0,0.0,0.0,0.0,0.0,0.0,0.0,0.0,0.0,0.0,0.0,0.0,0.0,0.0,0.0,0.0,0.0,0.0,0.0,0.0,0.0,0.0,0.0,0.0,0.0,0.0,0.0,0.0,0.0,0.0,0.0,0.0,0.0,0.0,0.0,0.0,0.0,0.0,0.0,0.0,0.0,0.0,0.0,0.0,0.0,0.0,0.0,0.0,0.0,0.0,0.0,0.0,0.0,0.0,0.0,0.0,0.0,0.0,0.0,0.0,0.0,0.0,0.0,0.0,0.0,0.0,0.0,0.0,0.0,0.0,0.0,0.0,0.0,0.0,0.0,0.0,0.0,0.0,0.0,0.0,0.0,0.0,0.0,0.0,0.0,0.0,0.0,0.0,0.0,0.0,0.0,0.0,0.0,0.0,0.0,0.0,0.0,0.0,0.0,0.0,0.0,0.0,0.0,0.0,0.0,0.0,0.0,0.0,0.0,0.0,0.0,0.0,0.0,0.0,0.0,0.0,0.0,0.0,0.0,0.0,0.0,0.0,0.0,0.0,0.0,0.0,0.0,0.0,0.0,0.0,0.0,0.0,0.0,0.0,0.0,0.0,0.0,0.0,0.0,0.0,0.0,0.0,0.0,0.0,0.0,0.0,0.0,0.0,0.0,0.0,0.0,0.0,0.0,0.0,0.0,0.0,0.0,0.0,0.0,0.0,0.0,0.0,0.0,0.0,0.0,0.0,0.0,0.0,0.0,0.0,0.0,0.0,0.0,0.0,0.0,0.0,0.0,0.0,0.0,0.0,0.0,0.0,0.0,0.0,0.0,0.0,0.0,0.0,0.0,0.0,0.0,0.0,0.0,0.0,0.0,0.0,0.0,0.0,0.0,0.0,0.0,0.0,0.0,0.0,0.0,0.0,0.0,0.0,0.0,0.0,0.0,0.0,0.0,0.0,0.0,0.0,0.0,0.0,0.0,0.0,0.0,0.0,0.0,0.0,0.0,0.0,0.0,0.0,0.0,0.0,0.0,0.0,0.0,0.0,0.0,0.0,0.0,0.0,0.0,0.0,0.0,0.0,0.0,0.0,0.0,0.0,0.0,0.0,0.0,0.0,0.0,0.0,0.0,0.0,0.0,0.0,0.0,0.0,0.0,0.0,0.0,0.0,0.0,0.0,0.0,0.0,0.0,0.0,0.0,0.0,0.0,0.0,0.0,0.0,0.0,0.0,0.0,0.0,0.0,0.0,0.0,0.0,0.0,0.0,0.0,0.0,0.0,0.0,0.0,0.0,0.0,0.0,0.0,0.0,0.0,0.0,0.0,0.0,0.0,0.0,0.0,0.0,0.0,0.0,0.0,0.0,0.0,0.0,0.0,0.0,0.0,0.0,0.0,0.0,0.0,0.0,0.0,0.0,0.0,0.0,0.0,0.0,0.0,0.0,0.0,0.0,0.0,0.0,0.0,0.0,0.0,0.0,0.0,0.0,0.0,0.0,0.0,0.0,0.0,0.0,0.0,0.0,0.0,0.0,0.0,0.0,0.0,0.0,0.0,0.0,0.0,0.0,0.0,0.0,0.0,0.0,0.0,0.0,0.0,0.0,0.0,0.0,0.0,0.0,0.0,0.0,0.0,0.0,0.0,0.0,0.0,0.0,0.0,0.0,0.0,0.0,0.0,0.0,0.0,0.0,0.0,0.0,0.0,0.0,0.0,0.0,0.0,0.0,0.0,0.0,0.0,0.0,0.0,0.0,0.0,0.0,0.0,0.0,0.0,0.0,0.0,0.0,0.0,0.0,0.0,0.0,0.0,0.0,0.0,0.0,0.0,0.0,0.0,0.0,0.0,0.0,0.0,0.0,0.0,0.0,0.0,0.0,0.0,0.0,0.0,0.0,0.0,0.0,0.0,0.0,0.0,0.0,0.0,0.0,0.0,0.0,0.0,0.0,0.0,0.0,0.0,0.0,0.0,0.0,0.0,0.0,0.0,0.0,0.0,0.0,0.0,0.0,0.0,0.0,0.0,0.0,0.0,0.0,0.0,0.0,0.0,0.0,0.0,0.0,0.0,0.0,0.0,0.0,0.0,0.0,0.0,0.0,0.0,0.0,0.0,0.0,0.0,0.0,0.0,0.0,0.0,0.0,0.0,0.0,0.0,0.0,0.0,0.0,0.0,0.0,0.0,0.0,0.0,0.0,0.0,0.0,0.0,0.0,0.0,0.0,0.0,0.0,0.0,0.0,0.0,0.0,0.0,0.0,0.0,0.0,0.0,0.0,0.0,0.0,0.0,0.0,0.0,0.0,0.0,0.0,0.0,0.0,0.0,0.0,0.0,0.0,0.0,0.0,0.0,0.0,0.0,0.0,0.0,0.0,0.0,0.0,0.0,0.0,0.0,0.0,0.0,0.0,0.0,0.0,0.0,0.0,0.0,0.0,0.0,0.0,0.0,0.0,0.0,0.0,0.0,0.0,0.0,0.0,0.0,0.0,0.0,0.0,0.0,0.0,0.0,0.0,0.0,0.0,0.0,0.0,0.0,0.0,0.0,0.0,0.0,0.0,0.0,0.0,0.0,0.0,0.0,0.0,0.0,0.0,0.0,0.0,0.0,0.0,0.0,0.0,0.0,0.0,0.0,0.0,0.0,0.0,0.0,0.0,0.0,0.0,0.0,0.0,0.0,0.0,0.0,0.0,0.0,0.0,0.0,0.0,0.0,0.0,0.0,0.0,0.0,0.0,0.0,0.0,0.0,0.0,0.0,0.0,0.0,0.0,0.0,0.0,0.0,0.0,0.0,0.0,0.0,0.0,0.0,0.0,0.0,0.0,0.0,0.0,0.0,0.0,0.0,0.0,0.0,0.0,0.0,0.0,0.0,0.0,0.0,0.0,0.0,0.0,0.0,0.0,0.0,0.0,0.0,0.0,0.0,0.0,0.0,0.0,0.0,0.0,0.0,0.0,0.0,0.0,0.0,0.0,0.0,0.0,0.0,0.0,0.0,0.0,0.0,0.0,0.0,0.0,0.0,0.0,0.0,0.0,0.0,0.0,0.0,0.0,0.0,0.0,0.0,0.0,0.0,0.0,0.0,0.0,0.0,0.0,0.0,0.0,0.0,0.0,0.0,0.0,0.0,0.0,0.0,0.0,0.0,0.0,0.0,0.0,0.0,0.0,0.0,0.0,0.0,0.0,0.0,0.0,0.0,0.0,0.0,0.0,0.0,0.0,0.0,0.0,0.0,0.0,0.0,0.0,0.0,0.0,0.0,0.0,0.0,0.0,0.0,0.0,0.0,0.0,0.0,0.0,0.0,0.0,0.0,0.0,0.0,0.0,0.0,0.0,0.0,0.0,0.0,0.0,0.0,0.0,0.0,0.0,0.0,0.0,0.0,0.0,0.0,0.0,0.0,0.0,0.0,0.0,0.0,0.0,0.0,0.0,0.0,0.0,0.0,0.0,0.0,0.0,0.0,0.0,0.0,0.0,0.0,0.0,0.0,0.0,0.0,0.0,0.0,0.0,0.0,0.0,0.0,0.0,0.0,0.0,0.0,0.0,0.0,0.0,0.0,0.0,0.0,0.0,0.0,0.0,0.0,0.0,0.0,0.0,0.0,0.0,0.0,0.0,0.0,0.0,0.0,0.0,0.0,0.0,0.0,0.0,0.0,0.0,0.0,0.0,0.0,0.0,0.0,0.0,0.0,0.0,0.0,0.0,0.0,0.0,0.0,0.0,0.0,0.0,0.0,0.0,0.0,0.0,0.0,0.0,0.0,0.0,0.0,0.0,0.0,0.0,0.0,0.0,0.0,0.0,0.0,0.0,0.0,0.0,0.0,0.0,0.0,0.0,0.0,0.0,0.0,0.0,0.0,0.0,0.0,0.0,0.0,0.0,0.0,0.0,0.0,0.0,0.0,0.0,0.0,0.0,0.0,0.0,0.0,0.0,0.0,0.0,0.0,0.0,0.0,0.0,0.0,0.0,0.0,0.0,0.0,0.0,0.0,0.0,0.0,0.0,0.0,0.0,0.0,0.0,0.0,0.0,0.0,0.0,0.0,0.0,0.0,0.0,0.0,0.0,0.0,0.0,0.0,0.0,0.0,0.0,0.0,0.0,0.0,0.0,0.0,0.0,0.0,0.0,0.0,0.0,0.0,0.0,0.0,0.0,0.0,0.0,0.0,0.0,0.0,0.0,0.0,0.0,0.0,0.0,0.0,0.0,0.0,0.0,0.0,0.0,0.0,0.0,0.0,0.0,0.0,0.0,0.0,0.0,0.0,0.0,0.0,0.0,0.0,0.0,0.0,0.0,0.0,0.0,0.0,0.0,0.0,0.0,0.0,0.0,0.0,0.0,0.0,0.0,0.0,0.0,0.0,0.0,0.0,0.0,0.0,0.0,0.0,0.0,0.0,0.0,0.0,0.0,0.0,0.0,0.0,0.0,0.0,0.0,0.0,0.0,0.0,0.0,0.0,0.0,0.0,0.0,0.0,0.0,0.0,0.0,0.0,0.0,0.0,0.0,0.0,0.0,0.0,0.0,0.0,0.0,0.0,0.0,0.0,0.0,0.0,0.0,0.0,0.0,0.0,0.0,0.0,0.0,0.0,0.0,0.0,0.0,0.0,0.0,0.0,0.0,0.0,0.0,0.0,0.0,0.0,0.0,0.0,0.0,0.0,0.0,0.0,0.0,0.0,0.0,0.0,0.0,0.0,0.0,0.0,0.0,0.0,0.0,0.0,0.0,0.0,0.0,0.0,0.0,0.0,0.0,0.0,0.0,0.0,0.0,0.0,0.0,0.0,0.0,0.0,0.0,0.0,0.0,0.0,0.0,0.0,0.0,0.0,0.0,0.0,0.0,0.0,0.0,0.0,0.0,0.0,0.0,0.0,0.0,0.0,0.0,0.0,0.0,0.0,0.0,0.0,0.0,0.0,0.0,0.0,0.0,0.0,0.0,0.0,0.0,0.0,0.0,0.0,0.0,0.0,0.0,0.0,0.0,0.0,0.0,0.0,0.0,0.0,0.0,0.0,0.0,0.0,0.0,0.0,0.0,0.0,0.0,0.0,0.0,0.0,0.0,0.0,0.0,0.0,0.0,0.0,0.0,0.0,0.0,0.0,0.0,0.0,0.0,0.0,0.0,0.0,0.0,0.0,0.0,0.0,0.0,0.0,0.0,0.0,0.0,0.0,0.0,0.0,0.0,0.0,0.0,0.0,0.0,0.0,0.0,0.0,0.0725,0.0553,0.0,0.0,0.0,0.0,0.0,0.0,0.0,0.0,0.0,0.0,0.0,0.0,0.0,0.0,0.0,0.0,0.0,0.0,0.0,0.0,0.0,0.0,0.0,0.0,0.0,0.0,0.0,0.0,0.0,0.0,0.0,0.0,0.0,0.0,0.0,0.0,0.0,0.0,0.0,0.0,0.0,0.0,0.0,0.0,0.0,0.0,0.0,0.0,0.0,0.0,0.0,0.0,0.0,0.0,0.0,0.0,0.0,0.0,0.0,0.0,0.0,0.0,0.0,0.0,0.0,0.0,0.0,0.0,0.0,0.0,0.0,0.0,0.0,0.0,0.0,0.0,0.0,0.0,0.0,0.0,0.0,0.0,0.0,0.0,0.0,0.0,0.0,0.0,0.0,0.0,0.0,0.0,0.0,0.0,0.0,0.0,0.0,0.0,0.0,0.0,0.0,0.0,0.0,0.0,0.0,0.0,0.0,0.0,0.0,0.0,0.0,0.0,0.0,0.0,0.102,0.088,0.0,0.0,0.0,0.0,0.0,0.0,0.0,0.0,0.0,0.0,0.0,0.0,0.0,0.0,0.0,0.0,0.0,0.0,0.0,0.0,0.0,0.0,0.0,0.0,0.0,0.0,0.0,0.0,0.0,0.0,0.0,0.0,0.0,0.0,0.0,0.0,0.0,0.0,0.0,0.0,0.0,0.0,0.0,0.0,0.0,0.0,0.0,0.0,0.0,0.0,0.0,0.0,0.0,0.0,0.0,0.0,0.0,0.0,0.0,0.0,0.0,0.0,0.0,0.0,0.0,0.0,0.0,0.0,0.0,0.0,0.0,0.0,0.0,0.0,0.0,0.0,0.0,0.0,0.0,0.0,0.0,0.0,0.0,0.0,0.0,0.0,0.0,0.0,0.0,0.0,0.0,0.0,0.0,0.0,0.0,0.0,0.0,0.0,0.0,0.0,0.0,0.0,0.0,0.0,0.0,0.0,0.0,0.0,0.1689,0.1684,0.1684,0.1568,0.1568,0.1558,0.144,0.1343,0.1216,0.1216,0.0,0.0,0.0,0.0,0.0,0.0,0.0,0.0,0.0,0.0,0.0,0.0,0.0,0.0,0.0,0.0,0.0,0.0,0.0,0.0,0.0,0.0,0.0,0.0,0.0,0.0,0.0,0.0,0.0,0.0,0.0,0.0,0.0,0.0,0.0,0.0,0.0,0.0,0.1658,0.1876,0.2006,0.2086,0.0,0.0,0.0,0.0,0.0,0.0,0.0,0.0,0.0,0.0,0.0,0.0,0.0,0.0,0.0,0.0,0.0,0.0,0.0,0.0,0.0,0.0,0.0,0.0,0.0,0.0,0.0,0.0,0.0,0.0,0.0,0.0,0.0,0.0,0.0,0.0,0.0,0.0,0.0,0.0,0.0,0.0,0.0,0.0,0.2284,0.2405,0.0,0.0,0.0,0.0,0.0,0.0,0.0,0.0,0.0,0.0,0.0,0.0,0.0,0.2211,0.207,0.2098,0.2045,0.1926,0.2048,0.2106,0.2106,0.2106,0.2106,0.2105,0.2072,0.0,0.1365,0.1365,0.0,0.0,0.0,0.0,0.0,0.0,0.0,0.0,0.0,0.0,0.0,0.0,0.0,0.0,0.0,0.0,0.0,0.0,0.0,0.0,0.0,0.0,0.0,0.0,0.0,0.0,0.0,0.0,0.0,0.0,0.0,0.0,0.0,0.0,0.0,0.0,0.144,0.1695,0.1807,0.2169,0.2342,0.2427,0.257,0.2534,0.2346,0.226,0.0,0.0,0.0,0.0,0.0,0.0,0.0,0.0,0.0,0.0,0.0,0.0,0.0,0.0,0.0,0.0,0.0,0.0,0.0,0.0,0.0,0.0,0.0,0.0,0.0,0.0,0.0,0.0,0.0,0.0,0.0,0.0,0.0,0.0,0.0,0.0,0.0,0.0,0.0,0.2474,0.2694,0.2875,0.2951,0.2976,0.0,0.0,0.0,0.0,0.0,0.0,0.0,0.0,0.0,0.2659,0.2689,0.2656,0.2615,0.2468,0.2387,0.2323,0.2282,0.2273,0.2304,0.2304,0.2322,0.2353,0.2317,0.2174,0.1935,0.1814,0.181,0.1837,0.0,0.0,0.0,0.0,0.2199,0.2301,0.0,0.0,0.0,0.0,0.0,0.0,0.0,0.0,0.0,0.0,0.0,0.0,0.0,0.0,0.0,-0.1032,0.0,0.0,0.0,0.0,0.0,0.0,0.0,0.0,0.0,0.0,0.0,0.0,0.1595,0.182,0.2015,0.2445,0.2647,0.2669,0.3063,0.3122,0.2819,0.2763,0.2728,0.0,0.0,0.0,0.0,0.0,0.0,0.0,0.0,0.0,0.0,0.0,0.0,0.0,0.0,0.0,0.0,0.0,0.0,0.0,0.0,0.0,0.0,0.0,0.0,0.0,0.0,0.0,0.0,0.0,0.0,0.0,0.0,0.0,0.0,0.0,0.0,0.0,0.0,0.2934,0.3149,0.3397,0.3517,0.3525,0.0,0.0,0.0,0.0,0.0,0.0,0.328,0.3271,0.3237,0.312,0.3101,0.3055,0.312,0.294,0.2769,0.2698,0.2546,0.245,0.2489,0.2489,0.2514,0.2555,0.251,0.2489,0.247,0.2232,0.2189,0.223,0.226,0.2332,0.2431,0.2554,0.2708,0.2765,0.0,0.0,0.0,0.0,0.0,0.0,0.0,0.0,0.0,0.0,0.0,0.0,0.0,0.0,-0.1393,-0.1375,-0.1217,-0.1007,0.0,0.0,0.0,0.0,0.0,0.0,0.0,0.0,0.0,0.1393,0.1606,0.1897,0.2209,0.2615,0.2827,0.2897,0.3338,0.3379,0.3187,0.3199,0.3177,0.314,0.0,0.0,0.0,0.0,0.0,0.0,0.0,0.0,0.0,0.0,0.0,0.0,0.0,0.0,0.0,0.0,0.0,0.0,0.0,0.0,0.0,0.0,0.0,0.0,0.0,0.0,0.0,0.0,0.0,0.0,0.0,0.0,0.0,0.0,0.0,0.0,0.0,0.0,0.0,0.3951,0.4019,0.0,0.0,0.0,0.0,0.4125,0.3961,0.3815,0.3782,0.3827,0.3682,0.3411,0.3509,0.3529,0.3388,0.3469,0.3388,0.2989,0.2977,0.2843,0.2679,0.2679,0.268,0.2683,0.268,0.2679,0.2659,0.242,0.2429,0.2578,0.257,0.2734,0.2937,0.3,0.3199,0.3454,0.0,0.0,0.0,0.0,0.0,0.0,0.0,0.0,0.0,0.0,0.0,0.0,0.0,-0.1624,-0.1571,-0.1455,-0.1373,-0.1204,-0.0997,0.0,0.0,0.0,0.0,0.0,0.0,0.0,0.1173,0.1536,0.1728,0.195,0.2273,0.2695,0.296,0.2989,0.3493,0.3632,0.3556,0.3522,0.3511,0.3492,0.3456,0.3342,0.0,0.0,0.0,0.0,0.0,0.0,0.0,0.0,0.0,0.0,0.0,0.0,0.0,0.0,0.0,0.0,0.0,0.0,0.0,0.0,0.0,0.0,0.0,0.0,0.0,0.0,0.0,0.0,0.0,0.0,0.0,0.0,0.0,0.0,0.0,0.0,0.0,0.4551,0.4666,0.0,0.4836,0.4603,0.4489,0.4604,0.449,0.433,0.4056,0.4227,0.409,0.3707,0.3826,0.381,0.3812,0.3706,0.3571,0.3407,0.3185,0.2966,0.2918,0.2835,0.2773,0.2807,0.2937,0.2918,0.2993,0.3021,0.2895,0.2786,0.3039,0.3118,0.3117,0.326,0.3472,0.3747,0.0,0.0,0.0,0.0,0.0,0.0,0.0,0.0,0.0,0.0,0.0,-0.1798,-0.1938,-0.1913,-0.1822,-0.1724,-0.1589,-0.1406,-0.1132,0.0,0.0,0.0,0.0,0.0,0.0,0.1021,0.1222,0.1504,0.1714,0.2001,0.2219,0.2751,0.3026,0.3105,0.3576,0.3774,0.384,0.3929,0.3903,0.3896,0.3911,0.3878,0.3724,0.0,0.0,0.0,0.0,0.0,0.0,0.0,0.0,0.0,0.0,0.0,0.0,0.0,0.0,0.0,0.0,0.0,0.0,0.0,0.0,0.0,0.0,0.0,0.0,0.0,0.0,0.0,0.0,0.0,0.0,0.0,0.0,0.0,0.0,0.0,0.4844,0.5078,0.5196,0.5299,0.5424,0.5168,0.5038,0.514,0.4935,0.4733,0.454,0.452,0.4433,0.4106,0.4034,0.4081,0.4081,0.3939,0.3865,0.3781,0.344,0.3306,0.3284,0.3197,0.3147,0.3206,0.334,0.3306,0.3279,0.358,0.347,0.3164,0.3408,0.35,0.3522,0.3646,0.3858,0.4072,0.0,0.0,0.0,0.0,0.0,0.0,0.0,0.0,0.0,0.0,-0.1874,-0.2042,-0.2197,-0.2224,-0.216,-0.2113,-0.1925,-0.1661,-0.1337,-0.1067,0.0,0.0,0.0,0.0,0.0959,0.099,0.1115,0.1282,0.1607,0.1896,0.213,0.2629,0.3008,0.3334,0.3577,0.3783,0.403,0.4347,0.4351,0.4218,0.4253,0.424,0.4085,0.0,0.0,0.0,0.0,0.0,0.0,0.0,0.0,0.0,0.0,0.0,0.0,0.0,0.0,0.0,0.0,0.0,0.0,0.0,0.0,0.0,0.0,0.0,0.0,0.0,0.0,0.0,0.0,0.0,0.0,0.0,0.0,0.0,0.4951,0.5106,0.5348,0.5606,0.5651,0.5728,0.6023,0.5676,0.5558,0.5814,0.5436,0.5167,0.5118,0.488,0.4634,0.4466,0.4308,0.4185,0.4185,0.4267,0.422,0.3956,0.3956,0.3816,0.3704,0.3704,0.3745,0.391,0.391,0.3866,0.3704,0.3977,0.3974,0.3821,0.3735,0.3869,0.4026,0.4183,0.4306,0.4513,0.0,0.0,0.0,0.0,0.0,0.0,0.0,0.0,0.0,0.0,-0.2109,-0.2238,-0.2289,-0.2328,-0.2325,-0.2276,-0.2086,-0.1843,-0.1662,0.0,0.0,0.0,0.0,0.0,0.0257,0.079,0.1102,0.1248,0.1575,0.1928,0.2233,0.2667,0.3033,0.3413,0.3602,0.3783,0.4034,0.4253,0.4415,0.4437,0.4572,0.4512,0.423,0.0,0.0,0.0,0.0,0.0,0.0,0.0,0.0,0.0,0.0,0.0,0.0,0.0,0.0,0.0,0.0,0.0,0.0,0.0,0.0,0.0,0.0,0.0,0.0,0.0,0.0,0.0,0.0,0.0,0.0,0.0,0.0,0.5852,0.5675,0.5653,0.5829,0.6239,0.6197,0.6193,0.6488,0.6112,0.59,0.5973,0.565,0.5416,0.5359,0.5087,0.4985,0.4876,0.4633,0.4463,0.4463,0.4485,0.4498,0.4404,0.4215,0.4135,0.4062,0.3877,0.3889,0.391,0.4096,0.4082,0.4062,0.4344,0.4372,0.4256,0.4106,0.4008,0.4032,0.4255,0.4529,0.4778,0.0,0.0,0.0,0.0,0.0,0.0,0.0,0.0,0.0,0.0,-0.2284,-0.2438,-0.2418,-0.2492,-0.2505,-0.2385,-0.2196,-0.2017,-0.1797,0.0,0.0,0.0,0.0,-0.0124,-0.0,0.0414,0.0788,0.1212,0.147,0.1821,0.2195,0.257,0.2863,0.3323,0.3528,0.3802,0.3974,0.4274,0.4393,0.449,0.4686,0.4649,0.4507,0.433,0.4212,0.4145,0.4063,0.3981,0.3912,0.4046,0.0,0.0,0.0,0.0,0.0,0.0,0.0,0.0,0.0,0.0,0.0,0.0,0.0,0.0,0.0,0.0,0.0,0.0,0.0,0.0,0.0,0.0,0.0,0.0,0.6063,0.6538,0.6551,0.6382,0.6299,0.6674,0.6527,0.6536,0.6773,0.6373,0.6166,0.6279,0.592,0.5662,0.5689,0.5388,0.5169,0.5135,0.4761,0.4573,0.4573,0.4573,0.4573,0.4573,0.4476,0.4399,0.4436,0.4246,0.4264,0.4294,0.439,0.4467,0.4434,0.4532,0.4575,0.4479,0.0,0.0,0.0,0.0,0.4866,0.5104,0.0,0.0,0.0,0.0,0.0,0.0,0.0,0.0,0.0,0.0,0.0,-0.2629,-0.2586,-0.2716,-0.275,-0.2546,-0.2353,-0.2124,0.0,0.0,0.0,-0.0992,-0.0639,-0.0329,-0.0,-0.0,0.037,0.1141,0.1271,0.1543,0.196,0.2296,0.2603,0.3051,0.3379,0.3678,0.3942,0.4303,0.4435,0.4497,0.4656,0.4765,0.4755,0.4599,0.4439,0.4389,0.4508,0.4433,0.4349,0.4611,0.0,0.0,0.0,0.0,0.0,0.0,0.0,0.0,0.0,0.0,0.0,0.0,0.0,0.0,0.0,0.0,0.0,0.0,0.0,0.0,0.0,0.0,0.0,0.0,0.6672,0.7204,0.7468,0.7165,0.6883,0.6883,0.681,0.6787,0.6939,0.6535,0.6383,0.6618,0.619,0.5977,0.61,0.0,0.0,0.0,0.0,0.4602,0.4602,0.4602,0.4602,0.4602,0.4602,0.4645,0.4724,0.4724,0.4763,0.4834,0.4834,0.4792,0.4724,0.4724,0.4669,0.4577,0.4475,0.4563,0.4739,0.5082,0.532,0.539,0.0,0.0,0.0,0.0,0.0,0.0,0.0,0.0,0.0,-0.2211,-0.259,-0.279,-0.2628,-0.2831,-0.2874,-0.27,-0.2517,-0.2256,0.0,0.0,-0.127,-0.1022,-0.0988,-0.0684,-0.0,-0.0,0.0228,0.0702,0.1103,0.1452,0.1754,0.2191,0.2587,0.2939,0.322,0.3497,0.3946,0.4018,0.4234,0.4508,0.4556,0.462,0.473,0.4742,0.4762,0.4771,0.4605,0.4686,0.48,0.4642,0.4634,0.4599,0.4572,0.0,0.0,0.0,0.0,0.0,0.0,0.0,0.0,0.0,0.0,0.0,0.0,0.0,0.0,0.0,0.0,0.0,0.0,0.0,0.0,0.6712,0.7123,0.746,0.7675,0.7542,0.7461,0.7461,0.7102,0.6943,0.7085,0.6761,0.6581,0.6633,0.6273,0.6105,0.6227,0.5749,0.5494,0.5575,0.5081,0.4783,0.4783,0.4783,0.4783,0.4783,0.4783,0.0,0.481,0.481,0.4818,0.4834,0.4834,0.4824,0.481,0.481,0.4761,0.4665,0.4688,0.4836,0.5008,0.5257,0.5444,0.5515,0.0,0.0,0.0,0.0,0.0,0.0,0.0,0.0,0.0,0.0,-0.2593,-0.2769,-0.2737,-0.2857,-0.289,-0.2861,-0.2659,0.0,0.0,-0.1792,-0.1539,-0.1287,-0.1143,-0.0911,-0.0583,-0.0224,0.0077,0.0314,0.0954,0.1384,0.1513,0.1785,0.2174,0.269,0.2957,0.3227,0.3587,0.3678,0.3922,0.4232,0.427,0.4393,0.4532,0.4744,0.4825,0.4868,0.4751,0.4777,0.4827,0.4758,0.4662,0.4668,0.4668,0.4464,0.4251,0.0,0.0,0.0,0.0,0.0,0.0,0.0,0.0,0.0,0.0,0.0,0.0,0.0,0.0,0.614,0.0,0.0,0.6802,0.7159,0.7594,0.7923,0.7851,0.7831,0.7696,0.761,0.7246,0.7092,0.7241,0.6869,0.6691,0.6832,0.6429,0.623,0.6347,0.5859,0.5584,0.5634,0.5035,0.4834,0.4834,0.4834,0.4834,0.4834,0.4834,0.4834,0.4834,0.4834,0.4834,0.4834,0.4834,0.4834,0.4834,0.4834,0.4785,0.4696,0.4935,0.5094,0.5084,0.5392,0.5604,0.5643,0.0,0.0,0.0,0.0,0.0,0.0,0.0,0.0,0.0,0.0,-0.2564,-0.2702,-0.2828,-0.2818,-0.2854,0.0,0.0,0.0,0.0,-0.1992,-0.1812,-0.1609,-0.1293,-0.1207,-0.1166,-0.0598,-0.0153,-0.0,0.0721,0.1063,0.117,0.1367,0.1746,0.232,0.2596,0.2868,0.3136,0.3406,0.3587,0.3849,0.4027,0.411,0.427,0.4587,0.4744,0.4774,0.4854,0.4808,0.4766,0.4748,0.4689,0.4662,0.4662,0.4568,0.4418,0.432,0.4201,0.0,0.0,0.0,0.0,0.0,0.0,0.0,0.0,0.0,0.6158,0.6104,0.6387,0.6759,0.6814,0.711,0.7399,0.7606,0.8004,0.8219,0.7994,0.7945,0.7804,0.758,0.733,0.72,0.7356,0.6936,0.678,0.7027,0.6583,0.6342,0.6431,0.5934,0.5636,0.5636,0.5035,0.4834,0.4834,0.4834,0.4834,0.4834,0.4834,0.4834,0.4834,0.4834,0.4834,0.4834,0.4834,0.4834,0.4834,0.4834,0.4785,0.47,0.5179,0.5263,0.5156,0.5594,0.5733,0.5733,0.0,0.0,0.0,0.0,0.0,0.0,0.0,0.0,0.0,0.0,0.0,0.0,0.0,0.0,0.0,0.0,0.0,0.0,0.0,-0.2148,-0.1936,-0.1931,-0.1565,-0.1348,-0.1166,-0.1196,-0.0767,-0.0,0.0079,0.0319,0.0654,0.1169,0.1451,0.1571,0.2046,0.2511,0.2957,0.2957,0.3227,0.3669,0.3767,0.3943,0.4024,0.4181,0.4475,0.473,0.4735,0.479,0.4888,0.471,0.4686,0.4806,0.4806,0.4711,0.4595,0.4565,0.0,0.4073,0.4155,0.4254,0.4411,0.4752,0.5165,0.5568,0.0,0.0,0.6658,0.6603,0.6887,0.7188,0.7362,0.7561,0.7809,0.8146,0.8251,0.8259,0.815,0.8017,0.776,0.757,0.7312,0.72,0.7356,0.7028,0.6884,0.7036,0.6657,0.6423,0.6437,0.5934,0.5636,0.5636,0.5035,0.4834,0.4834,0.4834,0.4834,0.4834,0.4834,0.4834,0.4834,0.4834,0.4834,0.4834,0.4834,0.4834,0.4834,0.4834,0.4785,0.47,0.5179,0.5263,0.5156,0.5594,0.5733,0.5733,0.0,0.0,0.0,0.0,0.0,0.0,0.0,0.0,0.0,0.0,0.0,0.0,0.0,0.0,0.0,0.0,0.0,0.0,-0.2543,-0.2389,-0.2208,-0.1943,-0.186,-0.1733,-0.1496,-0.1336,-0.1142,-0.0769,-0.0234,0.008,0.0326,0.0493,0.0918,0.1449,0.1635,0.1988,0.2419,0.2592,0.2766,0.3109,0.3252,0.3449,0.3615,0.3854,0.3997,0.4123,0.435,0.4467,0.0,0.0,0.4431,0.45,0.45,0.4463,0.4407,0.4397,0.4323,0.0,0.4398,0.4569,0.0,0.0,0.5445,0.5778,0.5984,0.6542,0.7004,0.7012,0.7363,0.7707,0.7776,0.7943,0.8117,0.0,0.8205,0.8119,0.7845,0.768,0.7591,0.7323,0.7143,0.72,0.7356,0.7041,0.6899,0.7036,0.6671,0.6437,0.6437,0.6037,0.5739,0.5636,0.5238,0.4937,0.4834,0.4834,0.4834,0.4834,0.4834,0.4834,0.4834,0.4834,0.4834,0.4834,0.4834,0.4834,0.4834,0.4834,0.4785,0.47,0.4986,0.5073,0.5156,0.5594,0.5733,0.5733,0.0,0.0,0.0,0.0,0.0,0.0,0.0,0.0,0.0,0.0,0.0,0.0,0.0,0.0,0.0,0.0,0.0,0.0,0.0,-0.2599,-0.2461,-0.2099,-0.2119,0.0,-0.1802,-0.1595,-0.1414,-0.1274,-0.0691,-0.0235,-0.008,-0.0,0.041,0.1083,0.1258,0.1598,0.185,0.2018,0.2271,0.252,0.274,0.2942,0.3125,0.3422,0.3465,0.3435,0.3946,0.4152,0.0,0.0,0.4072,0.4072,0.4072,0.4093,0.4103,0.4145,0.4249,0.4362,0.4552,0.0,0.0,0.5304,0.5686,0.5983,0.6197,0.6765,0.7246,0.7246,0.7515,0.7851,0.7851,0.7998,0.8033,0.7862,0.8005,0.794,0.7591,0.7507,0.7415,0.7143,0.7139,0.7098,0.7208,0.6926,0.6899,0.7036,0.6671,0.6437,0.6437,0.6139,0.5839,0.5636,0.5338,0.5037,0.4834,0.4834,0.4834,0.4834,0.4834,0.4834,0.4834,0.4834,0.4834,0.4834,0.4834,0.4834,0.4834,0.4834,0.4769,0.4663,0.4879,0.4962,0.5115,0.5492,0.5644,0.5733,0.0,0.0,0.0,0.0,0.0,0.0,0.0,0.0,0.0,0.0,0.0,0.0,0.0,0.0,0.0,0.0,0.0,0.0,0.0,-0.265,-0.2579,-0.2585,-0.2402,-0.2226,-0.2088,-0.194,-0.1637,-0.1168,-0.1273,-0.1062,-0.0532,-0.008,0.0081,0.0163,0.0917,0.1346,0.1344,0.1344,0.1597,0.2178,0.2403,0.2515,0.2578,0.2903,0.2898,0.2831,0.3567,0.0,0.0,0.0,0.3522,0.3522,0.3522,0.3595,0.0,0.3862,0.4118,0.0,0.0,0.0,0.4886,0.5364,0.5868,0.6314,0.6542,0.6947,0.7267,0.7267,0.736,0.745,0.745,0.7494,0.7603,0.7599,0.7744,0.7856,0.7507,0.7507,0.7415,0.7143,0.7139,0.7058,0.0,0.6777,0.6899,0.7036,0.6671,0.6437,0.6437,0.6139,0.5839,0.5636,0.5338,0.5037,0.4834,0.4834,0.4834,0.4834,0.4834,0.4834,0.4834,0.4834,0.4834,0.4834,0.4834,0.4834,0.4834,0.4834,0.4732,0.4575,0.4853,0.4919,0.5015,0.5282,0.5552,0.5733,0.0,0.0,0.0,0.0,0.0,0.0,0.0,0.0,0.0,0.0,0.0,0.0,0.0,0.0,0.0,0.0,0.0,0.0,0.0,-0.2783,-0.2743,-0.2736,-0.2604,-0.2474,-0.2413,-0.2158,-0.1884,-0.1798,-0.1563,-0.1307,-0.096,-0.0827,-0.053,-0.0152,0.0306,0.0613,0.0767,0.115,0.138,0.1531,0.1807,0.1924,0.2033,0.2314,0.2433,0.2342,0.0,0.0,0.0,0.0,0.0,0.0,0.3513,0.0,0.0,0.3818,0.4025,0.4298,0.0,0.0,0.5235,0.5478,0.5943,0.6312,0.6394,0.6874,0.7242,0.7217,0.7362,0.7491,0.7386,0.7412,0.748,0.7417,0.7483,0.7469,0.7221,0.7231,0.7231,0.7139,0.6966,0.0,0.0,0.0,0.0,0.6608,0.6452,0.6358,0.6431,0.6337,0.6037,0.5636,0.5536,0.5236,0.4834,0.4834,0.4834,0.4834,0.4834,0.4834,0.4834,0.4834,0.4834,0.4834,0.4834,0.4834,0.483,0.4773,0.4679,0.4567,0.4597,0.4769,0.501,0.5099,0.5371,0.5733,0.0,0.0,0.0,0.0,0.0,0.0,0.0,0.0,0.0,0.0,0.0,0.0,0.0,0.0,0.0,0.0,0.0,0.0,0.0,0.0,-0.282,-0.2796,-0.2719,-0.2664,-0.2578,-0.2385,-0.2207,-0.2056,-0.1804,-0.158,-0.1397,-0.1199,-0.0992,-0.0567,-0.0355,-0.0071,0.0426,0.078,0.0922,0.0992,0.1334,0.1454,0.1495,0.1848,0.1922,0.0,0.0,0.0,0.0,0.0,0.0,0.0,0.0,0.3244,0.3441,0.3639,0.3932,0.4154,0.4339,0.4755,0.5188,0.5436,0.5864,0.6179,0.6303,0.6648,0.7048,0.6978,0.7019,0.7148,0.7049,0.7031,0.6986,0.6919,0.7073,0.7132,0.7051,0.7109,0.7139,0.7139,0.6881,0.6815,0.0,0.0,0.0,0.6446,0.633,0.6361,0.6431,0.6437,0.6137,0.5636,0.5636,0.5334,0.4834,0.4834,0.4834,0.4834,0.4834,0.4834,0.4834,0.4834,0.4834,0.4834,0.4834,0.4834,0.483,0.4775,0.4683,0.4567,0.4508,0.4682,0.501,0.501,0.528,0.5733,0.0,0.0,0.0,0.0,0.0,0.0,0.0,0.0,0.0,0.0,0.0,0.0,0.0,0.0,0.0,0.0,0.0,0.0,0.0,0.0,0.0,-0.2807,-0.2886,-0.275,-0.2538,-0.2653,-0.2452,-0.2049,-0.1988,-0.1917,-0.1665,-0.1316,-0.1133,-0.1133,-0.1002,-0.0602,0.0134,0.0134,0.0334,0.06,0.0908,0.109,0.1149,0.1362,0.0,0.0,0.0,0.0,0.0,0.0,0.0,0.0,0.0,0.0,0.3132,0.3442,0.3716,0.3935,0.4227,0.4474,0.4777,0.5237,0.563,0.5946,0.6248,0.6389,0.66,0.6625,0.6447,0.6247,0.0,0.0,0.6244,0.6257,0.6617,0.6902,0.6926,0.7044,0.7044,0.0,0.0,0.0,0.0,0.0,0.0,0.6361,0.0,0.6431,0.6437,0.6437,0.6137,0.5636,0.5636,0.5334,0.4834,0.4834,0.4834,0.4834,0.4834,0.4834,0.4834,0.4834,0.4834,0.4834,0.4834,0.4834,0.4834,0.483,0.4728,0.4573,0.4567,0.4732,0.501,0.501,0.528,0.5733,0.0,0.0,0.0,0.0,0.0,0.0,0.0,0.0,0.0,0.0,0.0,0.0,0.0,0.0,0.0,0.0,0.0,0.0,0.0,0.0,0.0,0.0,0.0,0.0,0.0,0.0,0.0,0.0,0.0,-0.1988,-0.1689,-0.1587,-0.1415,0.0,-0.1002,-0.0826,-0.059,-0.0354,-0.0059,0.0295,0.0,0.0689,0.101,0.0,0.0,0.0,0.0,0.0,0.0,0.0,0.0,0.0,0.0,0.0,0.2809,0.3119,0.3501,0.3904,0.4057,0.448,0.4838,0.5145,0.5438,0.5712,0.5934,0.6053,0.6056,0.608,0.5983,0.5901,0.0,0.0,0.0,0.6224,0.6356,0.0,0.6881,0.6959,0.0,0.6868,0.0,0.66,0.6365,0.6352,0.0,0.0,0.6374,0.6347,0.6431,0.6437,0.6137,0.5636,0.5636,0.5334,0.4834,0.4834,0.4834,0.4834,0.4834,0.4834,0.4834,0.4834,0.4834,0.4834,0.4834,0.4834,0.4828,0.4767,0.4673,0.4567,0.4498,0.4673,0.501,0.501,0.528,0.5733,0.0,0.0,0.0,0.0,0.0,0.0,0.0,0.0,0.0,0.0,0.0,0.0,0.0,0.0,0.0,0.0,0.0,0.0,0.0,0.0,0.0,0.0,0.0,0.0,0.0,0.0,0.0,0.0,0.0,0.0,0.0,-0.1665,-0.1468,-0.1311,-0.1118,-0.0965,-0.0857,0.0,0.0,0.0,0.0,0.0,0.0,0.0,0.0,0.0,0.0,0.0,0.0,0.0,0.0,0.2064,0.2388,0.2546,0.2622,0.294,0.0,0.3545,0.3861,0.4189,0.4608,0.4915,0.5152,0.5435,0.5496,0.5569,0.5593,0.5566,0.5475,0.0,0.0,0.0,0.0,0.0,0.0,0.0,0.6685,0.6844,0.6897,0.0,0.6647,0.0,0.6351,0.6348,0.629,0.0,0.6342,0.6369,0.6434,0.6437,0.6137,0.5636,0.5636,0.5334,0.4834,0.4834,0.4834,0.4834,0.4834,0.4834,0.4834,0.4834,0.4834,0.4834,0.4834,0.4834,0.483,0.4783,0.4687,0.4567,0.4516,0.4689,0.501,0.501,0.528,0.5733,0.0,0.0,0.0,0.0,0.0,0.0,0.0,0.0,0.0,0.0,0.0,0.0,0.0,0.0,0.0,0.0,0.0,0.0,0.0,0.0,0.0,0.0,0.0,0.0,0.0,0.0,0.0,0.0,0.0,0.0,0.0,0.0,0.0,0.0,0.0,0.0,0.0,0.0,0.0,0.0,0.0,0.0,0.0,0.0,0.0,0.0,0.0,0.0,0.0,0.0,0.1532,0.1746,0.2192,0.2415,0.2493,0.2837,0.3018,0.3199,0.3577,0.3935,0.4285,0.4621,0.4915,0.5119,0.5054,0.5123,0.5144,0.5072,0.0,0.4786,0.4814,0.0,0.5091,0.5352,0.0,0.6213,0.6417,0.6688,0.6757,0.6747,0.6635,0.6504,0.6349,0.6288,0.6314,0.6429,0.6437,0.6437,0.6437,0.6437,0.6137,0.5636,0.5536,0.5236,0.4834,0.4834,0.4834,0.4834,0.4834,0.4834,0.4834,0.4834,0.4834,0.4834,0.4834,0.4834,0.4834,0.4834,0.4738,0.4589,0.4577,0.4745,0.5029,0.5015,0.528,0.5733,0.0,0.0,0.0,0.0,0.0,0.0,0.0,0.0,0.0,0.0,0.0,0.0,0.0,0.0,0.0,0.0,0.0,0.0,0.0,0.0,0.0,0.0,0.0,0.0,0.0,0.0,0.0,0.0,0.0,0.0,0.0,0.0,0.0,0.0,0.0,0.0,0.0,0.0,0.0,0.0,0.0,0.0,0.0,0.0,0.0,0.0,0.0,0.0,0.0,0.0,0.1361,0.1567,0.1971,0.2128,0.226,0.2625,0.2852,0.3082,0.3608,0.3808,0.409,0.4467,0.4635,0.4755,0.478,0.4718,0.0,0.0,0.0,0.4237,0.4504,0.4511,0.0,0.5098,0.0,0.0,0.0,0.0,0.6245,0.0,0.0,0.0,0.0,0.0,0.0,0.0,0.6437,0.6437,0.6437,0.6437,0.6137,0.5636,0.5133,0.4935,0.4834,0.4834,0.4834,0.4834,0.4834,0.4834,0.4834,0.4834,0.4834,0.4834,0.4834,0.4834,0.4834,0.4834,0.4775,0.4677,0.4602,0.4786,0.5038,0.5041,0.528,0.5733,0.0,0.0,0.0,0.0,0.0,0.0,0.0,0.0,0.0,0.0,-0.4221,0.0,0.0,0.0,0.0,0.0,0.0,0.0,0.0,0.0,0.0,0.0,0.0,0.0,0.0,0.0,0.0,0.0,0.0,0.0,0.0,0.0,0.0,0.0,0.0,0.0,0.0,0.0,0.0,0.0,0.0,0.0,0.0,0.0,0.0,0.0,0.0,0.0,0.0,0.0,0.1089,0.1259,0.1731,0.1977,0.2126,0.2406,0.2608,0.2893,0.3222,0.347,0.372,0.4022,0.4244,0.4405,0.4351,0.0,0.0,0.0,0.0,0.3815,0.3907,0.0,0.0,0.0,0.0,0.0,0.0,0.0,0.0,0.0,0.0,0.0,0.0,0.0,0.0,0.6429,0.6437,0.6437,0.6437,0.6134,0.5837,0.5438,0.5035,0.4834,0.4834,0.4834,0.4834,0.4834,0.4834,0.4834,0.4834,0.4834,0.4834,0.4834,0.4834,0.4834,0.4834,0.4834,0.4785,0.4704,0.4661,0.4748,0.4982,0.502,0.524,0.5552,0.0,0.0,0.0,0.0,0.0,0.0,0.0,-0.421,-0.4642,-0.4514,-0.4796,-0.4803,-0.43,-0.392,0.0,0.0,0.0,0.0,0.0,0.0,0.0,0.0,0.0,0.0,0.0,0.0,0.0,0.0,0.0,0.0,0.0,0.0,0.0,0.0,0.0,0.0,0.0,0.0,0.0,0.0,0.0,0.0,0.0,0.0,0.0,0.0,0.0,0.0,0.0,0.0,0.0877,0.0962,0.1383,0.17,0.1947,0.2147,0.2324,0.2582,0.2905,0.3212,0.3435,0.3652,0.3869,0.4094,0.3923,0.3915,0.0,0.0,0.3523,0.3473,0.3352,0.0,0.0,0.0,0.0,0.0,0.0,0.0,0.0,0.0,0.0,0.0,0.0,0.0,0.0,0.6426,0.6337,0.6337,0.6337,0.5837,0.5436,0.524,0.4937,0.4834,0.4834,0.4834,0.4834,0.4834,0.4834,0.4834,0.4834,0.4834,0.4834,0.4834,0.4834,0.4834,0.4834,0.4834,0.4796,0.4734,0.4716,0.4706,0.4835,0.4993,0.5194,0.546,0.0,0.0,0.0,0.0,0.0,0.0,0.0,-0.4099,-0.4806,-0.5072,-0.5192,-0.521,-0.511,-0.441,0.0,0.0,0.0,0.0,0.0,0.0,0.0,0.0,0.0,0.0,0.0,0.0,0.0,0.0,0.0,0.0,0.0,0.0,0.0,0.0,0.0,0.0,0.0,0.0,0.0,0.0,0.0,0.0,0.0,0.0,0.0,0.0,0.0,0.0,0.0,0.0,0.0,0.0809,0.0958,0.1178,0.1567,0.1891,0.0,0.0,0.2756,0.317,0.3409,0.3508,0.3775,0.3982,0.3608,0.0,0.0,0.0,0.3221,0.3075,0.3202,0.3153,0.3252,0.0,0.0,0.0,0.0,0.0,0.0,0.0,0.0,0.0,0.0,0.0,0.0,0.642,0.6139,0.6042,0.6042,0.5739,0.5436,0.524,0.4937,0.4834,0.4834,0.4834,0.4834,0.4834,0.4834,0.4834,0.4834,0.4834,0.4834,0.4834,0.4834,0.4834,0.4834,0.4834,0.483,0.4816,0.4738,0.4741,0.4922,0.5018,0.5194,0.546,0.0,0.0,0.0,0.0,0.0,0.0,0.0,-0.4154,-0.4909,-0.517,-0.5319,-0.545,-0.5561,-0.4883,0.0,0.0,0.0,0.0,0.0,0.0,0.0,0.0,0.0,0.0,0.0,0.0,0.0,0.0,0.0,0.0,0.0,0.0,0.0,0.0,0.0,0.0,0.0,0.0,0.0,0.0,0.0,0.0,0.0,0.0,0.0,0.0,0.0,0.0,0.0,0.0,0.0,0.0,0.0808,0.0984,0.0,0.0,0.1817,0.2129,0.2277,0.2711,0.3076,0.3167,0.3374,0.3515,0.3381,0.0,0.0,0.3029,0.2942,0.2933,0.2903,0.2919,0.3009,0.0,0.0,0.0,0.0,0.0,0.0,0.0,0.0,0.0,0.0,0.0,0.0,0.6121,0.6039,0.5842,0.5541,0.5438,0.5238,0.4937,0.4834,0.4834,0.4834,0.4834,0.4834,0.4834,0.4834,0.4834,0.4834,0.4834,0.4834,0.4834,0.4834,0.4834,0.4834,0.4834,0.4834,0.483,0.4798,0.473,0.4833,0.4924,0.5014,0.5103,0.0,0.0,0.0,0.0,0.0,0.0,-0.332,-0.4113,-0.4816,-0.5086,-0.5246,-0.5408,-0.5532,-0.4958,-0.4364,-0.3903,0.0,0.0,0.0,0.0,0.0,0.0,0.0,0.0,0.0,0.0,0.0,0.0,0.0,0.0,0.0,0.0,0.0,0.0,0.0,0.0,0.0,0.0,0.0,0.0,0.0,0.0,0.0,0.0,0.0,0.0,0.0,0.0,0.0,0.0,0.0,0.0,0.0,0.0,0.0,0.0,0.154,0.1893,0.1893,0.2359,0.2772,0.2821,0.2922,0.3035,0.0,0.0,0.2885,0.2672,0.2703,0.2732,0.2653,0.2732,0.2854,0.0,0.0,0.0,0.0,0.0,0.0,0.0,0.0,0.0,0.0,0.0,0.6029,0.6029,0.5842,0.5641,0.524,0.514,0.5037,0.4834,0.4834,0.4834,0.4834,0.4834,0.4834,0.4834,0.4834,0.4834,0.4834,0.4834,0.4834,0.4834,0.4834,0.4834,0.4834,0.4834,0.4834,0.4834,0.4834,0.4783,0.4698,0.4888,0.4886,0.4885,0.0,0.0,0.0,0.0,0.0,0.0,0.0,-0.3925,-0.4453,-0.4853,-0.4956,-0.4996,-0.4907,-0.4494,-0.4158,-0.4015,0.0,0.0,0.0,0.0,0.0,0.0,0.0,0.0,0.0,0.0,0.0,-0.2193,-0.2264,0.0,0.0,0.0,0.0,0.0,0.0,0.0,0.0,0.0,0.0,0.0,0.0,0.0,0.0,0.0,0.0,0.0,0.0,0.0,0.0,0.0,0.0,0.0,0.0,0.0,0.0,0.0,0.1319,0.1542,0.1728,0.2128,0.2544,0.2603,0.2654,0.2736,0.0,0.0,0.2567,0.2504,0.2507,0.2524,0.2486,0.2604,0.2726,0.2893,0.3069,0.0,0.0,0.0,0.0,0.0,0.0,0.0,0.0,0.0,0.5917,0.6032,0.5541,0.0,0.524,0.4937,0.4834,0.4834,0.4834,0.4834,0.4834,0.4834,0.4834,0.4834,0.4834,0.4834,0.4834,0.4834,0.4834,0.4834,0.4834,0.4834,0.4834,0.4834,0.4834,0.4834,0.4834,0.4783,0.4698,0.4888,0.4886,0.4793,0.0,0.0,0.0,0.0,0.0,0.0,0.0,-0.3467,-0.4025,-0.444,-0.4595,-0.4745,-0.494,-0.4504,-0.4174,-0.4073,0.0,0.0,0.0,0.0,0.0,0.0,0.0,0.0,0.0,0.0,-0.2263,-0.2347,-0.2368,-0.2357,-0.235,-0.2389,0.0,0.0,0.0,0.0,0.0,0.0,0.0,0.0,0.0,0.0,0.0,0.0,0.0,0.0,0.0,0.0,0.0,0.0,0.0,0.0,0.0,0.0,0.0,0.0,0.0,0.0,0.1445,0.1846,0.2258,0.2294,0.2405,0.247,0.2452,0.2415,0.2344,0.2205,0.2236,0.2317,0.2355,0.2482,0.2601,0.2724,0.3009,0.0,0.0,0.0,0.0,0.0,0.0,0.0,0.0,0.0,0.5647,0.5429,0.534,0.514,0.4937,0.4834,0.4834,0.4834,0.4834,0.4834,0.4834,0.4834,0.4834,0.4834,0.4834,0.4834,0.4834,0.4834,0.4834,0.4834,0.4834,0.4834,0.4834,0.4834,0.4834,0.4834,0.4834,0.4818,0.4783,0.4793,0.4743,0.4697,0.0,0.0,0.0,0.0,0.0,0.0,0.0,-0.3031,-0.3457,-0.3971,-0.4084,-0.4252,-0.4547,-0.425,-0.3998,-0.3946,0.0,0.0,0.0,0.0,0.0,0.0,0.0,0.0,0.0,-0.2381,-0.2404,-0.2393,-0.2484,-0.2465,-0.2408,-0.2408,-0.2211,-0.1911,0.0,0.0,0.0,0.0,0.0,0.0,0.0,0.0,-0.0504,0.0,0.0,0.0,0.0,0.0,0.0,0.0,0.0,0.0,0.0,0.0,0.0,0.0,0.0872,0.0,0.0,0.1461,0.1863,0.202,0.2114,0.0,0.0,0.2155,0.2112,0.2011,0.2074,0.2149,0.2296,0.2425,0.2558,0.2726,0.3015,0.0,0.0,0.0,0.0,0.0,0.0,0.0,0.0,0.5521,0.5319,0.5227,0.514,0.4937,0.4834,0.4834,0.4834,0.4834,0.4834,0.4834,0.4834,0.4834,0.4834,0.4834,0.4834,0.4834,0.4834,0.4834,0.4834,0.4834,0.4834,0.4834,0.0,0.4834,0.4834,0.4834,0.4834,0.4834,0.4824,0.4741,0.4708,0.4687,0.0,0.0,0.0,0.0,0.0,0.0,0.0,0.0,0.0,0.0,-0.3493,-0.3573,-0.3836,-0.3757,-0.3681,0.0,0.0,0.0,0.0,0.0,0.0,0.0,0.0,0.0,0.0,-0.2528,-0.2544,-0.2393,-0.2587,-0.26,-0.2423,-0.239,-0.2222,-0.1923,-0.189,0.0,0.0,0.0,0.0,0.0,0.0,0.0,0.0,0.0,0.0,0.0,0.0,0.0,0.0,0.0,0.0,0.0,0.0,0.0,0.0,0.0,0.0,0.0,0.0,0.0,0.0,0.0,0.0,0.0,0.0,0.1933,0.0,0.1977,0.1997,0.2076,0.226,0.2433,0.259,0.2874,0.0,0.0,0.0,0.0,0.0,0.0,0.0,0.0,0.5576,0.5239,0.5034,0.5125,0.4937,0.4834,0.4834,0.4834,0.4834,0.4834,0.4834,0.4834,0.4834,0.4834,0.4834,0.4834,0.4834,0.4834,0.4834,0.4734,0.4734,0.4834,0.4734,0.4734,0.4834,0.4834,0.4834,0.4834,0.4834,0.4834,0.4824,0.4747,0.4718,0.4704,0.0,0.0,0.0,0.0,0.0,0.0,0.0,0.0,0.0,0.0,0.0,-0.3242,-0.3565,-0.3426,0.0,0.0,0.0,0.0,0.0,0.0,0.0,0.0,0.0,0.0,0.0,-0.2528,-0.2544,-0.2393,-0.2495,-0.2556,-0.2566,-0.2392,-0.2215,-0.2037,-0.1928,0.0,0.0,0.0,0.0,0.0,0.0,0.0,0.0,0.0,0.0,0.0,-0.0101,-0.0,0.0,0.0,0.0,0.0,0.0,0.0,0.0,0.0,0.0511,0.064,0.0788,0.0,0.134,0.158,0.0,0.0,0.0,0.0,0.0,0.0,0.0,0.0,0.0,0.0,0.0,0.0,0.0,0.0,0.0,0.0,0.0,0.0,0.0,0.0,0.5112,0.5111,0.501,0.4926,0.4834,0.4834,0.4834,0.4834,0.4834,0.4834,0.4834,0.4834,0.4834,0.4834,0.4834,0.4834,0.4834,0.4834,0.4834,0.4636,0.4638,0.4834,0.4535,0.4638,0.4834,0.4834,0.4834,0.4834,0.4834,0.4834,0.4832,0.4812,0.4806,0.4792,0.0,0.0,0.0,0.0,0.0,0.0,0.0,0.0,0.0,0.0,0.0,0.0,0.0,0.0,0.0,0.0,0.0,0.0,0.0,0.0,0.0,0.0,0.0,0.0,-0.2627,-0.2657,-0.2669,-0.2597,-0.2677,-0.2673,-0.2615,-0.2458,-0.227,-0.2074,-0.1775,-0.1487,-0.1246,0.0,0.0,0.0,-0.0739,0.0,0.0,0.0,0.0,0.0,-0.0124,-0.0,0.0,-0.0,0.0174,0.0394,0.0,0.0,0.0,0.0,0.0504,0.0624,0.0787,0.0991,0.1176,0.1421,0.1466,0.149,0.0,0.0,0.0,0.0,0.0,0.0,0.0,0.0,0.0,0.0,0.0,0.0,0.0,0.0,0.0,0.0,0.0,0.4915,0.0,0.494,0.4839,0.4828,0.4834,0.4834,0.4834,0.4834,0.4834,0.4834,0.4636,0.4636,0.4834,0.4834,0.4736,0.4638,0.4638,0.4535,0.4435,0.4234,0.4336,0.4435,0.4234,0.4336,0.4435,0.4435,0.4535,0.4638,0.4638,0.4736,0.4834,0.4834,0.4834,0.4828,0.0,0.0,0.0,0.0,0.0,0.0,0.0,0.0,0.0,0.0,0.0,0.0,0.0,0.0,0.0,0.0,0.0,0.0,0.0,0.0,0.0,0.0,0.0,-0.2795,-0.289,-0.2869,-0.2855,-0.2831,-0.2935,-0.2887,-0.264,-0.252,-0.2312,-0.202,-0.1524,-0.1241,-0.1162,-0.0963,-0.0825,-0.0753,-0.0688,0.0,0.0,0.0,0.0,0.0,0.0,0.0,0.0,0.0055,0.0193,0.0382,0.0382,0.0,0.0,0.0,0.0,0.0,0.0863,0.0911,0.0989,0.1225,0.1313,0.1417,0.0,0.0,0.0,0.0,0.0,0.0,0.0,0.0,0.0,0.0,0.0,0.0,0.0,0.0,0.0,0.0,0.0,0.0,0.4836,0.4762,0.4757,0.4828,0.4834,0.4834,0.4834,0.4734,0.4736,0.4736,0.4437,0.4437,0.4634,0.4634,0.4535,0.4338,0.4338,0.4243,0.405,0.3949,0.3955,0.4067,0.3954,0.3949,0.405,0.4038,0.4135,0.4338,0.4338,0.4437,0.4634,0.4634,0.4634,0.4634,0.0,0.0,0.0,0.0,0.0,0.0,0.0,0.0,0.0,0.0,0.0,0.0,0.0,0.0,0.0,0.0,0.0,0.0,0.0,0.0,0.0,0.0,-0.3031,-0.2991,-0.2895,-0.3069,-0.3077,-0.2968,-0.2923,-0.2926,-0.292,-0.2522,-0.2145,-0.1736,-0.1443,-0.1213,-0.1031,-0.0875,-0.0757,-0.0634,-0.055,0.0,0.0,0.0,0.0,0.0,0.0,0.0,0.0,0.0257,0.0296,0.0257,0.0374,0.0,0.0,0.0,0.0,0.0,0.0853,0.0937,0.1025,0.1247,0.1382,0.1535,0.0,0.0,0.0,0.0,0.0,0.0,0.0,0.0,0.0,0.0,0.0,0.0,0.0,0.0,0.0,0.0,0.0,0.4819,0.4662,0.472,0.482,0.4832,0.4834,0.4834,0.4834,0.4535,0.4437,0.4437,0.4236,0.4034,0.4133,0.4133,0.4133,0.4033,0.4033,0.4067,0.4027,0.3819,0.3851,0.4116,0.3844,0.3922,0.4125,0.406,0.4033,0.4033,0.4033,0.4133,0.4133,0.4133,0.4133,0.4133,0.0,0.0,0.0,0.0,0.0,0.0,0.0,0.0,0.0,0.0,0.0,0.0,0.0,0.0,0.0,0.0,0.0,0.0,0.0,0.0,0.0,-0.3226,-0.3232,-0.3206,-0.3118,-0.3184,-0.3204,-0.3216,-0.3024,-0.2982,-0.298,-0.2458,-0.1973,-0.158,-0.1325,-0.1109,-0.0925,-0.077,-0.0683,-0.0644,0.0,0.0,0.0,0.0,0.0,0.0,0.0,0.0,0.0,0.0,0.0348,0.0315,0.0427,0.0,0.0,0.0,0.0,0.0,0.0889,0.1064,0.1224,0.1492,0.1616,0.1734,0.0,0.0,0.0,0.0,0.0,0.0,0.0,0.0,0.0,0.0,0.0,0.0,0.0,0.0,0.0,0.0,0.0,0.461,0.4567,0.4689,0.4785,0.483,0.4636,0.4535,0.4535,0.4336,0.4135,0.4135,0.3935,0.3734,0.3734,0.3632,0.365,0.3888,0.3888,0.3825,0.3685,0.3579,0.3595,0.3728,0.3591,0.3579,0.368,0.3613,0.3687,0.3783,0.3748,0.3833,0.4033,0.4033,0.4033,0.4033,0.0,0.0,0.0,0.0,0.0,0.0,0.0,0.0,0.0,0.0,0.0,0.0,0.0,0.0,0.0,0.0,0.0,0.0,0.0,0.0,-0.3183,-0.3271,-0.3366,-0.3379,-0.3342,-0.3299,-0.3314,-0.3436,-0.3142,-0.2961,-0.2852,-0.2324,-0.1835,-0.1493,-0.1192,-0.099,-0.0843,-0.0683,-0.0625,-0.0613,0.0,0.0,0.0,0.0,0.0,0.0,0.0,0.0,0.0,0.0,0.0,0.0,0.0,0.0,0.0,0.0585,0.0674,0.077,0.0998,0.1176,0.1379,0.1748,0.0,0.0,0.0,0.0,0.0,0.0,0.0,0.0,0.0,0.0,0.0,0.0,0.0,0.0,0.0,0.0,0.4751,0.4795,0.4608,0.4471,0.4563,0.4655,0.4745,0.4728,0.4537,0.4338,0.4338,0.4034,0.3934,0.3934,0.3633,0.3534,0.3534,0.3331,0.3362,0.3628,0.3628,0.3568,0.3432,0.3432,0.344,0.3452,0.3439,0.3432,0.3427,0.3352,0.3424,0.3622,0.3559,0.3633,0.3831,0.3831,0.3831,0.3831,0.0,0.0,0.0,0.0,0.0,0.0,0.0,0.0,0.0,0.0,0.0,0.0,0.0,0.0,0.0,0.0,0.0,0.0,0.0,0.0,-0.2988,-0.2935,-0.323,-0.3422,-0.3482,-0.3474,-0.3466,-0.3502,-0.3155,-0.2799,-0.2428,-0.2083,-0.1759,-0.1492,-0.1143,-0.0898,-0.0701,-0.0634,-0.0542,-0.0412,-0.0413,0.0,0.0,0.0,0.0,0.0,0.0,0.0,0.0,0.0,0.0,0.0,0.0,0.0,0.0607,0.0674,0.0743,0.0863,0.1189,0.129,0.1409,0.1783,0.0,0.0,0.2535,0.0,0.0,0.0,0.0,0.0,0.0,0.0,0.0,0.0,0.0,0.0,0.0,0.0,0.4777,0.4975,0.4647,0.4471,0.4563,0.4655,0.4646,0.4433,0.4438,0.4338,0.4033,0.3734,0.3635,0.3635,0.3332,0.323,0.323,0.323,0.3262,0.332,0.332,0.338,0.3491,0.3491,0.3521,0.3572,0.3515,0.3491,0.3481,0.3368,0.3322,0.3315,0.3255,0.323,0.323,0.323,0.323,0.323,0.0,0.0,0.0,0.0,0.0,0.0,0.0,0.0,0.0,0.0,0.0,0.0,0.0,0.0,0.0,0.0,0.0,0.0,0.0,0.0,-0.2874,-0.3019,-0.319,-0.3297,-0.3361,-0.3465,-0.3462,-0.3361,-0.3003,-0.2606,-0.2192,-0.1926,-0.1604,-0.1317,-0.0991,-0.0804,-0.0696,-0.0547,-0.0436,-0.0405,-0.0405,-0.0292,0.0,0.0,0.0,0.0,0.0,0.0,0.0,0.0,0.045,0.045,0.0,0.0585,0.0674,0.0743,0.0861,0.1038,0.1256,0.1388,0.159,0.1986,0.0,0.0,0.0,0.0,0.0,0.0,0.0,0.0,0.0,0.0,0.0,0.0,0.0,0.0,0.5025,0.4903,0.4767,0.4819,0.451,0.441,0.4557,0.4506,0.4392,0.4427,0.4138,0.3836,0.3734,0.3534,0.3332,0.3332,0.323,0.323,0.323,0.3029,0.2955,0.3011,0.3044,0.3117,0.3219,0.311,0.301,0.3027,0.3229,0.3219,0.3211,0.332,0.3272,0.3051,0.2859,0.2724,0.2724,0.2724,0.2826,0.2927,0.0,0.0,0.0,0.0,0.0,0.0,0.0,0.0,0.0,0.0,0.0,0.0,0.0,0.0,0.0,0.0,0.0,0.0,0.0,-0.2619,-0.2725,-0.29,-0.3003,-0.3059,-0.3122,-0.3247,-0.327,-0.319,-0.2785,-0.2406,-0.2037,-0.1748,-0.1452,-0.1142,-0.0918,-0.0773,-0.0696,-0.0443,-0.0364,-0.0382,-0.0315,-0.0157,0.0,0.0,0.0,0.0,0.0,0.0,0.0,0.0,0.0,0.0,0.0,0.0,0.0,0.0858,0.0993,0.1131,0.1327,0.1514,0.0,0.0,0.0,0.0,0.0,0.0,0.0,0.0,0.0,0.0,0.0,0.0,0.0,0.0,0.0,0.5063,0.5015,0.4881,0.4812,0.4739,0.448,0.4371,0.4555,0.4379,0.4257,0.4225,0.3836,0.3534,0.3433,0.3331,0.323,0.323,0.323,0.313,0.3029,0.2927,0.275,0.2802,0.2732,0.2798,0.2892,0.2798,0.2693,0.2693,0.2915,0.2907,0.2996,0.3129,0.2965,0.2823,0.2548,0.2422,0.2422,0.2422,0.2522,0.2724,0.0,0.0,0.0,0.0,0.0,0.0,0.0,0.0,0.0,0.0,0.0,0.0,0.0,0.0,0.0,0.0,0.0,0.0,-0.2188,-0.2393,-0.2495,-0.2495,-0.2637,-0.2689,-0.2699,-0.2813,-0.2911,-0.3,-0.259,-0.2211,-0.189,-0.1641,-0.1349,-0.1074,-0.0886,-0.0773,-0.0669,-0.0339,-0.0266,-0.036,-0.0112,-0.0,0.0022,0.0,0.0,0.0,0.0,0.0,0.0,0.0,0.045,0.0,0.0,0.0,0.0,0.0,0.1108,0.1172,0.1522,0.1706,0.0,0.0,0.0,0.0,0.0,0.0,0.0,0.0,0.0,0.0,0.0,0.0,0.0,0.4836,0.5034,0.5151,0.5025,0.4881,0.4814,0.4739,0.448,0.4371,0.4553,0.4379,0.416,0.4021,0.3734,0.3433,0.323,0.323,0.323,0.323,0.323,0.3029,0.2826,0.2826,0.2648,0.2489,0.2178,0.2219,0.2627,0.2672,0.2692,0.2692,0.2692,0.2667,0.2621,0.2576,0.2503,0.2422,0.2422,0.2422,0.2422,0.2422,0.2422,0.2422,0.0,0.0,0.0,0.0,0.0,0.0,0.0,0.0,0.0,0.0,0.0,0.0,0.0,0.0,0.0,0.0,0.0,0.0,-0.2055,-0.2201,-0.2307,-0.2355,-0.2496,-0.2528,-0.2481,-0.2386,-0.2412,-0.2571,-0.2266,-0.1954,-0.1684,-0.1448,-0.1232,-0.094,-0.0854,-0.0715,-0.0531,-0.0313,-0.0048,0.018,0.0247,0.0225,0.0157,0.0,0.0,0.0,0.0,0.0,0.0,0.0,0.0,0.0,0.0,0.0,0.0,0.1059,0.1175,0.1303,0.154,0.0,0.0,0.0,0.0,0.0,0.0,0.0,0.0,0.0,0.0,0.0,0.0,0.0,0.0,0.4947,0.5162,0.5245,0.4866,0.4856,0.48,0.4474,0.4389,0.4344,0.4465,0.4158,0.3948,0.3946,0.3506,0.3331,0.323,0.323,0.323,0.323,0.3027,0.2927,0.2826,0.2424,0.2228,0.214,0.1961,0.1997,0.2362,0.2051,0.1948,0.2056,0.2273,0.2374,0.236,0.2317,0.2166,0.2121,0.1919,0.1818,0.1818,0.1818,0.1919,0.2122,0.0,0.0,0.0,0.0,0.0,0.0,0.0,0.0,0.0,0.0,0.0,0.0,0.0,0.0,0.0,0.0,0.0,0.0,0.0,0.0,-0.2136,-0.218,-0.2265,-0.2287,-0.2252,-0.21,-0.2058,-0.2125,-0.1954,-0.1752,-0.1493,-0.1364,-0.1145,-0.0874,-0.0844,-0.0702,-0.0477,-0.0269,0.005,0.0405,0.0405,0.036,0.027,0.0,0.0,0.0,0.0,0.0,0.0,0.0,0.0,0.0,0.0,0.0,0.0,0.1123,0.1248,0.138,0.1706,0.0,0.0,0.0,0.0,0.0,0.0,0.0,0.0,0.0,0.0,0.0,0.0,0.0,0.0,0.5064,0.5165,0.5136,0.4761,0.4821,0.4746,0.4389,0.43,0.4334,0.4242,0.3957,0.3748,0.3722,0.3394,0.323,0.323,0.323,0.313,0.3029,0.2927,0.2725,0.2524,0.2122,0.1921,0.182,0.1737,0.1756,0.1984,0.18,0.1704,0.1703,0.1904,0.2004,0.2002,0.1965,0.1836,0.1819,0.1617,0.1617,0.1617,0.1617,0.1718,0.1819,0.0,0.0,0.0,0.0,0.0,0.0,0.0,0.0,0.0,0.0,0.0,0.0,0.0,0.0,0.0,0.0,0.0,0.0,0.0,0.0,-0.1986,-0.1986,-0.1986,-0.1963,-0.1963,-0.1886,-0.178,-0.1669,-0.1689,-0.1568,-0.1297,-0.1278,-0.1111,-0.0808,-0.0841,-0.0729,-0.0454,-0.0197,0.0104,0.0409,0.0406,0.0405,0.0405,0.0405,0.0,0.0,0.0,0.0,0.0,0.0,0.0,0.0,0.0,0.0,0.0946,0.121,0.129,0.1405,0.0,0.0,0.0,0.0,0.0,0.0,0.0,0.0,0.0,0.0,0.0,0.0,0.0,0.5018,0.5053,0.5167,0.5046,0.4912,0.4846,0.4775,0.4569,0.43,0.43,0.424,0.4137,0.3951,0.3746,0.352,0.3293,0.323,0.323,0.313,0.3029,0.2826,0.2725,0.2524,0.2022,0.2022,0.1819,0.1617,0.1617,0.1617,0.1619,0.1672,0.1696,0.1695,0.1669,0.1658,0.1656,0.1628,0.1617,0.1617,0.1617,0.1617,0.1617,0.1516,0.1516,0.1516,0.0,0.0,0.0,0.0,0.0,0.0,0.0,0.0,0.0,0.0,0.0,0.0,0.0,0.0,0.0,0.0,0.0,0.0,0.0,0.0,-0.1872,-0.1916,-0.1825,-0.1708,-0.1607,-0.1541,-0.1462,-0.1389,-0.1536,-0.148,-0.1236,-0.118,-0.1009,-0.0808,-0.0773,-0.0582,-0.0331,-0.0172,0.008,0.0393,0.0462,0.045,0.0405,0.045,0.0472,0.0,0.0,0.0,0.0,0.0,0.0,0.0,0.0849,0.0892,0.0946,0.121,0.129,0.1405,0.0,0.0,0.0,0.0,0.0,0.0,0.0,0.0,0.0,0.0,0.0,0.0,0.0,0.5018,0.5053,0.5167,0.5046,0.4912,0.4846,0.4775,0.4569,0.43,0.43,0.4218,0.397,0.3828,0.3725,0.3452,0.3268,0.323,0.323,0.3027,0.2826,0.2826,0.2424,0.2123,0.2022,0.1819,0.1617,0.1617,0.1617,0.1617,0.1617,0.163,0.1636,0.1635,0.1629,0.1626,0.1626,0.162,0.1617,0.1617,0.1617,0.1617,0.1516,0.1111,0.101,0.101,0.0,0.0,0.0,0.0,0.0,0.0,0.0,0.0,0.0,0.0,0.0,0.0,0.0,0.0,0.0,0.0,0.0,0.0,0.0,0.0,0.0,-0.1743,-0.1655,-0.1563,-0.1457,-0.1388,-0.1321,-0.1252,-0.1359,0.0,0.0,0.0,0.0,-0.0808,-0.0773,-0.0521,-0.0153,-0.0,0.0189,0.0452,0.0442,0.045,0.045,0.0495,0.0495,0.0495,0.054,0.0,0.0,0.0,0.0,0.0,0.0,0.0,0.0984,0.1188,0.1283,0.1394,0.0,0.0,0.0,0.0,0.0,0.0,0.0,0.0,0.0,0.0,0.0,0.0,0.5096,0.5018,0.4975,0.5009,0.4964,0.4826,0.4672,0.4597,0.4478,0.43,0.4212,0.4034,0.3767,0.36,0.349,0.3238,0.3233,0.32,0.3229,0.2927,0.2725,0.2623,0.2223,0.1921,0.1819,0.1718,0.1617,0.1617,0.1617,0.1617,0.1617,0.1617,0.1617,0.1617,0.1617,0.1415,0.1212,0.1212,0.1212,0.1212,0.1212,0.1415,0.1516,0.1313,0.0808,0.0404,0.0,0.0,0.0,0.0,0.0,0.0,0.0,0.0,0.0,0.0,0.0,0.0,0.0,0.0,0.0,0.0,0.0,0.0,0.0,0.0,0.0,0.0,-0.1502,-0.1433,-0.1388,-0.1321,-0.1252,-0.1185,0.0,0.0,0.0,0.0,0.0,-0.0785,0.0,-0.0465,-0.0,0.0204,0.0354,0.0487,0.0444,0.0472,0.0517,0.054,0.054,0.054,0.0607,0.0607,0.063,0.0676,0.0,0.0,0.0,0.0,0.1022,0.1158,0.1235,0.1364,0.0,0.0,0.0,0.0,0.0,0.0,0.0,0.0,0.0,0.0,0.0,0.0,0.5096,0.5018,0.4977,0.4934,0.4799,0.4655,0.4499,0.4418,0.43,0.43,0.4034,0.3857,0.3587,0.3381,0.3263,0.3139,0.3105,0.3067,0.3126,0.2927,0.2624,0.2321,0.2121,0.1819,0.1617,0.1617,0.1617,0.1617,0.1516,0.1516,0.1617,0.1617,0.1516,0.1516,0.1516,0.1314,0.0909,0.0707,0.0707,0.0707,0.0707,0.0909,0.1314,0.1314,0.0808,-0.0,0.0,0.0,0.0,0.0,0.0,0.0,0.0,0.0,0.0,0.0,0.0,0.0,0.0,0.0,0.0,0.0,0.0,0.0,-0.1468,0.0,0.0,-0.1502,-0.1388,-0.1321,-0.1321,-0.1252,-0.1185,-0.1116,0.0,0.0,0.0,0.0,0.0,-0.0722,0.0,0.0,0.0035,0.0394,0.0532,0.0495,0.055,0.0585,0.0585,0.0652,0.0674,0.0674,0.0676,0.0698,0.0698,0.0698,0.0743,0.0,0.0,0.0,0.1022,0.1158,0.1217,0.0,0.0,0.0,0.0,0.0,0.0,0.0,0.0,0.0,0.0,0.0,0.0,0.5246,0.5015,0.5018,0.4977,0.4934,0.4799,0.4655,0.4499,0.4418,0.43,0.43,0.4034,0.3857,0.3587,0.3381,0.3263,0.3139,0.3105,0.3067,0.2822,0.2623,0.2322,0.2021,0.1819,0.1617,0.1617,0.1617,0.1617,0.1617,0.1111,0.1111,0.1617,0.1617,0.1314,0.0909,0.1415,0.1516,0.1415,0.0505,0.0101,0.0101,0.0101,0.0101,0.0202,0.0202,0.0101,-0.0,0.0,0.0,0.0,0.0,0.0,0.0,0.0,0.0,0.0,0.0,0.0,0.0,0.0,0.0,0.0,-0.1512,-0.1462,-0.1421,-0.1452,-0.1433,-0.1433,-0.1388,-0.1321,-0.1274,-0.1252,-0.1185,-0.1116,0.0,0.0,0.0,0.0,-0.0837,-0.0787,0.0,0.0,0.0,0.0,0.0,0.0652,0.0617,0.0693,0.0741,0.0766,0.0792,0.0817,0.0813,0.0779,0.0767,0.0762,0.0753,0.0809,0.0873,0.0938,0.0,0.0,0.0,0.1168,0.0,0.0,0.0,0.0,0.0,0.0,0.0,0.0,0.0,0.0,0.0,0.0,0.501,0.5004,0.4937,0.4797,0.4607,0.4546,0.4405,0.425,0.4257,0.4158,0.4119,0.3857,0.3676,0.3406,0.3166,0.3028,0.3087,0.2863,0.2822,0.2778,0.2409,0.2122,0.2022,0.1718,0.1617,0.1617,0.1617,0.1617,0.1617,0.1314,0.1415,0.1617,0.1617,0.1111,0.0404,0.0606,0.0707,0.0707,0.0202,-0.0,-0.0,-0.0,-0.0404,-0.0909,-0.0909,-0.0707,-0.0404,0.0,0.0,0.0,0.0,0.0,0.0,0.0,0.0,0.0,0.0,0.0,0.0,0.0,0.0,0.0,0.0,-0.1547,-0.148,-0.141,-0.1388,-0.1343,-0.1296,-0.1274,-0.1252,-0.1208,-0.1116,0.0,0.0,0.0,0.0,-0.0703,-0.0775,-0.0686,0.0,-0.0151,0.0,0.0,0.0,0.0,0.0,0.0804,0.0867,0.0895,0.0895,0.0895,0.0888,0.0843,0.0827,0.0847,0.0852,0.0893,0.0967,0.1015,0.1068,0.0,0.0,0.0,0.0,0.0,0.0,0.0,0.0,0.0,0.0,0.0,0.0,0.0,0.0,0.4668,0.4787,0.4865,0.4761,0.4621,0.4462,0.4318,0.417,0.3991,0.4099,0.411,0.3909,0.3755,0.3497,0.3227,0.3051,0.2898,0.2863,0.2719,0.2581,0.2548,0.219,0.2011,0.192,0.1718,0.1617,0.1617,0.1617,0.1617,0.1617,0.1314,0.1212,0.1212,0.0909,0.0303,-0.0404,-0.0101,-0.0202,-0.0404,-0.0404,-0.0303,-0.0202,-0.0202,-0.0707,-0.1415,-0.1516,-0.1314,-0.101,0.0,0.0,0.0,0.0,0.0,0.0,0.0,0.0,0.0,0.0,0.0,0.0,-0.1792,-0.1727,-0.1664,-0.1613,-0.1547,-0.148,-0.141,-0.1343,-0.1296,-0.1296,-0.123,0.0,-0.1208,-0.1072,0.0,0.0,0.0,0.0,-0.0702,-0.078,-0.0487,0.0039,-0.0,0.0163,0.0506,0.0,0.0,0.0,0.0,0.0,0.0,0.0,0.0895,0.0,0.0,0.0947,0.1002,0.0998,0.1034,0.1101,0.1101,0.1094,0.1094,0.0,0.0,0.0,0.0,0.0,0.0,0.0,0.0,0.0,0.0,0.0,0.0,0.0,0.4406,0.4488,0.4497,0.4627,0.4621,0.4462,0.4318,0.4146,0.3906,0.4061,0.4086,0.3828,0.3721,0.3497,0.3227,0.3051,0.2809,0.2589,0.2596,0.2453,0.2058,0.1966,0.1885,0.1615,0.1617,0.1617,0.1617,0.1617,0.1617,0.1617,0.0606,0.0101,-0.0,-0.101,-0.1415,-0.1415,-0.0404,-0.0606,-0.1516,-0.1516,-0.1212,-0.0808,-0.0808,-0.0808,-0.0909,-0.1415,-0.1617,-0.1516,0.0,0.0,0.0,0.0,0.0,0.0,0.0,0.0,0.0,0.0,0.0,0.0,0.0,-0.1846,-0.1842,-0.168,-0.1566,-0.148,-0.141,-0.1343,-0.1296,-0.1296,-0.123,-0.1163,-0.1072,-0.0983,0.0,0.0,0.0,-0.0673,-0.0564,-0.0521,-0.0285,0.0038,-0.0,0.02,0.0587,0.0767,0.0,0.0,0.0,0.0,0.0,0.0,0.0,0.0,0.0,0.0,0.0,0.1134,0.1204,0.1286,0.1233,0.1208,0.1147,0.1111,0.1137,0.0,0.0,0.0,0.0,0.0,0.0,0.0,0.0,0.0,0.0,0.0,0.4143,0.4204,0.4291,0.4321,0.4311,0.4222,0.4027,0.3914,0.3891,0.3957,0.3872,0.3637,0.3585,0.3358,0.3047,0.2784,0.2612,0.2541,0.2298,0.2049,0.189,0.1744,0.1675,0.1588,0.1607,0.1617,0.1617,0.1617,0.1212,0.0606,-0.0505,-0.101,-0.101,-0.1111,-0.1313,-0.1617,-0.1212,-0.101,-0.1111,-0.1415,-0.1516,-0.1314,-0.1314,-0.1314,-0.1314,-0.1516,-0.1617,-0.1617,0.0,0.0,0.0,0.0,0.0,0.0,0.0,0.0,0.0,0.0,0.0,0.0,0.0,0.0,-0.1994,-0.182,-0.1694,-0.1583,-0.1472,-0.1376,-0.1313,-0.1299,-0.1208,-0.1116,-0.1005,-0.0936,0.0,0.0,0.0,0.0,0.0,-0.0371,-0.0168,0.0107,0.015,0.0345,0.0,0.0,0.0,0.0902,0.0,0.0,0.123,0.0,0.0,0.0,0.0,0.0,0.0,0.0,0.1503,0.1561,0.1441,0.1323,0.1216,0.1182,0.1207,0.0,0.0,0.0,0.0,0.0,0.0,0.0,0.0,0.0,0.0,0.0,0.3811,0.3833,0.3978,0.3982,0.3988,0.4002,0.39,0.3785,0.3844,0.3798,0.3697,0.3472,0.3358,0.3232,0.2928,0.2683,0.2513,0.2424,0.2,0.1746,0.1665,0.1614,0.1454,0.1374,0.1501,0.1617,0.1617,0.1212,0.0505,-0.0505,-0.1212,-0.1617,-0.1617,-0.1212,-0.1313,-0.1617,-0.1617,-0.1415,-0.1111,-0.1415,-0.1617,-0.1617,-0.1617,-0.1617,-0.1718,-0.1718,-0.1819,-0.1919,0.0,0.0,0.0,0.0,0.0,0.0,0.0,0.0,0.0,-0.2375,0.0,0.0,0.0,0.0,0.0,-0.2023,-0.1961,-0.1826,-0.1628,-0.1464,-0.1366,-0.1309,-0.1163,-0.1072,-0.1005,-0.0936,-0.0828,0.0,0.0,0.0,0.0,0.0,-0.0095,0.0,0.0425,0.0581,0.0691,0.0,0.0948,0.1022,0.0,0.1241,0.1303,0.0,0.0,0.0,0.1623,0.1758,0.0,0.1889,0.0,0.0,0.0,0.0,0.1295,0.1293,0.0,0.0,0.0,0.0,0.0,0.0,0.0,0.0,0.0,0.0,0.0,0.0,0.3355,0.3506,0.352,0.3493,0.3591,0.3871,0.3851,0.3759,0.3759,0.3677,0.3491,0.3253,0.3126,0.3035,0.2782,0.257,0.2422,0.2243,0.1974,0.172,0.1478,0.148,0.1319,0.0882,0.1299,0.1514,0.1515,0.0505,-0.0606,-0.1617,-0.1617,-0.1617,-0.1617,-0.1617,-0.1617,-0.1617,-0.1617,-0.1617,-0.1617,-0.1617,-0.1617,-0.1617,-0.1617,-0.1819,-0.2022,-0.2022,-0.2222,-0.2422,0.0,0.0,0.0,0.0,0.0,0.0,0.0,0.0,-0.24,0.0,0.0,0.0,-0.2424,-0.2493,-0.2494,-0.2364,-0.2215,-0.2015,-0.1772,-0.1529,-0.14,-0.1369,-0.1201,-0.105,-0.0936,-0.0914,-0.0782,-0.0562,0.0,0.0,0.0,0.0,0.0,0.0,0.0449,0.0563,0.0725,0.0861,0.0,0.0,0.1177,0.1304,0.0,0.0,0.0,0.0,0.0,0.1833,0.2022,0.0,0.2024,0.2078,0.0,0.0,0.0,0.0,0.0,0.0,0.1458,0.0,0.0,0.0,0.0,0.0,0.0,0.0,0.0,0.314,0.3126,0.3114,0.3248,0.327,0.332,0.3395,0.3522,0.3589,0.344,0.3509,0.3427,0.3003,0.2961,0.2853,0.2514,0.2359,0.2118,0.1882,0.1705,0.1529,0.1448,0.1469,0.1405,0.1345,0.0773,0.0098,-0.0693,-0.099,-0.1097,-0.101,-0.1415,-0.1617,-0.1617,-0.1617,-0.1617,-0.1617,-0.1819,-0.1921,-0.1921,-0.1921,-0.1921,-0.1921,-0.212,-0.2221,-0.2322,-0.2322,-0.2321,-0.2422,0.0,0.0,0.0,0.0,0.0,0.0,0.0,0.0,-0.2797,0.0,0.0,0.0,-0.2767,-0.2812,-0.2827,-0.2724,-0.2546,-0.232,-0.204,-0.1817,-0.1624,-0.1483,-0.1302,-0.1106,-0.094,-0.0909,-0.076,-0.0495,0.0,0.0,0.0,0.0,0.0,0.0,0.0,0.0,0.0,0.0,0.0,0.0,0.123,0.0,0.0,0.1605,0.1698,0.0,0.0,0.0,0.2252,0.2202,0.219,0.0,0.0,0.0,0.0,0.0,0.0,0.0,0.0,0.0,0.0,0.0,0.0,0.0,0.2271,0.2414,0.2569,0.0,0.2762,0.2743,0.2928,0.2993,0.2965,0.2974,0.3172,0.3354,0.3315,0.3217,0.3119,0.2876,0.2749,0.2547,0.2362,0.2132,0.1903,0.1768,0.1594,0.1423,0.1435,0.1373,0.1303,0.0941,-0.0095,-0.0863,-0.1552,-0.1565,-0.1481,-0.1099,-0.1409,-0.1617,-0.1617,-0.1718,-0.1718,-0.1819,-0.202,-0.2121,-0.2222,-0.2323,-0.2222,-0.2222,-0.2321,-0.2422,-0.2522,-0.2522,-0.2725,-0.2927,0.0,0.0,0.0,0.0,0.0,0.0,0.0,0.0,0.0,0.0,-0.3456,-0.3367,-0.3219,-0.3182,-0.3175,-0.3089,-0.2951,-0.2718,-0.2402,-0.2208,-0.1959,-0.1642,-0.1439,-0.1219,-0.1006,-0.094,-0.0767,-0.0495,0.0,0.0,0.0,0.0,0.0,0.0,0.0,0.0,0.0,0.0,0.0,0.1066,0.1238,0.1407,0.0,0.0,0.1837,0.1958,0.2144,0.2293,0.2456,0.242,0.2378,0.0,0.0,0.0,0.0,0.0,0.1919,0.0,0.0,0.0,0.0,0.0,0.0,0.0,0.1987,0.2109,0.2268,0.2233,0.2297,0.2405,0.2575,0.2621,0.263,0.2664,0.2823,0.2946,0.3182,0.2928,0.2735,0.2718,0.2464,0.2261,0.2186,0.1901,0.1691,0.1729,0.1564,0.1404,0.1429,0.1277,0.083,-0.0092,-0.0939,-0.1423,-0.1426,-0.1548,-0.1565,-0.1572,-0.1599,-0.1613,-0.1617,-0.1921,-0.2022,-0.2021,-0.2322,-0.2422,-0.2422,-0.2725,-0.2725,-0.2422,-0.2522,-0.2724,-0.2927,-0.2927,-0.323,-0.3635,-0.289,0.0,0.0,0.0,0.0,0.0,0.0,0.0,0.0,-0.3644,-0.3687,-0.3756,-0.3832,-0.3843,-0.3752,-0.3592,-0.3337,-0.3074,-0.2794,-0.2346,-0.2029,-0.1853,-0.1611,-0.1311,-0.1008,-0.0991,-0.0813,-0.0495,0.0,0.0,0.0,0.0,0.0,0.0,0.0,0.0,0.0,0.0,0.0,0.0868,0.1116,0.0,0.1476,0.1696,0.1862,0.2023,0.2086,0.2238,0.2345,0.2502,0.2603,0.2595,0.0,0.0,0.0,0.0,0.0,0.0,0.0,0.0,0.0,0.0,0.0,0.0,0.1846,0.1884,0.1923,0.0,0.1966,0.2053,0.2201,0.2324,0.2363,0.2393,0.235,0.2375,0.2529,0.2574,0.25,0.2294,0.2196,0.2014,0.1737,0.1697,0.1572,0.1523,0.1466,0.1396,0.1401,0.0715,-0.0181,-0.1083,-0.1269,-0.1465,-0.1489,-0.1495,-0.1523,-0.1571,-0.1577,-0.1692,-0.1921,-0.2022,-0.2122,-0.2321,-0.2624,-0.2725,-0.2725,-0.323,-0.313,-0.2725,-0.323,-0.3433,-0.3433,-0.3732,-0.3831,-0.3934,-0.3205,0.0,0.0,0.0,0.0,0.0,0.0,0.0,-0.4027,-0.4029,-0.4113,-0.4174,-0.4222,-0.4239,-0.4212,-0.4086,-0.3847,-0.3608,-0.3333,-0.2838,-0.2476,-0.2266,-0.1897,-0.1576,-0.135,-0.1156,-0.0924,-0.069,0.0,0.0,0.0,0.0,0.0,0.0,0.0,0.0,0.0,0.0,0.0638,0.0792,0.1041,0.0,0.1362,0.1656,0.1818,0.1898,0.2087,0.222,0.2311,0.2615,0.2717,0.0,0.0,0.256,0.2466,0.0,0.2269,0.218,0.0,0.0,0.0,0.1896,0.0,0.0,0.0,0.185,0.185,0.185,0.185,0.1874,0.1999,0.2074,0.2087,0.2071,0.2087,0.2083,0.2029,0.2262,0.2324,0.2072,0.1977,0.1794,0.1589,0.1456,0.1254,0.1056,0.1261,0.1199,0.0685,-0.0173,-0.0875,-0.1414,-0.1414,-0.1428,-0.1457,-0.1473,-0.159,-0.1718,-0.1751,-0.1875,-0.2191,-0.2313,-0.2423,-0.2623,-0.3029,-0.323,-0.323,-0.3633,-0.3632,-0.3429,-0.3732,-0.3835,-0.3835,-0.3932,-0.4135,-0.4236,-0.3536,0.0,0.0,0.0,0.0,0.0,0.0,0.0,-0.4369,-0.4474,-0.4518,-0.4613,-0.4628,-0.4592,-0.4602,-0.469,-0.4418,-0.411,-0.3893,-0.3426,-0.3066,-0.2748,-0.2289,-0.1959,-0.1765,-0.1394,-0.1125,-0.0944,0.0,0.0,0.0,0.0,0.0,0.0,0.0,0.0,0.0,0.0,0.0,0.0654,0.0,0.1104,0.1293,0.1547,0.1696,0.1747,0.2066,0.2189,0.234,0.2662,0.2677,0.2714,0.2696,0.2699,0.0,0.0,0.0,0.0,0.0,0.0,0.0,0.0,0.0,0.1905,0.0,0.0,0.0,0.0,0.0,0.0,0.0,0.0,0.0,0.0,0.0,0.0,0.0,0.1816,0.0,0.1909,0.1754,0.1569,0.1426,0.1295,0.1106,0.0772,0.0968,0.0745,-0.0166,-0.0918,-0.1353,-0.1384,-0.1391,-0.1404,-0.1426,-0.1548,-0.1659,-0.176,-0.2017,-0.2152,-0.2355,-0.2701,-0.2927,-0.3027,-0.3433,-0.3635,-0.3736,-0.3934,-0.4034,-0.4034,-0.4034,-0.4034,-0.4135,-0.4236,-0.4336,-0.4539,-0.3595,-0.3635,0.0,0.0,0.0,0.0,0.0,0.0,-0.455,-0.4824,-0.4822,-0.4924,0.0,0.0,0.0,0.0,0.0,0.0,-0.4574,0.0,-0.3421,-0.3308,-0.2816,-0.2332,-0.1969,-0.1741,-0.144,-0.1086,0.0,0.0,0.0,0.0,0.0,0.0,-0.0297,0.0,0.0,0.0,0.0205,0.0,0.0631,0.0873,0.0,0.1431,0.1509,0.1552,0.1865,0.215,0.2412,0.0,0.2499,0.2629,0.0,0.2742,0.2684,0.2664,0.0,0.0,0.0,0.0,0.0,0.0,0.1717,0.0,0.0,0.0,0.1522,0.1515,0.0,0.0,0.0,0.0,0.0,0.0,0.0,0.0,0.1329,0.1385,0.142,0.1366,0.135,0.1243,0.1049,0.1165,0.1212,0.1247,0.0528,-0.0232,-0.1108,-0.1212,-0.1322,-0.1352,-0.138,-0.1394,-0.1395,-0.1603,-0.1818,-0.1759,-0.2084,-0.2414,-0.2649,-0.3002,-0.3331,-0.3534,-0.3833,-0.3934,-0.3934,-0.4236,-0.4338,-0.4338,-0.4338,-0.4338,-0.4438,-0.4839,-0.5039,-0.514,-0.3801,-0.3772,0.0,0.0,0.0,0.0,0.0,0.0,0.0,-0.5243,-0.5479,0.0,0.0,0.0,0.0,0.0,0.0,-0.5259,0.0,0.0,-0.4091,-0.3866,-0.3324,-0.2895,-0.2515,-0.2141,-0.1786,-0.1457,-0.1202,0.0,0.0,0.0,0.0,0.0,-0.0443,0.0,-0.0356,0.0,0.0,0.0,0.0,0.0,0.0,0.1088,0.1349,0.1631,0.1887,0.2026,0.2137,0.0,0.2438,0.0,0.0,0.0,0.0,0.0,0.0,0.0,0.0,0.0,0.0,0.0,0.0,0.0,0.1684,0.0,0.1468,0.0,0.0,0.0,0.0,0.0,0.0,0.0,0.1237,0.0,0.0,0.0,0.1164,0.1185,0.0,0.0,0.1005,0.1111,0.1151,0.1183,0.0071,-0.0806,-0.1127,-0.1233,-0.1264,-0.1294,-0.1325,-0.1441,-0.165,-0.1753,-0.1958,-0.2183,-0.2415,-0.2748,-0.3186,-0.3348,-0.3497,-0.3835,-0.4135,-0.4236,-0.4236,-0.4738,-0.4839,-0.4839,-0.5037,-0.5039,-0.4939,-0.5338,-0.5438,-0.5445,-0.3963,0.0,0.0,0.0,0.0,0.0,0.0,0.0,0.0,0.0,0.0,0.0,-0.6086,-0.6324,0.0,0.0,-0.6084,-0.5925,0.0,0.0,-0.4823,0.0,0.0,0.0,0.0,-0.2648,-0.2215,-0.1833,0.0,0.0,0.0,0.0,0.0,0.0,0.0,-0.0621,-0.0625,0.0,0.0,-0.0242,-0.0162,0.0116,0.0614,0.0887,0.1264,0.1617,0.1735,0.1874,0.1985,0.227,0.2381,0.2402,0.2555,0.2593,0.0,0.0,0.0,0.0,0.219,0.0,0.0,0.0,0.0,0.0,0.0,0.0,0.0,0.0,0.0,0.0,0.0,0.0,0.1037,0.1052,0.0,0.1031,0.0,0.0865,0.0,0.0,0.0,0.0,0.0,0.1045,0.0886,0.0591,-0.0469,-0.1033,-0.1069,-0.1163,-0.1197,-0.1243,-0.1354,-0.1483,-0.1808,-0.1906,-0.2109,-0.2515,-0.2659,-0.3087,-0.3529,-0.3696,-0.3866,-0.4135,-0.4437,-0.464,-0.464,-0.514,-0.5338,-0.5338,-0.5639,-0.5639,-0.5441,-0.5639,-0.5737,-0.5751,-0.4026,-0.3831,0.0,0.0,0.0,0.0,0.0,0.0,0.0,0.0,0.0,0.0,0.0,0.0,0.0,0.0,0.0,-0.6634,-0.6325,0.0,-0.5506,0.0,0.0,-0.4099,0.0,0.0,0.0,0.0,0.0,0.0,0.0,0.0,0.0,0.0,0.0,-0.0865,-0.0715,-0.0673,-0.0786,-0.0948,-0.0616,0.0121,0.101,0.0,0.1119,0.1265,0.1373,0.0,0.1967,0.204,0.2113,0.2328,0.254,0.2568,0.0,0.0,0.0,0.0,0.0,0.0,0.0,0.1985,0.0,0.0,0.0,0.0,0.1332,0.0,0.0,0.0,0.0,0.1026,0.0904,0.0902,0.0784,0.0,0.0,0.0,0.0,0.0,0.0,0.0,0.0,0.0901,0.0405,-0.074,-0.0868,-0.0955,-0.1079,-0.1083,-0.1123,-0.1211,-0.1476,-0.1609,-0.1683,-0.215,-0.2461,-0.2515,-0.3023,-0.3365,-0.3529,-0.4084,-0.436,-0.4438,-0.4939,-0.514,-0.524,-0.5436,-0.5634,-0.5636,-0.5839,-0.5942,-0.5942,-0.5942,-0.5942,-0.6057,0.0,0.0,0.0,0.0,0.0,0.0,0.0,-0.535,0.0,0.0,0.0,0.0,0.0,-0.75,-0.7685,0.0,0.0,-0.737,-0.6957,-0.6579,0.0,0.0,0.0,-0.4922,0.0,0.0,0.0,0.0,0.0,0.0,0.0,0.0,0.0,0.0,0.0,-0.1104,0.0,0.0,0.0,0.0,0.0,-0.0461,0.0347,0.0,0.0945,0.1185,0.1292,0.1441,0.172,0.1796,0.1998,0.2115,0.2187,0.2248,0.2377,0.2377,0.2362,0.227,0.2108,0.2005,0.1965,0.1778,0.1663,0.1557,0.0,0.0,0.0,0.0,0.0,0.0,0.0,0.0932,0.086,0.077,0.0709,0.065,0.0,0.0,0.0,0.0,0.0,0.0,0.0,0.0,-0.0377,-0.0866,-0.0928,-0.0963,-0.1045,-0.1067,-0.1178,-0.1401,-0.1515,-0.1726,-0.2054,-0.2271,-0.2579,-0.2898,-0.3139,-0.3505,-0.4001,-0.4317,-0.47,-0.4939,-0.5338,-0.5436,-0.5436,-0.5739,-0.5839,-0.5939,-0.6342,-0.6542,-0.6542,-0.6542,-0.6597,-0.6799,-0.4737,0.0,0.0,0.0,0.0,0.0,0.0,0.0,0.0,0.0,-0.7021,0.0,-0.7672,0.0,-0.8296,0.0,-0.8143,-0.8046,-0.7618,-0.7414,0.0,-0.6644,-0.6234,0.0,0.0,0.0,0.0,0.0,0.0,-0.264,0.0,0.0,0.0,0.0,0.0,0.0,0.0,0.0,-0.1297,0.0,0.0,-0.0903,0.0,0.0,0.0373,0.0836,0.1168,0.1322,0.1458,0.1689,0.1824,0.1949,0.1949,0.2012,0.2145,0.2145,0.2131,0.2042,0.1897,0.1874,0.1837,0.165,0.1537,0.1429,0.1391,0.1246,0.1106,0.0,0.0,0.0,0.0,0.0711,0.0692,0.0603,0.0535,0.0377,0.0,0.0225,0.0,0.0,0.0,0.0,0.0,-0.0198,-0.066,-0.0862,-0.0875,-0.0912,-0.0982,-0.1087,-0.1273,-0.1416,-0.1615,-0.1913,-0.2407,-0.2567,-0.2806,-0.3213,-0.3372,-0.3756,-0.4379,-0.4666,-0.4958,-0.5338,-0.5639,-0.5737,-0.5739,-0.6139,-0.6242,-0.6342,-0.6742,-0.6942,-0.6942,-0.6942,-0.7056,-0.7345,0.0,0.0,0.0,0.0,-0.5139,0.0,0.0,0.0,-0.6559,0.0,-0.7364,-0.778,-0.8578,-0.8593,-0.8649,-0.8691,-0.8722,-0.8559,-0.8215,-0.8197,0.0,0.0,-0.7059,-0.6519,-0.5852,0.0,0.0,0.0,0.0,0.0,0.0,0.0,0.0,0.0,-0.1894,0.0,-0.162,-0.168,-0.1644,-0.1501,-0.1224,-0.1142,-0.1172,-0.0751,-0.0379,0.0076,0.0935,0.1257,0.1335,0.1493,0.1729,0.1887,0.1887,0.1856,0.1822,0.1822,0.1791,0.1684,0.1684,0.1682,0.1671,0.17,0.1447,0.1274,0.1371,0.1143,0.0994,0.0991,0.0,0.0,0.0,0.0345,0.0334,0.0376,0.0151,-0.0142,-0.0364,-0.0407,-0.0407,0.0,0.0,0.0,0.0,-0.0429,-0.0532,-0.0802,-0.0831,-0.0862,0.0,-0.119,-0.1328,-0.1342,-0.1843,-0.2238,-0.2504,-0.2877,-0.323,-0.3556,-0.3816,-0.4215,-0.4666,-0.4948,-0.5246,-0.5636,-0.5942,-0.6042,-0.6042,-0.6642,-0.6845,-0.6845,-0.7138,-0.7238,-0.7241,-0.7253,-0.7425,-0.7669,-0.5876,-0.5879,-0.5862,0.0,-0.5854,-0.6037,0.0,0.0,0.0,0.0,-0.7977,-0.8309,-0.8773,-0.9009,-0.9185,-0.918,-0.9188,0.0,0.0,0.0,0.0,-0.8158,-0.7616,-0.7186,-0.6774,-0.6132,0.0,-0.4818,0.0,0.0,-0.3262,0.0,0.0,0.0,0.0,0.0,-0.1923,-0.2045,-0.2034,-0.1988,-0.1692,-0.154,-0.1505,-0.1234,-0.109,-0.0857,-0.0,0.0786,0.1335,0.1336,0.1415,0.1493,0.165,0.1801,0.187,0.187,0.1861,0.1851,0.1697,0.1598,0.1573,0.1414,0.1238,0.1136,0.1175,0.0888,0.0604,0.0644,0.083,0.0822,0.0184,-0.0297,-0.0461,-0.0223,-0.0418,-0.0595,0.0,0.0,0.0,-0.0687,0.0,0.0,0.0,-0.0639,-0.0697,-0.0915,-0.0927,-0.0971,-0.1173,-0.1255,-0.1454,-0.1744,-0.2089,-0.2397,-0.2671,-0.3096,-0.354,-0.3986,-0.4138,-0.4487,-0.514,-0.5419,-0.5632,-0.5942,-0.6342,-0.6645,-0.6642,-0.6939,-0.7138,-0.7138,-0.7344,-0.7643,-0.7766,-0.7878,-0.8001,-0.8312,-0.6635,0.0,0.0,-0.6837,0.0,0.0,-0.7012,-0.7297,0.0,-0.8146,-0.856,0.0,-0.9289,-0.9503,-0.9577,-0.966,-0.9571,0.0,-0.9279,0.0,0.0,-0.8642,-0.8366,-0.7851,-0.7288,-0.6723,0.0,-0.5329,0.0,0.0,-0.3559,0.0,0.0,0.0,0.0,-0.2336,0.0,-0.2313,-0.2393,-0.2406,-0.2081,-0.1926,0.0,-0.1635,-0.1415,-0.1257,-0.0707,-0.0,0.0786,0.0943,0.11,0.1335,0.1415,0.1572,0.165,0.165,0.165,0.165,0.1493,0.1478,0.1383,0.1063,0.0899,0.0883,0.1076,0.0642,0.0141,-0.0206,0.0068,0.0266,-0.0194,-0.0689,-0.0904,-0.068,-0.076,-0.0837,0.0,0.0,0.0,0.0,-0.1109,0.0,-0.0928,-0.0922,-0.097,-0.102,-0.0989,-0.1086,0.0,-0.1381,-0.1588,-0.1939,-0.2252,-0.2573,-0.2901,-0.3476,-0.3867,-0.4204,-0.4476,-0.4938,-0.5516,-0.5797,-0.6021,-0.6342,-0.6842,-0.6942,-0.7042,-0.7241,-0.7341,-0.7441,-0.7842,-0.8079,-0.8369,-0.8505,-0.8696,-0.8734,0.0,0.0,0.0,0.0,0.0,0.0,0.0,-0.7937,0.0,-0.8604,0.0,-0.9535,-0.9828,-0.9854,-0.9934,-1.0006,0.0,-0.9628,-0.9628,-0.9628,-0.9461,-0.9111,-0.8987,-0.8566,-0.7663,-0.7318,-0.6683,0.0,0.0,0.0,0.0,0.0,0.0,0.0,0.0,0.0,0.0,-0.255,-0.2685,-0.2821,-0.2539,-0.2454,-0.2437,-0.2104,-0.1729,-0.1414,-0.1335,-0.0786,-0.0,0.0393,0.0786,0.11,0.1178,0.1178,0.1178,0.1178,0.1178,0.1178,0.1178,0.1257,0.1173,0.0688,0.0456,0.0454,0.0811,0.0366,-0.0366,-0.1167,-0.093,-0.063,-0.0616,-0.0863,-0.1074,-0.0981,0.0,0.0,0.0,0.0,0.0,0.0,0.0,0.0,-0.1263,-0.1246,-0.117,-0.1123,-0.1111,0.0,0.0,-0.1496,-0.1773,-0.2017,-0.2468,-0.2826,-0.3205,-0.3854,-0.4285,-0.4534,-0.491,-0.5299,-0.5795,-0.6083,-0.641,-0.6842,-0.7141,-0.7238,-0.7238,-0.7543,-0.7746,-0.7842,-0.8233,-0.8532,-0.8794,-0.9164,-0.9231,-0.9075,0.0,0.0,0.0,0.0,0.0,-0.9003,-0.9194,-0.9027,-0.9044,-0.9625,-0.9777,-0.9922,-1.0324,-1.0343,-1.0275,-1.031,-1.0117,0.0,0.0,0.0,0.0,-0.9485,-0.9146,-0.8863,-0.8532,-0.7884,-0.714,0.0,0.0,0.0,0.0,0.0,0.0,0.0,0.0,0.0,-0.3115,-0.3122,0.0,-0.3256,-0.2976,-0.29,-0.2965,-0.2507,-0.2354,-0.2198,-0.1571,-0.0943,-0.0471,-0.0,0.0157,0.0314,0.0628,0.0707,0.0707,0.0707,0.0707,0.0707,0.0707,0.1021,0.1099,0.0313,-0.0468,-0.0853,-0.0378,-0.0376,-0.0673,-0.1172,-0.1235,-0.1157,-0.108,-0.1175,-0.1309,-0.141,-0.1394,0.0,0.0,0.0,0.0,0.0,0.0,-0.1628,0.0,0.0,0.0,0.0,0.0,0.0,0.0,-0.181,-0.2048,-0.2248,-0.272,-0.3119,-0.3417,-0.401,-0.4532,-0.4949,-0.5344,-0.5847,-0.6364,-0.6555,-0.6888,-0.7138,-0.7444,-0.7543,-0.7543,-0.8038,-0.8432,-0.8627,-0.8726,-0.8829,-0.9101,-0.958,-0.9727,-0.9762,0.0,0.0,0.0,0.0,0.0,0.0,0.0,-1.0259,-1.0245,-1.0181,-1.0304,-1.0487,-1.0682,-1.0783,-1.0766,-1.0766,-1.0659,-1.0509,-1.0509,-1.0213,-0.9958,-0.9958,-0.9592,-0.908,-0.8715,-0.8294,-0.7661,-0.6838,0.0,0.0,-0.4911,0.0,0.0,0.0,0.0,-0.3414,0.0,0.0,-0.3635,-0.3863,-0.3462,-0.3377,-0.3452,-0.2982,-0.2668,-0.2431,-0.2041,-0.1649,-0.1178,-0.0786,-0.055,-0.0314,-0.0079,-0.0,-0.0,-0.0,-0.0,-0.0,-0.0,0.0157,0.0236,-0.0236,-0.0786,-0.1254,-0.1006,-0.0926,-0.1,-0.1217,-0.1351,-0.1407,-0.1462,-0.1483,-0.156,-0.1625,-0.1593,0.0,0.0,0.0,0.0,0.0,0.0,0.0,0.0,0.0,0.0,0.0,0.0,0.0,-0.1807,-0.193,-0.2176,-0.2578,-0.2912,-0.3264,-0.3781,-0.4358,-0.4894,-0.5285,-0.5697,-0.6213,-0.6649,-0.6932,-0.7177,-0.7444,-0.7839,-0.8041,-0.8038,-0.8432,-0.8726,-0.8832,-0.9018,-0.9263,-0.9538,-0.9922,-1.0198,-1.0357,0.0,-1.0346,0.0,0.0,-1.0679,0.0,-1.102,-1.1288,-1.1286,-1.0615,-1.0786,-1.1025,-1.1019,-1.1123,-1.1231,-1.1272,-1.1111,-1.1092,-1.1092,-1.0741,-1.0433,-1.0289,-0.9954,-0.951,-0.8863,-0.8658,-0.8162,0.0,0.0,-0.6095,-0.5478,0.0,0.0,0.0,0.0,0.0,0.0,-0.4044,-0.4161,-0.4346,-0.3982,-0.3893,-0.3899,-0.3506,-0.3097,-0.2688,-0.2609,-0.2287,-0.1964,-0.1572,-0.11,-0.0786,-0.0786,-0.0786,-0.0786,-0.0786,-0.0786,-0.0786,-0.0786,-0.0786,-0.0786,-0.0786,-0.1021,-0.1335,-0.1336,-0.1336,-0.1415,-0.1415,-0.1548,-0.1667,-0.1847,-0.1808,-0.1767,-0.1857,-0.1814,-0.1835,0.0,0.0,0.0,0.0,0.0,0.0,-0.2386,-0.2184,0.0,0.0,0.0,0.0,-0.1996,-0.2078,-0.2385,-0.2984,-0.3138,-0.3576,-0.4217,-0.4726,-0.5197,-0.5538,-0.6048,-0.6491,-0.6935,-0.7214,-0.7561,-0.7842,-0.8233,-0.8531,-0.863,-0.8829,-0.8947,-0.9088,-0.9427,-0.9713,-0.9926,-1.0277,-1.0546,-1.0692,0.0,0.0,0.0,0.0,0.0,-1.1457,-1.1874,-1.1955,-1.1742,-1.1243,-1.1252,-1.1327,-1.1416,-1.1496,-1.159,-1.1672,-1.1498,-1.1403,-1.1403,-1.1074,-1.0776,-1.0294,-1.0272,-0.9991,-0.9336,-0.8995,-0.8448,0.0,0.0,-0.6791,-0.6078,-0.5557,0.0,0.0,-0.4761,-0.4785,-0.4752,-0.4689,-0.4715,-0.4616,-0.4557,-0.4415,-0.4338,-0.4093,-0.3794,-0.3399,-0.2835,-0.2557,-0.2354,-0.1964,-0.1572,-0.1257,-0.1257,-0.1257,-0.1257,-0.1257,-0.1257,-0.1257,-0.1257,-0.1257,-0.1257,-0.1257,-0.1257,-0.1335,-0.1493,-0.1572,-0.165,-0.1808,-0.1884,-0.1867,-0.2049,-0.2035,-0.209,-0.2256,-0.2383,-0.2499,-0.2436,0.0,-0.2719,-0.2586,0.0,0.0,-0.2585,-0.2373,0.0,0.0,-0.2249,0.0,-0.2229,-0.2419,-0.2755,-0.3222,-0.3585,-0.4054,-0.4651,-0.5118,-0.5524,-0.5954,-0.6483,-0.685,-0.7214,-0.7688,-0.8044,-0.8333,-0.8627,-0.8928,-0.9133,-0.9133,-0.9418,-0.9758,-0.988,-1.0099,-1.0305,-1.0428,-1.0546,-1.0692,0.0,0.0,0.0,0.0,0.0,0.0,0.0,-1.275,-1.2756,-1.2463,-1.2253,-1.2118,-1.1991,-1.2127,-1.2135,-1.2006,-1.2014,-1.1977,-1.1977,-1.1654,-1.1344,-1.1159,-1.0728,-1.0375,-1.0108,-0.9651,-0.9096,0.0,0.0,0.0,-0.6791,-0.6306,-0.5751,-0.5269,-0.5325,-0.5326,-0.533,-0.536,-0.5291,-0.5314,-0.5115,-0.4994,-0.4782,-0.4534,-0.4261,-0.3898,-0.3568,-0.3268,-0.2882,-0.2485,-0.1988,-0.165,-0.165,-0.165,-0.165,-0.165,-0.165,-0.1656,-0.1677,-0.1683,-0.177,-0.1794,-0.1801,-0.1794,-0.1851,-0.1844,-0.1837,-0.1892,-0.1963,-0.2113,-0.2325,-0.2371,-0.249,-0.254,-0.2723,-0.283,-0.2803,0.0,0.0,-0.2924,0.0,0.0,0.0,-0.2799,0.0,0.0,0.0,0.0,-0.2658,-0.2864,-0.3097,-0.3462,-0.3913,-0.4406,-0.487,-0.5448,-0.587,-0.6284,-0.6832,-0.7299,-0.7691,-0.816,-0.8523,-0.8935,-0.9031,-0.9232,-0.943,-0.943,-0.963,-0.9896,-1.001,-1.0209,-1.0448,-1.055,-1.0631,-1.0692,-1.2361,0.0,-1.1865,0.0,-1.2522,-1.2824,-1.3012,-1.3324,-1.3447,-1.3371,-1.3226,-1.3028,-1.2541,-1.268,-1.2587,-1.2331,-1.2469,-1.255,-1.2441,-1.2089,-1.188,-1.1718,-1.1236,0.0,-1.0609,-1.021,-0.9789,-0.9337,-0.8591,-0.8062,-0.7636,-0.7001,-0.6485,-0.6053,-0.5985,-0.5969,-0.5994,-0.5915,-0.5888,-0.5846,-0.5675,-0.5439,-0.5214,-0.4964,-0.4692,-0.4329,-0.416,-0.3847,-0.3446,-0.2954,-0.2589,-0.2299,-0.197,-0.1887,-0.1889,-0.1901,-0.1905,-0.1915,-0.204,-0.2052,-0.206,-0.2093,-0.2102,-0.2093,-0.2141,-0.2134,-0.212,-0.2154,-0.2367,-0.2511,-0.2668,-0.2786,-0.283,-0.283,-0.3015,-0.312,-0.3099,-0.3171,0.0,-0.3225,-0.3201,-0.3194,-0.3252,-0.3157,0.0,0.0,0.0,0.0,-0.3022,-0.3219,-0.3512,-0.3912,-0.4389,-0.4824,-0.5276,-0.5868,-0.6286,-0.6682,-0.7265,-0.782,-0.807,-0.8568,-0.9022,-0.9331,-0.9331,-0.943,-0.9628,-0.9727,-0.9862,-1.008,-1.0319,-1.0619,-1.0741,-1.0866,-1.0911,-1.0911,-1.3393,-1.308,-1.2597,-1.2227,-1.2447,-1.2974,-1.3599,-1.3701,-1.3733,-1.3803,-1.4035,-1.3874,-1.3097,-1.2971,-1.2956,-1.2856,-1.2881,-1.2767,-1.2441,-1.2436,-1.213,0.0,0.0,-1.1417,-1.0716,-1.0514,-1.0409,-1.0101,0.0,-0.8896,-0.8687,-0.7652,-0.7188,-0.7187,-0.6867,-0.6715,-0.6695,-0.644,-0.636,-0.6239,-0.5975,-0.5785,-0.5628,-0.5455,-0.5212,-0.486,-0.4336,-0.4193,-0.4034,-0.3528,-0.3307,-0.3152,-0.2215,-0.1887,-0.1895,-0.2018,-0.203,-0.2041,-0.2088,-0.2101,-0.2102,-0.2102,-0.2102,-0.2186,-0.2354,-0.2354,-0.2506,-0.2859,-0.3033,-0.3062,-0.3062,-0.3061,-0.3061,-0.3061,-0.3292,-0.3418,-0.3341,-0.3407,0.0,-0.3375,-0.3403,-0.3414,-0.3414,-0.3446,0.0,0.0,0.0,-0.3825,-0.3421,-0.3583,-0.3977,-0.4535,-0.4881,-0.5359,-0.6012,-0.6465,-0.6857,-0.7268,-0.7856,-0.8188,-0.8348,-0.8878,-0.9331,-0.9628,-0.9628,-0.9628,-0.9628,-0.992,-1.0239,-1.0573,-1.0884,-1.1226,-1.1564,-1.1568,-1.1568,-1.1568,-1.4014,-1.3897,-1.3797,-1.3523,-1.3636,-1.3696,-1.3572,-1.383,-1.4046,-1.4073,-1.4148,-1.4056,-1.3869,-1.3639,-1.3455,0.0,-1.3207,-1.3098,-1.2772,-1.2767,-1.2521,-1.2238,-1.2,-1.1866,-1.1631,-1.1189,-1.0816,-1.0613,-1.0,-0.9492,-0.8996,-0.848,-0.8065,-0.7704,-0.7503,-0.7371,-0.7271,-0.7105,-0.6936,-0.6809,-0.6637,-0.6395,-0.6163,-0.5994,-0.5703,-0.5403,-0.5139,-0.4899,-0.4642,-0.4295,-0.4065,-0.3739,-0.3299,-0.3013,-0.2896,-0.2916,-0.2954,-0.3007,-0.3076,-0.3094,-0.3105,-0.3152,-0.3163,-0.3152,-0.3105,-0.3143,-0.3103,-0.3248,-0.3265,-0.3212,-0.3212,-0.3329,-0.3372,-0.3372,-0.3528,-0.3675,-0.3649,-0.372,-0.3776,-0.3678,-0.3827,-0.387,-0.3791,-0.388,-0.4071,0.0,0.0,-0.4264,-0.3957,-0.4291,-0.4592,-0.4824,-0.5372,-0.5878,-0.6167,-0.6812,-0.7272,-0.7694,-0.8288,-0.8785,-0.9166,-0.9379,-0.9529,-0.9628,-0.9821,-0.992,-0.9933,-1.0262,-1.0662,-1.0902,-1.1142,-1.1349,-1.1568,-1.1568,-1.1568,-1.1568,-1.4817,-1.4896,-1.4904,-1.4826,-1.4832,-1.4618,-1.3898,-1.4003,-1.4196,-1.4196,-1.4196,-1.4196,-1.4196,-1.3975,-1.3753,-1.3428,-1.3423,-1.3315,-1.3098,-1.3098,-1.2881,-1.255,-1.2431,-1.2326,-1.2143,-1.1596,-1.1327,-1.1123,-1.0541,-0.996,-0.9466,-0.914,-0.8857,-0.8593,-0.821,-0.8009,-0.7964,-0.7705,-0.7464,-0.7231,-0.6969,-0.6789,-0.652,-0.6257,-0.6077,-0.5897,-0.5636,-0.5414,-0.518,-0.4828,-0.459,-0.4342,-0.4255,-0.4044,-0.3831,-0.3497,-0.3365,-0.342,-0.3495,-0.3517,-0.3527,-0.3575,-0.3587,-0.3575,-0.3527,-0.3543,-0.3572,-0.3572,-0.3593,-0.3537,-0.3537,-0.3632,-0.3653,-0.3653,-0.3785,-0.3921,-0.3921,-0.3993,-0.4059,-0.3994,-0.4099,-0.4163,-0.4166,-0.4359,-0.4585,-0.4711,0.0,-0.4839,-0.4674,-0.4909,-0.5183,-0.5339,-0.5907,-0.6332,-0.6659,-0.7286,-0.7726,-0.8131,-0.8737,-0.9148,-0.9628,-0.9723,-0.9723,-0.9727,-1.0019,-1.0117,-1.0229,-1.0628,-1.0924,-1.1218,-1.1525,-1.1729,-1.1896,-1.1896,-1.1896,-1.1896,-1.5692,-1.5891,-1.5891,-1.5891,-1.5891,-1.5571,-1.4515,-1.4299,-1.4299,-1.4196,-1.4191,-1.4191,-1.4196,-1.4196,-1.4083,-1.3753,-1.3753,-1.3645,-1.3315,-1.3315,-1.3207,-1.2989,-1.2881,-1.268,-1.2162,-1.195,-1.1732,-1.1515,-1.0821,-1.0342,-0.997,-0.9677,-0.9579,-0.9486,-0.8999,-0.8717,-0.8572,-0.8291,-0.7926,-0.7521,-0.7238,-0.7054,-0.6884,-0.652,-0.6428,-0.6428,-0.5897,-0.5719,-0.5719,-0.5277,-0.5036,-0.4959,-0.4959,-0.4959,-0.4697,-0.3823,-0.3564,-0.3584,-0.3657,-0.3676,-0.3676,-0.3676,-0.3676,-0.3676,-0.3676,-0.3798,-0.383,-0.3917,-0.3937,-0.4044,-0.4044,-0.3965,-0.398,-0.398,-0.4062,-0.4157,-0.4157,-0.4232,-0.4319,-0.4312,-0.4372,-0.4452,-0.4445,-0.4826,-0.5058,-0.5061,0.0,-0.558,-0.558,-0.5525,-0.5699,-0.6009,-0.6437,-0.6903,-0.7346,-0.7807,-0.8249,-0.8595,-0.9115,-0.9466,-0.9628,-0.992,-1.0019,-1.0019,-1.0314,-1.0413,-1.0426,-1.0943,-1.1239,-1.1426,-1.1861,-1.2168,-1.2332,-1.2332,-1.2327,-1.2441,-1.5843,-1.5891,-1.5891,-1.5891,-1.5891,-1.5785,-1.5571,-1.5464,-1.5148,-1.4299,-1.4401,-1.4396,-1.4191,-1.4196,-1.4196,-1.4083,-1.4083,-1.3975,-1.3645,-1.364,-1.3532,-1.3207,-1.3207,-1.3181,-1.3023,-1.28,-1.2393,-1.1822,-1.1255,-1.0905,-1.0563,-1.0318,-1.0152,-0.9949,-0.9524,-0.9254,-0.9208,-0.8615,-0.8351,-0.8215,-0.7904,-0.7676,-0.7588,-0.7139,-0.6962,-0.6874,-0.6428,-0.6251,-0.6251,-0.6074,-0.5789,-0.5505,-0.5505,-0.524,-0.496,-0.4624,-0.4566,-0.4623,-0.4648,-0.4567,-0.448,-0.448,-0.4302,-0.421,-0.4391,-0.4463,-0.4537,-0.4709,-0.472,-0.4653,-0.4653,-0.4589,-0.4463,-0.4463,-0.4377,-0.4307,-0.4307,-0.4523,-0.4553,-0.4465,-0.466,-0.489,-0.4944,-0.5186,-0.5538,-0.5852,-0.6105,-0.6244,-0.6411,-0.6614,-0.6613,-0.649,-0.6912,-0.7323,-0.787,-0.8216,-0.8699,-0.923,-0.9458,-0.9587,-0.9628,-0.992,-1.0019,-1.0019,-1.0511,-1.0703,-1.0735,-1.1189,-1.1362,-1.144,-1.1688,-1.1855,-1.2114,-1.2114,-1.2219,-1.2441,-1.5891,-1.5891,-1.5891,-1.5891,-1.5891,-1.5891,-1.5891,-1.5891,-1.5678,-1.5041,-1.4826,-1.4611,-1.4617,-1.4509,-1.4401,-1.4401,-1.4299,-1.4083,-1.397,-1.397,-1.3753,-1.3532,-1.3532,-1.3423,-1.3315,-1.3088,-1.2655,-1.2123,-1.1599,-1.1292,-1.1194,-1.0794,-1.0545,-1.0435,-1.0049,-0.9862,-0.9768,-0.9295,-0.8926,-0.8742,-0.8301,-0.8057,-0.796,-0.7613,-0.7496,-0.7408,-0.6874,-0.6694,-0.6697,-0.6428,-0.6251,-0.5985,-0.5985,-0.5808,-0.562,-0.5561,-0.532,-0.501,-0.501,-0.4924,-0.4835,-0.4835,-0.4743,-0.4654,-0.4835,-0.4835,-0.4835,-0.501,-0.4968,-0.493,-0.493,-0.4799,-0.4758,-0.4625,-0.4608,-0.4599,-0.455,-0.4701,-0.4833,-0.4844,-0.5098,-0.5305,-0.5464,-0.5719,-0.6006,-0.6251,-0.6404,-0.6615,-0.6864,-0.7097,-0.7141,-0.6891,-0.7388,-0.7857,-0.8189,-0.8706,-0.9071,-0.9356,-0.9539,-0.9628,-0.9628,-0.992,-1.0019,-1.0019,-1.0413,-1.0659,-1.0771,-1.1071,-1.125,-1.1366,-1.1562,-1.1787,-1.2005,-1.2005,-1.2223,-1.2441,-1.6205,-1.5998,-1.5891,-1.5891,-1.5891,-1.5891,-1.5891,-1.5891,-1.5891,-1.5891,-1.5363,-1.4939,-1.5041,-1.4821,-1.4708,-1.4708,-1.4401,-1.4299,-1.4196,-1.4196,-1.4083,-1.3753,-1.3753,-1.3645,-1.3428,-1.3163,-1.2848,-1.2375,-1.191,-1.1683,-1.1688,-1.1194,-1.09,-1.09,-1.0609,-1.0414,-1.0154,-0.9936,-0.9638,-0.9198,-0.8842,-0.8489,-0.8268,-0.8124,-0.7963,-0.7852,-0.7408,-0.7228,-0.7139,-0.6786,-0.6609,-0.6517,-0.6517,-0.6428,-0.6428,-0.6428,-0.5808,-0.5186,-0.5186,-0.5188,-0.5099,-0.501,-0.501,-0.501,-0.501,-0.5099,-0.5099,-0.5099,-0.5099,-0.5099,-0.5099,-0.5017,-0.4918,-0.4826,-0.4871,-0.4916,-0.4818,-0.4964,-0.5121,-0.5349,-0.5542,-0.5702,-0.5941,-0.6229,-0.6476,-0.6479,-0.6669,-0.6934,-0.7184,-0.7336,-0.7508,-0.7508,-0.7861,-0.8285,-0.8631,-0.9111,-0.9368,-0.9397,-0.9555,-0.9628,-0.9628,-0.992,-1.0019,-1.0019,-1.0345,-1.0553,-1.0729,-1.0944,-1.1032,-1.1202,-1.1494,-1.1678,-1.1891,-1.2005,-1.2223,-1.2441,-1.7371,-1.6524,-1.5891,-1.5891,-1.5891,-1.5891,-1.5891,-1.5891,-1.5891,-1.5891,-1.5785,-1.5571,-1.5035,-1.4928,-1.4934,-1.4934,-1.4928,-1.4724,-1.4196,-1.4196,-1.4191,-1.4083,-1.4083,-1.4083,-1.4083,-1.3441,-1.308,-1.3012,-1.2282,-1.198,-1.1883,-1.1585,-1.1487,-1.1487,-1.0998,-1.0685,-1.0644,-1.0184,-0.9997,-0.9953,-0.9775,-0.9417,-0.8997,-0.8792,-0.8508,-0.8113,-0.7852,-0.7764,-0.7764,-0.7676,-0.7408,-0.6962,-0.6962,-0.6694,-0.6428,-0.6428,-0.634,-0.6163,-0.6163,-0.5897,-0.5453,-0.5099,-0.501,-0.5099,-0.528,-0.5371,-0.5371,-0.5552,-0.5552,-0.5552,-0.5552,-0.5457,-0.5373,-0.5355,-0.525,-0.5181,-0.5325,-0.5405,-0.5485,-0.5799,-0.5921,-0.6086,-0.6328,-0.6457,-0.6632,-0.6806,-0.7184,-0.7432,-0.7432,-0.8027,-0.8294,-0.8294,-0.8387,-0.873,-0.9271,-0.9328,-0.9433,-0.9587,-0.9616,-0.9628,-0.9628,-0.992,-1.0019,-1.0027,-1.0493,-1.0681,-1.0738,-1.0779,-1.0835,-1.0877,-1.1059,-1.1345,-1.1678,-1.1896,-1.2223,-1.2441,-1.7582,-1.716,-1.663,-1.5998,-1.5891,-1.5891,-1.5891,-1.5891,-1.5891,-1.5891,-1.5891,-1.5785,-1.5571,-1.5363,-1.5261,-1.5261,-1.5148,-1.4934,-1.4617,-1.4617,-1.4617,-1.4396,-1.4396,-1.4401,-1.4196,-1.3736,-1.3392,-1.3275,-1.272,-1.2288,-1.2175,-1.1975,-1.1785,-1.1785,-1.1389,-1.1194,-1.1189,-1.0701,-1.0466,-1.0448,-1.0156,-0.9836,-0.9651,-0.9464,-0.9192,-0.8832,-0.8555,-0.8345,-0.8154,-0.7974,-0.7764,-0.7499,-0.7499,-0.7408,-0.7231,-0.7231,-0.6786,-0.6428,-0.6428,-0.6251,-0.5985,-0.5808,-0.5719,-0.5808,-0.5899,-0.5899,-0.5991,-0.608,-0.608,-0.608,-0.608,-0.6031,-0.597,-0.5907,-0.5881,-0.5776,-0.5791,-0.5864,-0.5943,-0.6182,-0.6309,-0.6479,-0.6648,-0.6781,-0.6954,-0.7222,-0.745,-0.7807,-0.799,-0.8413,-0.869,-0.879,-0.8971,-0.9095,-0.9352,-0.9453,-0.9543,-0.9628,-0.9628,-0.9628,-0.9628,-0.9821,-0.9967,-0.9975,-1.0268,-1.0509,-1.0515,-1.0576,-1.0704,-1.0795,-1.0988,-1.135,-1.1678,-1.1896,-1.2223,-1.2441,-1.7582,-1.7582,-1.7371,-1.6418,-1.6311,-1.6205,-1.5891,-1.5891,-1.5891,-1.5891,-1.5891,-1.5891,-1.5891,-1.5684,-1.5583,-1.5583,-1.5363,-1.525,-1.525,-1.525,-1.5035,-1.4713,-1.46,-1.4504,-1.4299,-1.3949,-1.3733,-1.3556,-1.3105,-1.2799,-1.2631,-1.2278,-1.2154,-1.2149,-1.1805,-1.1688,-1.1683,-1.1194,-1.0998,-1.0984,-1.0532,-1.0249,-1.0196,-1.0054,-0.9877,-0.9541,-0.9213,-0.898,-0.8687,-0.8372,-0.8209,-0.8001,-0.8001,-0.7974,-0.7944,-0.7944,-0.7319,-0.6697,-0.652,-0.652,-0.652,-0.6432,-0.6428,-0.6428,-0.6428,-0.6428,-0.6428,-0.6428,-0.6428,-0.6428,-0.6428,-0.6428,-0.6398,-0.63,-0.6347,-0.6291,-0.6266,-0.6251,-0.6331,-0.6495,-0.6655,-0.6853,-0.7031,-0.7163,-0.7427,-0.7613,-0.7902,-0.815,-0.852,-0.8773,-0.8981,-0.9218,-0.9307,-0.9376,-0.9417,-0.9559,-0.9628,-0.9628,-0.9669,-0.9689,-0.9693,-0.9868,-0.9949,-0.9961,-1.0144,-1.0306,-1.0436,-1.0477,-1.057,-1.0802,-1.1126,-1.1459,-1.1678,-1.2005,-1.2219,-1.2441,-1.7582,-1.7582,-1.7582,-1.7477,-1.7477,-1.716,-1.6099,-1.5891,-1.5891,-1.5891,-1.5891,-1.5891,-1.5891,-1.5891,-1.5891,-1.5891,-1.5891,-1.5785,-1.5785,-1.5785,-1.5571,-1.5041,-1.4713,-1.46,-1.4606,-1.4044,-1.3809,-1.3793,-1.3566,-1.3443,-1.3421,-1.2883,-1.2678,-1.2668,-1.2165,-1.198,-1.198,-1.1683,-1.1585,-1.1487,-1.1277,-1.0868,-1.051,-1.0496,-1.0184,-0.9837,-0.9824,-0.963,-0.9444,-0.9431,-0.8946,-0.8446,-0.8446,-0.8158,-0.7944,-0.7944,-0.7856,-0.7676,-0.6969,-0.6792,-0.6704,-0.6432,-0.6428,-0.6428,-0.6428,-0.6428,-0.6428,-0.6428,-0.6428,-0.6428,-0.6428,-0.6428,-0.6425,-0.6416,-0.6318,-0.6322,-0.6563,-0.656,-0.6649,-0.6823,-0.7163,-0.7339,-0.7339,-0.7749,-0.7937,-0.7937,-0.8408,-0.8691,-0.8687,-0.9139,-0.9413,-0.9583,-0.9437,-0.9437,-0.9608,-0.962,-0.9628,-0.9628,-0.9791,-0.9864,-0.9872,-1.0059,-1.014,-1.0152,-1.0335,-1.0424,-1.0448,-1.0607,-1.0789,-1.1126,-1.1459,-1.1678,-1.2005,-1.2219,-1.2327,-1.2441,-1.7582,-1.7582,-1.7582,-1.7582,-1.7582,-1.7477,-1.7054,-1.6948,-1.6842,-1.6418,-1.6418,-1.6311,-1.6217,-1.6111,-1.6105,-1.5891,-1.5891,-1.5891,-1.5891,-1.5891,-1.5678,-1.5369,-1.5041,-1.4821,-1.4821,-1.4511,-1.4289,-1.414,-1.3838,-1.362,-1.3475,-1.3276,-1.3234,-1.3121,-1.2678,-1.2475,-1.2366,-1.2036,-1.1883,-1.178,-1.1585,-1.1346,-1.1177,-1.0983,-1.0743,-1.0464,-1.0346,-1.0108,-0.9802,-0.9597,-0.9326,-0.9087,-0.8902,-0.8687,-0.843,-0.8143,-0.8113,-0.8028,-0.7588,-0.7503,-0.7415,-0.7146,-0.7058,-0.7058,-0.6874,-0.6874,-0.6874,-0.6874,-0.6874,-0.6874,-0.6874,-0.6874,-0.6874,-0.6874,-0.6832,-0.6796,-0.6883,-0.7051,-0.7111,-0.7204,-0.7566,-0.7787,-0.7787,-0.8027,-0.834,-0.843,-0.8717,-0.8965,-0.9155,-0.9425,-0.9653,-0.9821,-0.9755,-0.9751,-0.9821,-1.0019,-1.0177,-1.0301,-1.0369,-1.0357,-1.0368,-1.0565,-1.0543,-1.0339,-1.0517,-1.0595,-1.0599,-1.0664,-1.0911,-1.1126,-1.1459,-1.1787,-1.2005,-1.2327,-1.2441,-1.2441,-1.7582,-1.7582,-1.7582,-1.7582,-1.7582,-1.7582,-1.7582,-1.7582,-1.7477,-1.7054,-1.6942,-1.6842,-1.6424,-1.6424,-1.6318,-1.5998,-1.5998,-1.5998,-1.5891,-1.5891,-1.5785,-1.5583,-1.5363,-1.5148,-1.5148,-1.4821,-1.4635,-1.4473,-1.425,-1.3952,-1.38,-1.362,-1.3588,-1.3577,-1.3127,-1.292,-1.2909,-1.2552,-1.2386,-1.2282,-1.1915,-1.1791,-1.1781,-1.1418,-1.1194,-1.0984,-1.0849,-1.0504,-1.028,-0.9966,-0.9789,-0.9643,-0.9456,-0.9237,-0.8972,-0.8579,-0.8454,-0.8442,-0.8213,-0.8197,-0.8097,-0.769,-0.7595,-0.7591,-0.7408,-0.7319,-0.7319,-0.7319,-0.7319,-0.7319,-0.7319,-0.7319,-0.7231,-0.7231,-0.7183,-0.7214,-0.7214,-0.7437,-0.7625,-0.7625,-0.7948,-0.8233,-0.8233,-0.8467,-0.8688,-0.8874,-0.9083,-0.9247,-0.9441,-0.9559,-0.9727,-1.0019,-1.0117,-1.0246,-1.0306,-1.0406,-1.0575,-1.0716,-1.0835,-1.0858,-1.0779,-1.1078,-1.0949,-1.0737,-1.0967,-1.1021,-1.1021,-1.1021,-1.1131,-1.1455,-1.1678,-1.1896,-1.2114,-1.2332,-1.2441,-1.2441,-1.7582,-1.7582,-1.7582,-1.7582,-1.7582,-1.7582,-1.7582,-1.7582,-1.7582,-1.7582,-1.7582,-1.7371,-1.673,-1.673,-1.663,-1.6324,-1.6324,-1.6217,-1.5891,-1.5891,-1.5891,-1.5891,-1.569,-1.5482,-1.5482,-1.5148,-1.5041,-1.5041,-1.4713,-1.4606,-1.4595,-1.4039,-1.3825,-1.3814,-1.3583,-1.348,-1.348,-1.327,-1.3064,-1.3049,-1.2516,-1.2329,-1.2199,-1.1776,-1.159,-1.159,-1.1296,-1.0998,-1.0806,-1.0801,-1.0471,-1.0114,-1.011,-0.9798,-0.9469,-0.9189,-0.9096,-0.9056,-0.8873,-0.8824,-0.8689,-0.8074,-0.7944,-0.7944,-0.7944,-0.7944,-0.7944,-0.7944,-0.7944,-0.7944,-0.7944,-0.7683,-0.7507,-0.7507,-0.7458,-0.7373,-0.7373,-0.778,-0.7973,-0.7973,-0.8398,-0.8594,-0.8594,-0.8939,-0.9236,-0.9236,-0.943,-0.9628,-0.9628,-0.9628,-0.9727,-1.0019,-1.0216,-1.0609,-1.1111,-1.0813,-1.0716,-1.072,-1.1107,-1.1291,-1.13,-1.1485,-1.1568,-1.1568,-1.1568,-1.1568,-1.1568,-1.1568,-1.1787,-1.2005,-1.2005,-1.2114,-1.2441,-1.2441,-1.2441,-1.2441,-1.8743,-1.8115,-1.7582,-1.7582,-1.7582,-1.7582,-1.7582,-1.7582,-1.7582,-1.7582,-1.7582,-1.7477,-1.706,-1.7067,-1.6855,-1.6324,-1.6324,-1.6217,-1.5891,-1.5891,-1.5891,-1.5891,-1.5785,-1.5791,-1.5791,-1.5476,-1.5369,-1.5369,-1.5041,-1.4928,-1.4821,-1.4528,-1.4388,-1.4377,-1.393,-1.3717,-1.3706,-1.3442,-1.3372,-1.3367,-1.2991,-1.2858,-1.2837,-1.2304,-1.2119,-1.1999,-1.1644,-1.1389,-1.1292,-1.09,-1.0663,-1.0489,-1.0158,-0.9979,-0.991,-0.969,-0.9562,-0.9363,-0.9305,-0.92,-0.885,-0.8275,-0.8113,-0.8113,-0.794,-0.7944,-0.7944,-0.7944,-0.7944,-0.7944,-0.7944,-0.7953,-0.7941,-0.7941,-0.7982,-0.8084,-0.8084,-0.832,-0.8424,-0.8424,-0.8762,-0.906,-0.906,-0.9304,-0.9529,-0.9529,-0.9529,-0.9628,-0.9628,-0.9628,-0.9727,-1.0019,-1.0349,-1.0751,-1.1116,-1.1217,-1.136,-1.164,-1.1764,-1.1893,-1.181,-1.1869,-1.1787,-1.1568,-1.1568,-1.1568,-1.1568,-1.1568,-1.1787,-1.2005,-1.2005,-1.2114,-1.2441,-1.2441,-1.2441,-1.2441,-1.9279,-1.875,-1.8108,-1.7687,-1.7582,-1.7582,-1.7582,-1.7582,-1.7582,-1.7582,-1.7582,-1.7582,-1.7378,-1.7384,-1.7173,-1.6755,-1.643,-1.6217,-1.5891,-1.5891,-1.5891,-1.5891,-1.5891,-1.5891,-1.5891,-1.5791,-1.569,-1.569,-1.5363,-1.5154,-1.5148,-1.4928,-1.4713,-1.4708,-1.445,-1.4172,-1.4161,-1.4024,-1.386,-1.375,-1.3445,-1.3408,-1.3272,-1.2842,-1.2597,-1.2394,-1.2063,-1.186,-1.1688,-1.1292,-1.1096,-1.0881,-1.0462,-1.0421,-1.0303,-1.0192,-0.9971,-0.9858,-0.978,-0.9571,-0.9316,-0.8836,-0.8531,-0.8375,-0.8224,-0.8208,-0.8208,-0.8208,-0.8259,-0.8217,-0.8217,-0.8265,-0.8379,-0.8379,-0.8426,-0.8441,-0.8441,-0.8679,-0.8882,-0.8882,-0.917,-0.9331,-0.9331,-0.9529,-0.9628,-0.9628,-0.9628,-0.9628,-0.9628,-0.9628,-0.976,-1.0133,-1.0549,-1.0888,-1.1349,-1.1559,-1.1893,-1.2139,-1.2219,-1.2215,-1.2114,-1.2114,-1.2114,-1.1896,-1.1896,-1.1896,-1.1896,-1.1896,-1.2005,-1.2114,-1.2114,-1.2223,-1.2441,-1.2441,-1.2441,-1.2441,-1.9279,-1.9279,-1.8959,-1.7898,-1.7687,-1.7582,-1.7582,-1.7582,-1.7582,-1.7582,-1.7582,-1.7582,-1.7582,-1.7582,-1.7483,-1.7179,-1.6643,-1.6217,-1.5998,-1.5998,-1.5891,-1.5891,-1.5891,-1.5891,-1.5891,-1.5891,-1.5891,-1.5891,-1.569,-1.5589,-1.5482,-1.5154,-1.5041,-1.5041,-1.5041,-1.4821,-1.4606,-1.4606,-1.4504,-1.4169,-1.3943,-1.3852,-1.3825,-1.3283,-1.3062,-1.2762,-1.243,-1.2188,-1.2006,-1.1693,-1.1487,-1.1194,-1.0998,-1.09,-1.0806,-1.0507,-1.0413,-1.0373,-1.0189,-1.0045,-0.9814,-0.9631,-0.9267,-0.8915,-0.8653,-0.8613,-0.8613,-0.8613,-0.8739,-0.8844,-0.8844,-0.8802,-0.873,-0.873,-0.8691,-0.8709,-0.8709,-0.9037,-0.9236,-0.9236,-0.943,-0.9628,-0.9628,-0.9628,-0.9628,-0.9628,-0.9628,-0.9632,-0.9648,-0.9652,-0.9834,-1.0327,-1.0552,-1.1034,-1.1709,-1.1945,-1.206,-1.2172,-1.2351,-1.2441,-1.2441,-1.2441,-1.2441,-1.2441,-1.2441,-1.2441,-1.2441,-1.2441,-1.2441,-1.2441,-1.2441,-1.2441,-1.2441,-1.2441,-1.2441,-1.2441,-1.9279,-1.9279,-1.9168,-1.8959,-1.8213,-1.7582,-1.7582,-1.7582,-1.7582,-1.7582,-1.7582,-1.7582,-1.7582,-1.7582,-1.7483,-1.7179,-1.6849,-1.663,-1.6518,-1.6318,-1.6217,-1.6217,-1.5998,-1.5891,-1.5891,-1.5891,-1.5891,-1.5891,-1.5891,-1.5785,-1.5791,-1.5476,-1.5369,-1.5369,-1.5148,-1.4934,-1.4928,-1.4928,-1.4713,-1.4498,-1.4438,-1.4314,-1.4089,-1.3736,-1.3607,-1.3511,-1.284,-1.2573,-1.2506,-1.2036,-1.1878,-1.1785,-1.1487,-1.1389,-1.1389,-1.1096,-1.09,-1.0694,-1.0649,-1.0445,-1.0201,-1.0005,-0.9927,-0.9661,-0.9116,-0.8982,-0.8982,-0.8982,-0.9011,-0.9039,-0.9039,-0.9177,-0.9295,-0.9295,-0.9352,-0.9375,-0.9375,-0.9505,-0.9529,-0.9529,-0.9529,-0.9628,-0.9628,-0.9628,-0.9628,-0.9628,-0.9628,-0.9689,-0.9823,-0.9827,-0.9912,-1.0203,-1.0666,-1.0996,-1.1398,-1.176,-1.2158,-1.2375,-1.2417,-1.2441,-1.2441,-1.2441,-1.2441,-1.2441,-1.2441,-1.2441,-1.2441,-1.2441,-1.2441,-1.2441,-1.2441,-1.2441,-1.2441,-1.2441,-1.2441,-1.2441,-1.9279,-1.9279,-1.9279,-1.9279,-1.8848,-1.822,-1.7687,-1.7582,-1.7582,-1.7582,-1.7582,-1.7582,-1.7582,-1.7582,-1.7483,-1.7179,-1.7184,-1.7047,-1.6933,-1.6832,-1.6731,-1.6731,-1.6486,-1.6311,-1.6311,-1.6311,-1.6205,-1.5891,-1.5891,-1.5891,-1.5891,-1.5791,-1.5684,-1.569,-1.5464,-1.5363,-1.5261,-1.5261,-1.5041,-1.4821,-1.4821,-1.4606,-1.4385,-1.4254,-1.4022,-1.3787,-1.3328,-1.3067,-1.284,-1.2506,-1.2236,-1.2122,-1.1913,-1.178,-1.1785,-1.1487,-1.1292,-1.1194,-1.0998,-1.0801,-1.0583,-1.0475,-1.0351,-1.0084,-0.9622,-0.9465,-0.9465,-0.9465,-0.9443,-0.9407,-0.9407,-0.946,-0.9486,-0.9486,-0.9563,-0.9628,-0.9628,-0.9628,-0.9628,-0.9628,-0.9628,-0.9628,-0.9628,-0.9628,-0.9661,-0.9742,-0.975,-0.9827,-1.001,-1.0018,-1.0103,-1.0286,-1.0707,-1.1014,-1.1203,-1.1738,-1.2114,-1.2223,-1.2332,-1.2441,-1.2441,-1.2219,-1.2223,-1.2223,-1.2223,-1.2223,-1.2223,-1.2327,-1.2441,-1.2441,-1.2441,-1.2441,-1.2441,-1.2441,-1.2441,-1.2441,-1.9279,-1.9279,-1.9279,-1.9279,-1.9279,-1.8959,-1.8003,-1.7898,-1.7793,-1.7582,-1.7582,-1.7582,-1.7582,-1.7582,-1.7503,-1.7357,-1.7574,-1.7616,-1.7444,-1.7335,-1.7316,-1.7265,-1.6927,-1.6781,-1.673,-1.673,-1.6518,-1.5992,-1.5992,-1.5998,-1.5998,-1.5998,-1.5891,-1.5891,-1.5891,-1.5791,-1.5589,-1.5589,-1.5369,-1.5041,-1.5041,-1.4928,-1.4713,-1.4713,-1.4371,-1.3979,-1.3941,-1.357,-1.3136,-1.2936,-1.2672,-1.245,-1.2251,-1.219,-1.2087,-1.1855,-1.1742,-1.1634,-1.1306,-1.1096,-1.09,-1.09,-1.0703,-1.0422,-1.0198,-1.0028,-1.0032,-1.0032,-0.9966,-0.9883,-0.9883,-0.9816,-0.9727,-0.9727,-0.9727,-0.9628,-0.9628,-0.9628,-0.9628,-0.9628,-0.9652,-0.9685,-0.9713,-0.9721,-0.9778,-0.992,-0.9933,-1.0014,-1.0201,-1.0209,-1.0294,-1.0473,-1.0696,-1.0983,-1.1126,-1.1564,-1.1896,-1.1896,-1.2114,-1.2332,-1.2332,-1.211,-1.2005,-1.1896,-1.1896,-1.2005,-1.2005,-1.2223,-1.2332,-1.2441,-1.2441,-1.2441,-1.2436,-1.2327,-1.2332,-1.2332,-1.9279,-1.9279,-1.9279,-1.9279,-1.9279,-1.9279,-1.9063,-1.9063,-1.875,-1.7687,-1.7582,-1.7582,-1.7582,-1.7582,-1.7689,-1.7855,-1.7915,-1.8041,-1.83,-1.8085,-1.7857,-1.761,-1.7226,-1.6978,-1.6736,-1.673,-1.6624,-1.6624,-1.6624,-1.6418,-1.6217,-1.6217,-1.6105,-1.5891,-1.5891,-1.5891,-1.5891,-1.5891,-1.5684,-1.5482,-1.5482,-1.5261,-1.4928,-1.4928,-1.4911,-1.4742,-1.4428,-1.3888,-1.3475,-1.3437,-1.3324,-1.3319,-1.2981,-1.297,-1.2827,-1.2334,-1.2179,-1.2134,-1.1639,-1.1487,-1.1487,-1.1194,-1.1096,-1.1082,-1.1025,-1.0626,-1.0334,-1.0334,-1.0356,-1.0275,-1.0275,-1.0297,-1.0314,-1.0314,-1.0117,-0.992,-0.992,-0.9723,-0.9628,-0.9628,-0.9758,-0.9912,-1.0075,-1.0091,-1.0099,-1.0123,-1.0123,-1.0205,-1.0387,-1.0396,-1.0477,-1.0651,-1.0655,-1.0887,-1.1126,-1.1126,-1.1345,-1.1678,-1.1678,-1.1787,-1.2005,-1.2005,-1.1896,-1.1678,-1.1678,-1.1787,-1.2005,-1.2005,-1.2219,-1.2441,-1.2441,-1.2441,-1.2332,-1.2114,-1.2005,-1.2001,-1.9279,-1.9279,-1.9279,-1.9279,-1.9279,-1.9279,-1.9279,-1.9279,-1.9168,-1.8639,-1.8534,-1.8429,-1.801,-1.7905,-1.7928,-1.8232,-1.8306,-1.8417,-1.8711,-1.8466,-1.8209,-1.8077,-1.7639,-1.7397,-1.716,-1.7153,-1.7153,-1.7153,-1.6836,-1.663,-1.653,-1.653,-1.6418,-1.6311,-1.6211,-1.6105,-1.6111,-1.5998,-1.5785,-1.5684,-1.5684,-1.5583,-1.5261,-1.5261,-1.5148,-1.4917,-1.4809,-1.449,-1.4273,-1.403,-1.3986,-1.386,-1.3415,-1.327,-1.3254,-1.2842,-1.271,-1.2689,-1.2279,-1.2254,-1.2153,-1.2052,-1.2048,-1.2048,-1.1846,-1.1649,-1.1377,-1.0946,-1.0708,-1.0605,-1.0605,-1.0507,-1.0413,-1.0413,-1.0314,-1.0255,-1.0362,-1.028,-1.0217,-1.042,-1.0502,-1.0587,-1.0672,-1.0681,-1.0724,-1.0835,-1.0632,-1.0605,-1.0783,-1.0687,-1.0611,-1.0688,-1.0692,-1.0802,-1.1126,-1.1236,-1.1568,-1.1787,-1.2005,-1.2005,-1.1787,-1.1564,-1.1459,-1.135,-1.135,-1.135,-1.1568,-1.1896,-1.2114,-1.2219,-1.2327,-1.2441,-1.2332,-1.2114,-1.2005,-1.2005]},{"header":{"parameterUnit":"m.s-1","parameterCategory":1,"la1":30.6,"la2":28.766,"lo1":-90.7593,"lo2":-88.6598,"dy":0.0162,"dx":0.0183,"nx":116,"ny":114,"refTime":"2023-07-14T00:00:00:Z","depth":0,"parameterNumber":3,"parameterNumberName":"V-component_of_WINDS"},"data":[0.0,0.0,0.0,0.0,0.0,0.0,0.0,0.0,0.0,0.0,0.0,0.0,0.0,0.0,0.0,0.0,0.0,0.0,0.0,0.0,0.0,0.0,0.0,0.0,0.0,0.0,0.0,0.0,0.0,0.0,0.0,0.0,0.0,0.0,0.0,0.0,0.0,0.0,0.0,0.0,0.0,0.0,0.0,0.0,0.0,0.0,0.0,0.0,0.0,0.0,0.0,0.0,0.0,0.0,0.0,0.0,0.0,0.0,0.0,0.0,0.0,0.0,0.0,0.0,0.0,0.0,0.0,0.0,0.0,0.0,0.0,0.0,0.0,0.0,0.0,0.0,0.0,0.0,0.0,0.0,0.0,0.0,0.0,0.0,0.0,0.0,0.0,0.0,0.0,0.0,0.0,0.0,0.0,0.0,0.0,0.0,0.0,0.0,0.0,0.0,0.0,0.0,0.0,0.0,0.0,0.0,0.0,0.0,0.0,0.0,0.0,0.0,0.0,0.0,0.0,0.0,0.0,0.0,0.0,0.0,0.0,0.0,0.0,0.0,0.0,0.0,0.0,0.0,0.0,0.0,0.0,0.0,0.0,0.0,0.0,0.0,0.0,0.0,0.0,0.0,0.0,0.0,0.0,0.0,0.0,0.0,0.0,0.0,0.0,0.0,0.0,0.0,0.0,0.0,0.0,0.0,0.0,0.0,0.0,0.0,0.0,0.0,0.0,0.0,0.0,0.0,0.0,0.0,0.0,0.0,0.0,0.0,0.0,0.0,0.0,0.0,0.0,0.0,0.0,0.0,0.0,0.0,0.0,0.0,0.0,0.0,0.0,0.0,0.0,0.0,0.0,0.0,0.0,0.0,0.0,0.0,0.0,0.0,0.0,0.0,0.0,0.0,0.0,0.0,0.0,0.0,0.0,0.0,0.0,0.0,0.0,0.0,0.0,0.0,0.0,0.0,0.0,0.0,0.0,0.0,0.0,0.0,0.0,0.0,0.0,0.0,0.0,0.0,0.0,0.0,0.0,0.0,0.0,0.0,0.0,0.0,0.0,0.0,0.0,0.0,0.0,0.0,0.0,0.0,0.0,0.0,0.0,0.0,0.0,0.0,0.0,0.0,0.0,0.0,0.0,0.0,0.0,0.0,0.0,0.0,0.0,0.0,0.0,0.0,0.0,0.0,0.0,0.0,0.0,0.0,0.0,0.0,0.0,0.0,0.0,0.0,0.0,0.0,0.0,0.0,0.0,0.0,0.0,0.0,0.0,0.0,0.0,0.0,0.0,0.0,0.0,0.0,0.0,0.0,0.0,0.0,0.0,0.0,0.0,0.0,0.0,0.0,0.0,0.0,0.0,0.0,0.0,0.0,0.0,0.0,0.0,0.0,0.0,0.0,0.0,0.0,0.0,0.0,0.0,0.0,0.0,0.0,0.0,0.0,0.0,0.0,0.0,0.0,0.0,0.0,0.0,0.0,0.0,0.0,0.0,0.0,0.0,0.0,0.0,0.0,0.0,0.0,0.0,0.0,0.0,0.0,0.0,0.0,0.0,0.0,0.0,0.0,0.0,0.0,0.0,0.0,0.0,0.0,0.0,0.0,0.0,0.0,0.0,0.0,0.0,0.0,0.0,0.0,0.0,0.0,0.0,0.0,0.0,0.0,0.0,0.0,0.0,0.0,0.0,0.0,0.0,0.0,0.0,0.0,0.0,0.0,0.0,0.0,0.0,0.0,0.0,0.0,0.0,0.0,0.0,0.0,0.0,0.0,0.0,0.0,0.0,0.0,0.0,0.0,0.0,0.0,0.0,0.0,0.0,0.0,0.0,0.0,0.0,0.0,0.0,0.0,0.0,0.0,0.0,0.0,0.0,0.0,0.0,0.0,0.0,0.0,0.0,0.0,0.0,0.0,0.0,0.0,0.0,0.0,0.0,0.0,0.0,0.0,0.0,0.0,0.0,0.0,0.0,0.0,0.0,0.0,0.0,0.0,0.0,0.0,0.0,0.0,0.0,0.0,0.0,0.0,0.0,0.0,0.0,0.0,0.0,0.0,0.0,0.0,0.0,0.0,0.0,0.0,0.0,0.0,0.0,0.0,0.0,0.0,0.0,0.0,0.0,0.0,0.0,0.0,0.0,0.0,0.0,0.0,0.0,0.0,0.0,0.0,0.0,0.0,0.0,0.0,0.0,0.0,0.0,0.0,0.0,0.0,0.0,0.0,0.0,0.0,0.0,0.0,0.0,0.0,0.0,0.0,0.0,0.0,0.0,0.0,0.0,0.0,0.0,0.0,0.0,0.0,0.0,0.0,0.0,0.0,0.0,0.0,0.0,0.0,0.0,0.0,0.0,0.0,0.0,0.0,0.0,0.0,0.0,0.0,0.0,0.0,0.0,0.0,0.0,0.0,0.0,0.0,0.0,0.0,0.0,0.0,0.0,0.0,0.0,0.0,0.0,0.0,0.0,0.0,0.0,0.0,0.0,0.0,0.0,0.0,0.0,0.0,0.0,0.0,0.0,0.0,0.0,0.0,0.0,0.0,0.0,0.0,0.0,0.0,0.0,0.0,0.0,0.0,0.0,0.0,0.0,0.0,0.0,0.0,0.0,0.0,0.0,0.0,0.0,0.0,0.0,0.0,0.0,0.0,0.0,0.0,0.0,0.0,0.0,0.0,0.0,0.0,0.0,0.0,0.0,0.0,0.0,0.0,0.0,0.0,0.0,0.0,0.0,0.0,0.0,0.0,0.0,0.0,0.0,0.0,0.0,0.0,0.0,0.0,0.0,0.0,0.0,0.0,0.0,0.0,0.0,0.0,0.0,0.0,0.0,0.0,0.0,0.0,0.0,0.0,0.0,0.0,0.0,0.0,0.0,0.0,0.0,0.0,0.0,0.0,0.0,0.0,0.0,0.0,0.0,0.0,0.0,0.0,0.0,0.0,0.0,0.0,0.0,0.0,0.0,0.0,0.0,0.0,0.0,0.0,0.0,0.0,0.0,0.0,0.0,0.0,0.0,0.0,0.0,0.0,0.0,0.0,0.0,0.0,0.0,0.0,0.0,0.0,0.0,0.0,0.0,0.0,0.0,0.0,0.0,0.0,0.0,0.0,0.0,0.0,0.0,0.0,0.0,0.0,0.0,0.0,0.0,0.0,0.0,0.0,0.0,0.0,0.0,0.0,0.0,0.0,0.0,0.0,0.0,0.0,0.0,0.0,0.0,0.0,0.0,0.0,0.0,0.0,0.0,0.0,0.0,0.0,0.0,0.0,0.0,0.0,0.0,0.0,0.0,0.0,0.0,0.0,0.0,0.0,0.0,0.0,0.0,0.0,0.0,0.0,0.0,0.0,0.0,0.0,0.0,0.0,0.0,0.0,0.0,0.0,0.0,0.0,0.0,0.0,0.0,0.0,0.0,0.0,0.0,0.0,0.0,0.0,0.0,0.0,0.0,0.0,0.0,0.0,0.0,0.0,0.0,0.0,0.0,0.0,0.0,0.0,0.0,0.0,0.0,0.0,0.0,0.0,0.0,0.0,0.0,0.0,0.0,0.0,0.0,0.0,0.0,0.0,0.0,0.0,0.0,0.0,0.0,0.0,0.0,0.0,0.0,0.0,0.0,0.0,0.0,0.0,0.0,0.0,0.0,0.0,0.0,0.0,0.0,0.0,0.0,0.0,0.0,0.0,0.0,0.0,0.0,0.0,0.0,0.0,0.0,0.0,0.0,0.0,0.0,0.0,0.0,0.0,0.0,0.0,0.0,0.0,0.0,0.0,0.0,0.0,0.0,0.0,0.0,0.0,0.0,0.0,0.0,0.0,0.0,0.0,0.0,0.0,0.0,0.0,0.0,0.0,0.0,0.0,0.0,0.0,0.0,0.0,0.0,0.0,0.0,0.0,0.0,0.0,0.0,0.0,0.0,0.0,0.0,0.0,0.0,0.0,0.0,0.0,0.0,0.0,0.0,0.0,0.0,0.0,0.0,0.0,0.0,0.0,0.0,0.0,0.0,0.0,0.0,0.0,0.0,0.0,0.0,0.0,0.0,0.0,0.0,0.0,0.0,0.0,0.0,0.0,0.0,0.0,0.0,0.0,0.0,0.0,0.0,0.0,0.0,0.0,0.0,0.0,0.0,0.0,0.0,0.0,0.0,0.0,0.0,0.0,0.0,0.0,0.0,0.0,0.0,0.0,0.0,0.0,0.0,0.0,0.0,0.0,0.0,0.0,0.0,0.0,0.0,0.0,0.0,0.0,0.0,0.0,0.0,0.0,0.0,0.0,0.0,0.0,0.0,0.0,0.0,0.0,0.0,0.0,0.0,0.0,0.0,0.0,0.0,0.0,0.0,0.0,0.0,0.0,0.0,0.0,0.0,0.0,0.0,0.0,0.0,0.0,0.0,0.0,0.0,0.0,0.0,0.0,0.0,0.0,0.0,0.0,0.0,0.0,0.0,0.0,0.0,0.0,0.0,0.0,0.0,0.0,0.0,0.0,0.0,0.0,0.0,0.0,0.0,0.0,0.0,0.0,0.0,0.0,0.0,0.0,0.0,0.0,0.0,0.0,0.0,0.0,0.0,0.0,0.0,0.0,0.0,0.0,0.0,0.0,0.0,0.0,0.0,0.0,0.0,0.0,0.0,0.0,0.0,0.0,0.0,0.0,0.0,0.0,0.0,0.0,0.0,0.0,0.0,0.0,0.0,0.0,0.0,0.0,0.0,0.0,0.0,0.0,0.0,0.0,0.0,0.0,0.0,0.0,0.0,0.0,0.0,0.0,0.0,0.0,0.0,0.0,0.0,0.0,0.0,0.0,0.0,0.0,0.0,0.0,0.0,0.0,0.0,0.0,0.0,0.0,0.0,0.0,0.0,0.0,0.0,0.0,0.0,0.0,0.0,0.0,0.0,0.0,0.0,0.0,0.0,0.0,0.0,0.0,0.0,0.0,0.0,0.0,0.0,0.0,0.0,0.0,0.0,0.0,0.0,0.0,0.0,0.0,0.0,0.0,0.0,0.0,0.0,0.0,0.0,0.0,0.0,0.0,0.0,0.0,0.0,0.0,0.0,0.0,0.0,0.0,0.0,0.0,0.0,0.0,0.0,0.0,0.0,0.0,0.0,0.0,0.0,0.0,0.0,0.0,0.0,0.0,0.0,0.0,0.0,0.0,0.0,0.0,0.0,0.0,0.0,0.0,0.0,0.0,0.0,0.0,0.0,0.0,0.0,0.0,0.0,0.0,0.0,0.0,0.0,0.0,0.0,0.0,0.0,0.0,0.0,0.0,0.0,0.0,0.0,0.0,0.0,0.0,0.0,0.0,0.0,0.0,0.0,0.0,0.0,0.0,0.0,0.0,0.0,0.0,0.0,0.0,0.0,0.0,0.0,0.0,0.0,0.0,0.0,0.0,0.0,0.0,0.0,0.0,0.0,0.0,0.0,0.0,0.0,0.0,0.0,0.0,0.0,0.0,0.0,0.0,0.0,0.0,0.0,0.0,0.0,0.0,0.0,0.0,0.0,0.0,0.0,0.0,0.0,0.0,0.0,0.0,0.0,0.0,0.0,0.0,0.0,0.0,0.0,0.0,0.0,0.0,0.0,0.0,0.0,0.0,0.0,0.0,0.0,0.0,0.0,0.0,0.0,0.0,0.0,0.0,0.0,0.0,0.0,0.0,0.0,0.0,0.0,0.0,0.0,0.0,0.0,0.0,0.0,0.0,0.0,0.0,0.0,0.0,0.0,0.0,0.0,0.0,0.0,0.0,0.0,0.0,0.0,0.0,0.0,0.0,0.0,0.0,0.0,0.0,0.0,0.0,0.0,0.0,0.0,0.0,0.0,0.0,0.0,0.0,0.0,0.0,0.0,0.0,0.0,0.0,0.0,0.0,0.0,0.0,0.0,0.0,0.0,0.0,0.0,0.0,0.0,0.0,0.0,0.0,0.0,0.0,0.0,0.0,0.0,0.0,0.0,0.0,0.0,0.0,0.0,0.0,0.0,0.0,0.0,0.0,0.0,0.0,0.0,0.0,0.0,0.0,0.0,0.0,0.0,0.0,0.0,0.0,0.0,0.0,0.0,0.0,0.0,0.0,0.0,0.0,0.0,0.0,0.0,0.0,0.0,0.0,-1.7485,-1.6905,0.0,0.0,0.0,0.0,0.0,0.0,0.0,0.0,0.0,0.0,0.0,0.0,0.0,0.0,0.0,0.0,0.0,0.0,0.0,0.0,0.0,0.0,0.0,0.0,0.0,0.0,0.0,0.0,0.0,0.0,0.0,0.0,0.0,0.0,0.0,0.0,0.0,0.0,0.0,0.0,0.0,0.0,0.0,0.0,0.0,0.0,0.0,0.0,0.0,0.0,0.0,0.0,0.0,0.0,0.0,0.0,0.0,0.0,0.0,0.0,0.0,0.0,0.0,0.0,0.0,0.0,0.0,0.0,0.0,0.0,0.0,0.0,0.0,0.0,0.0,0.0,0.0,0.0,0.0,0.0,0.0,0.0,0.0,0.0,0.0,0.0,0.0,0.0,0.0,0.0,0.0,0.0,0.0,0.0,0.0,0.0,0.0,0.0,0.0,0.0,0.0,0.0,0.0,0.0,0.0,0.0,0.0,0.0,0.0,0.0,0.0,0.0,0.0,0.0,-2.0306,-1.9199,0.0,0.0,0.0,0.0,0.0,0.0,0.0,0.0,0.0,0.0,0.0,0.0,0.0,0.0,0.0,0.0,0.0,0.0,0.0,0.0,0.0,0.0,0.0,0.0,0.0,0.0,0.0,0.0,0.0,0.0,0.0,0.0,0.0,0.0,0.0,0.0,0.0,0.0,0.0,0.0,0.0,0.0,0.0,0.0,0.0,0.0,0.0,0.0,0.0,0.0,0.0,0.0,0.0,0.0,0.0,0.0,0.0,0.0,0.0,0.0,0.0,0.0,0.0,0.0,0.0,0.0,0.0,0.0,0.0,0.0,0.0,0.0,0.0,0.0,0.0,0.0,0.0,0.0,0.0,0.0,0.0,0.0,0.0,0.0,0.0,0.0,0.0,0.0,0.0,0.0,0.0,0.0,0.0,0.0,0.0,0.0,0.0,0.0,0.0,0.0,0.0,0.0,0.0,0.0,0.0,0.0,0.0,0.0,-2.5765,-2.6587,-2.6587,-2.6594,-2.6594,-2.6419,-2.355,-2.1951,-2.1411,-2.1411,0.0,0.0,0.0,0.0,0.0,0.0,0.0,0.0,0.0,0.0,0.0,0.0,0.0,0.0,0.0,0.0,0.0,0.0,0.0,0.0,0.0,0.0,0.0,0.0,0.0,0.0,0.0,0.0,0.0,0.0,0.0,0.0,0.0,0.0,0.0,0.0,0.0,0.0,-2.3712,-2.3833,-2.4136,-2.4462,0.0,0.0,0.0,0.0,0.0,0.0,0.0,0.0,0.0,0.0,0.0,0.0,0.0,0.0,0.0,0.0,0.0,0.0,0.0,0.0,0.0,0.0,0.0,0.0,0.0,0.0,0.0,0.0,0.0,0.0,0.0,0.0,0.0,0.0,0.0,0.0,0.0,0.0,0.0,0.0,0.0,0.0,0.0,0.0,-1.3836,-1.4766,0.0,0.0,0.0,0.0,0.0,0.0,0.0,0.0,0.0,0.0,0.0,0.0,0.0,-2.4059,-2.4914,-2.6656,-2.7522,-2.755,-2.9284,-3.0122,-3.0122,-3.0122,-3.0122,-3.0102,-2.9635,0.0,-2.5002,-2.5002,0.0,0.0,0.0,0.0,0.0,0.0,0.0,0.0,0.0,0.0,0.0,0.0,0.0,0.0,0.0,0.0,0.0,0.0,0.0,0.0,0.0,0.0,0.0,0.0,0.0,0.0,0.0,0.0,0.0,0.0,0.0,0.0,0.0,0.0,0.0,0.0,-2.1965,-2.4238,-2.5835,-2.6807,-2.7459,-2.7746,-2.6693,-2.5166,-2.33,-2.2445,0.0,0.0,0.0,0.0,0.0,0.0,0.0,0.0,0.0,0.0,0.0,0.0,0.0,0.0,0.0,0.0,0.0,0.0,0.0,0.0,0.0,0.0,0.0,0.0,0.0,0.0,0.0,0.0,0.0,0.0,0.0,0.0,0.0,0.0,0.0,0.0,0.0,0.0,0.0,-1.4398,-1.5886,-1.7183,-1.8121,-1.8789,0.0,0.0,0.0,0.0,0.0,0.0,0.0,0.0,0.0,-2.584,-2.6701,-2.7587,-2.8454,-2.9702,-3.0336,-3.036,-3.1637,-3.2499,-3.2947,-3.2947,-3.32,-3.3648,-3.3142,-3.2094,-3.0544,-2.8634,-2.7616,-2.7125,0.0,0.0,0.0,0.0,-2.3373,-2.3363,0.0,0.0,0.0,0.0,0.0,0.0,0.0,0.0,0.0,0.0,0.0,0.0,0.0,0.0,0.0,-1.8174,0.0,0.0,0.0,0.0,0.0,0.0,0.0,0.0,0.0,0.0,0.0,0.0,-2.5184,-2.6872,-2.7935,-2.943,-3.0255,-3.0508,-3.1099,-2.97,-2.6825,-2.5751,-2.491,0.0,0.0,0.0,0.0,0.0,0.0,0.0,0.0,0.0,0.0,0.0,0.0,0.0,0.0,0.0,0.0,0.0,0.0,0.0,0.0,0.0,0.0,0.0,0.0,0.0,0.0,0.0,0.0,0.0,0.0,0.0,0.0,0.0,0.0,0.0,0.0,0.0,0.0,-1.6638,-1.8087,-1.9769,-2.0739,-2.1352,0.0,0.0,0.0,0.0,0.0,0.0,-2.6713,-2.7639,-2.841,-2.9071,-3.0134,-3.1022,-3.1683,-3.2779,-3.3323,-3.3348,-3.4261,-3.5032,-3.5597,-3.5597,-3.5947,-3.6532,-3.5889,-3.5597,-3.5324,-3.1914,-3.0351,-3.0015,-2.872,-2.8067,-2.7784,-2.7146,-2.6895,-2.687,0.0,0.0,0.0,0.0,0.0,0.0,0.0,0.0,0.0,0.0,0.0,0.0,0.0,0.0,-1.8208,-1.9072,-1.9904,-2.0053,0.0,0.0,0.0,0.0,0.0,0.0,0.0,0.0,0.0,-2.5509,-2.7238,-2.8942,-3.0624,-3.1473,-3.2318,-3.3116,-3.3153,-3.2147,-3.0321,-2.863,-2.7886,-2.7556,0.0,0.0,0.0,0.0,0.0,0.0,0.0,0.0,0.0,0.0,0.0,0.0,0.0,0.0,0.0,0.0,0.0,0.0,0.0,0.0,0.0,0.0,0.0,0.0,0.0,0.0,0.0,0.0,0.0,0.0,0.0,0.0,0.0,0.0,0.0,0.0,0.0,0.0,0.0,-2.2408,-2.3388,0.0,0.0,0.0,0.0,-2.7604,-2.7746,-2.8496,-3.0253,-3.1172,-3.1701,-3.179,-3.339,-3.4292,-3.4404,-3.6025,-3.6876,-3.695,-3.7832,-3.8254,-3.8305,-3.8305,-3.8324,-3.8363,-3.8324,-3.8305,-3.8032,-3.4603,-3.2683,-3.1868,-3.1771,-3.1248,-3.0503,-3.0458,-3.0438,-3.0312,0.0,0.0,0.0,0.0,0.0,0.0,0.0,0.0,0.0,0.0,0.0,0.0,0.0,-1.8562,-1.9958,-2.0809,-2.1675,-2.2057,-2.1754,0.0,0.0,0.0,0.0,0.0,0.0,0.0,-2.5579,-2.8142,-2.9304,-3.0778,-3.2499,-3.3309,-3.3836,-3.4166,-3.4688,-3.4556,-3.3837,-3.1523,-3.0226,-2.9501,-2.7164,-2.5386,0.0,0.0,0.0,0.0,0.0,0.0,0.0,0.0,0.0,0.0,0.0,0.0,0.0,0.0,0.0,0.0,0.0,0.0,0.0,0.0,0.0,0.0,0.0,0.0,0.0,0.0,0.0,0.0,0.0,0.0,0.0,0.0,0.0,0.0,0.0,0.0,0.0,-2.5813,-2.6804,0.0,-2.8519,-2.8656,-2.9168,-3.0356,-3.0965,-3.1816,-3.3033,-3.4429,-3.5212,-3.5274,-3.6401,-3.7031,-3.705,-3.763,-3.7957,-3.7992,-3.8325,-3.8773,-3.9267,-3.9312,-3.9649,-4.0136,-3.952,-3.9267,-3.9124,-3.7339,-3.5781,-3.4438,-3.3887,-3.3135,-3.237,-3.2375,-3.2353,-3.2264,0.0,0.0,0.0,0.0,0.0,0.0,0.0,0.0,0.0,0.0,0.0,-1.5482,-1.806,-1.9869,-2.1368,-2.2532,-2.3462,-2.3845,-2.3567,0.0,0.0,0.0,0.0,0.0,0.0,-2.5976,-2.7981,-2.9943,-3.1398,-3.2712,-3.3853,-3.495,-3.5477,-3.5489,-3.6309,-3.6681,-3.6537,-3.4484,-3.2973,-3.1734,-2.9705,-2.8034,-2.6497,0.0,0.0,0.0,0.0,0.0,0.0,0.0,0.0,0.0,0.0,0.0,0.0,0.0,0.0,0.0,0.0,0.0,0.0,0.0,0.0,0.0,0.0,0.0,0.0,0.0,0.0,0.0,0.0,0.0,0.0,0.0,0.0,0.0,0.0,0.0,-2.6137,-2.8437,-2.9467,-3.0441,-3.1569,-3.173,-3.2265,-3.3396,-3.4039,-3.4777,-3.5689,-3.6813,-3.7453,-3.7491,-3.8382,-3.8829,-3.8829,-3.9118,-3.9244,-3.9271,-3.9322,-3.9785,-4.059,-4.0616,-4.113,-4.1909,-4.1291,-4.0863,-4.0532,-3.9918,-3.8692,-3.7092,-3.6227,-3.5531,-3.4979,-3.4692,-3.4531,-3.4408,0.0,0.0,0.0,0.0,0.0,0.0,0.0,0.0,0.0,0.0,-1.4233,-1.6338,-1.8916,-2.0721,-2.2435,-2.4146,-2.5161,-2.5336,-2.4495,-2.4449,0.0,0.0,0.0,0.0,-2.5842,-2.8342,-3.0057,-3.0911,-3.3457,-3.4733,-3.4818,-3.6448,-3.7183,-3.7175,-3.8016,-3.8408,-3.8343,-3.7424,-3.6086,-3.4351,-3.1767,-3.0172,-2.907,0.0,0.0,0.0,0.0,0.0,0.0,0.0,0.0,0.0,0.0,0.0,0.0,0.0,0.0,0.0,0.0,0.0,0.0,0.0,0.0,0.0,0.0,0.0,0.0,0.0,0.0,0.0,0.0,0.0,0.0,0.0,0.0,0.0,-2.4066,-2.6266,-2.8507,-3.0247,-3.1251,-3.2487,-3.416,-3.4378,-3.509,-3.671,-3.6926,-3.7359,-3.8233,-3.8363,-3.8433,-3.8452,-3.9335,-3.982,-3.982,-4.0597,-4.1014,-4.1079,-4.1079,-4.1524,-4.2338,-4.2338,-4.2805,-4.3594,-4.3594,-4.3108,-4.2338,-4.2274,-4.1274,-3.968,-3.8785,-3.8419,-3.8305,-3.7443,-3.7075,-3.6755,0.0,0.0,0.0,0.0,0.0,0.0,0.0,0.0,0.0,0.0,-1.4772,-1.7002,-1.8984,-2.126,-2.3086,-2.419,-2.5109,-2.5559,-2.5356,0.0,0.0,0.0,0.0,0.0,-2.9413,-3.0165,-3.1563,-3.3629,-3.4358,-3.5318,-3.6514,-3.6974,-3.7495,-3.805,-3.8288,-3.8408,-3.8382,-3.8064,-3.7298,-3.6135,-3.4148,-3.2106,-3.0095,0.0,0.0,0.0,0.0,0.0,0.0,0.0,0.0,0.0,0.0,0.0,0.0,0.0,0.0,0.0,0.0,0.0,0.0,0.0,0.0,0.0,0.0,0.0,0.0,0.0,0.0,0.0,0.0,0.0,0.0,0.0,0.0,-2.7529,-2.7586,-2.8746,-3.0702,-3.3665,-3.4268,-3.5122,-3.6796,-3.7018,-3.725,-3.7713,-3.8375,-3.9158,-4.0033,-4.0699,-4.1341,-4.1983,-4.2306,-4.2461,-4.2461,-4.2675,-4.2792,-4.2801,-4.2801,-4.2946,-4.3169,-4.3225,-4.3361,-4.3594,-4.3538,-4.3383,-4.3169,-4.3141,-4.249,-4.1364,-3.9906,-3.8954,-3.8363,-3.8083,-3.756,-3.6919,0.0,0.0,0.0,0.0,0.0,0.0,0.0,0.0,0.0,0.0,-1.5279,-1.7625,-1.9007,-2.1457,-2.3342,-2.4219,-2.5099,-2.5624,-2.5699,0.0,0.0,0.0,0.0,-2.8457,-3.0859,-3.1599,-3.2842,-3.4705,-3.5438,-3.6263,-3.722,-3.794,-3.8526,-3.896,-3.9334,-3.9485,-3.9468,-3.9024,-3.8559,-3.7938,-3.6202,-3.4158,-3.2068,-3.081,-2.9505,-2.8153,-2.6783,-2.5492,-2.4356,-2.3859,0.0,0.0,0.0,0.0,0.0,0.0,0.0,0.0,0.0,0.0,0.0,0.0,0.0,0.0,0.0,0.0,0.0,0.0,0.0,0.0,0.0,0.0,0.0,0.0,-2.8523,-3.0758,-3.1494,-3.2086,-3.3177,-3.5153,-3.6094,-3.7065,-3.8411,-3.8598,-3.8929,-3.9642,-4.0211,-4.0938,-4.1802,-4.2354,-4.2873,-4.3388,-4.347,-4.351,-4.351,-4.351,-4.351,-4.351,-4.3501,-4.3685,-4.4054,-4.4093,-4.4287,-4.4598,-4.4569,-4.4365,-4.4035,-4.4045,-4.353,-4.2617,0.0,0.0,0.0,0.0,-3.8246,-3.7506,0.0,0.0,0.0,0.0,0.0,0.0,0.0,0.0,0.0,0.0,0.0,-1.8131,-1.9004,-2.1351,-2.3236,-2.4222,-2.5007,-2.5556,0.0,0.0,0.0,-2.8401,-2.929,-3.0193,-3.1152,-3.2734,-3.3963,-3.4845,-3.6404,-3.7214,-3.739,-3.8936,-3.9719,-3.9883,-4.0661,-4.1007,-4.0943,-4.0102,-3.9694,-3.9471,-3.7918,-3.6192,-3.438,-3.2725,-3.1584,-3.0743,-2.9719,-2.8386,-2.7075,-2.6833,0.0,0.0,0.0,0.0,0.0,0.0,0.0,0.0,0.0,0.0,0.0,0.0,0.0,0.0,0.0,0.0,0.0,0.0,0.0,0.0,0.0,0.0,0.0,0.0,-3.1389,-3.3532,-3.5133,-3.5614,-3.5829,-3.5829,-3.7194,-3.8488,-3.9354,-3.9581,-4.0298,-4.1784,-4.2047,-4.2531,-4.3401,0.0,0.0,0.0,0.0,-4.3782,-4.3782,-4.3782,-4.3782,-4.3782,-4.3782,-4.419,-4.4948,-4.4948,-4.5317,-4.5997,-4.5997,-4.5589,-4.4948,-4.4948,-4.4423,-4.3549,-4.2578,-4.1665,-4.08,-3.9951,-3.9093,-3.8353,0.0,0.0,0.0,0.0,0.0,0.0,0.0,0.0,0.0,-1.27,-1.5686,-1.8126,-1.8999,-2.0804,-2.2591,-2.4166,-2.4461,-2.5153,0.0,0.0,-2.7705,-2.9279,-3.0179,-3.136,-3.2871,-3.3926,-3.4882,-3.5755,-3.6096,-3.6944,-3.8261,-3.859,-3.9466,-4.0753,-4.0909,-4.1003,-4.0982,-4.0799,-4.0286,-3.9568,-3.9228,-3.7627,-3.5329,-3.4283,-3.3353,-3.2405,-3.081,-3.0007,-2.9475,-2.8115,-2.6968,-2.6082,-2.5928,0.0,0.0,0.0,0.0,0.0,0.0,0.0,0.0,0.0,0.0,0.0,0.0,0.0,0.0,0.0,0.0,0.0,0.0,0.0,0.0,-3.158,-3.3509,-3.5095,-3.6107,-3.7491,-3.8383,-3.8383,-3.8789,-3.9373,-4.0181,-4.0949,-4.1552,-4.188,-4.2607,-4.344,-4.4311,-4.4415,-4.4742,-4.5401,-4.5479,-4.5511,-4.5511,-4.5511,-4.5511,-4.5511,-4.5511,0.0,-4.5763,-4.5763,-4.5841,-4.5997,-4.5997,-4.5899,-4.5763,-4.5763,-4.5297,-4.4384,-4.281,-4.1634,-4.0787,-4.0618,-4.0002,-3.9243,0.0,0.0,0.0,0.0,0.0,0.0,0.0,0.0,0.0,0.0,-1.4893,-1.7003,-1.8312,-2.0012,-2.1585,-2.2888,-2.3797,0.0,0.0,-2.7344,-2.8181,-2.9484,-3.0799,-3.2096,-3.3374,-3.4257,-3.5137,-3.5995,-3.6433,-3.7298,-3.8505,-3.8943,-3.9823,-4.1045,-4.1007,-4.1006,-4.0996,-4.1007,-4.0729,-4.0266,-3.9791,-3.8559,-3.691,-3.6037,-3.4883,-3.3575,-3.2269,-3.1495,-3.0914,-2.962,-2.8627,-2.7893,-2.7893,-2.7036,-2.5745,0.0,0.0,0.0,0.0,0.0,0.0,0.0,0.0,0.0,0.0,0.0,0.0,0.0,0.0,-2.7987,0.0,0.0,-3.2,-3.3681,-3.5725,-3.7273,-3.7747,-3.8927,-3.9591,-3.915,-3.9576,-4.0219,-4.1066,-4.1605,-4.2247,-4.3134,-4.367,-4.433,-4.5162,-4.5267,-4.5479,-4.5886,-4.5975,-4.5997,-4.5997,-4.5997,-4.5997,-4.5997,-4.5997,-4.5997,-4.5997,-4.5997,-4.5997,-4.5997,-4.5997,-4.5997,-4.5997,-4.5997,-4.553,-4.4676,-4.3313,-4.2252,-4.1408,-4.0955,-4.0513,-4.0152,0.0,0.0,0.0,0.0,0.0,0.0,0.0,0.0,0.0,0.0,-1.4005,-1.5727,-1.7131,-1.8853,-2.0308,0.0,0.0,0.0,0.0,-2.7624,-2.8595,-2.9468,-3.1165,-3.2517,-3.3378,-3.4253,-3.5136,-3.5996,-3.6692,-3.7465,-3.8283,-3.9156,-4.0001,-4.0852,-4.0972,-4.1013,-4.0993,-4.0991,-4.0996,-4.0913,-3.9993,-3.9101,-3.8219,-3.7356,-3.6037,-3.4515,-3.3478,-3.2656,-3.1892,-3.0848,-3.0027,-2.9438,-2.9438,-2.884,-2.7894,-2.6525,-2.5793,0.0,0.0,0.0,0.0,0.0,0.0,0.0,0.0,0.0,-2.8363,-2.8414,-2.9732,-3.113,-3.2057,-3.3452,-3.4808,-3.5783,-3.7655,-3.9087,-3.9293,-3.994,-4.0147,-3.9454,-4.0038,-4.0835,-4.172,-4.2009,-4.2806,-4.4369,-4.4713,-4.5123,-4.5761,-4.5848,-4.5905,-4.5905,-4.5975,-4.5997,-4.5997,-4.5997,-4.5997,-4.5997,-4.5997,-4.5997,-4.5997,-4.5997,-4.5997,-4.5997,-4.5997,-4.5997,-4.5997,-4.5997,-4.553,-4.4715,-4.3757,-4.2862,-4.1989,-4.1105,-4.079,-4.079,0.0,0.0,0.0,0.0,0.0,0.0,0.0,0.0,0.0,0.0,0.0,0.0,0.0,0.0,0.0,0.0,0.0,0.0,0.0,-2.7298,-2.8587,-2.9468,-3.1172,-3.2511,-3.3378,-3.4256,-3.5128,-3.5996,-3.6094,-3.6581,-3.7455,-3.8263,-3.9114,-3.9989,-4.0749,-4.1056,-4.1007,-4.1007,-4.1006,-4.091,-4.0038,-3.9157,-3.8285,-3.7423,-3.6445,-3.5329,-3.3692,-3.3033,-3.2703,-3.1051,-3.0442,-3.0344,-3.0344,-2.9746,-2.9013,-2.882,0.0,-2.5359,-2.5167,-2.4437,-2.4092,-2.5638,-2.6573,-2.7369,0.0,0.0,-3.0992,-3.1064,-3.2401,-3.3815,-3.4636,-3.5572,-3.6738,-3.8323,-3.882,-3.9278,-4.0058,-4.0304,-4.0394,-4.0351,-4.0438,-4.0835,-4.172,-4.2568,-4.3462,-4.4427,-4.5216,-4.5703,-4.58,-4.5848,-4.5905,-4.5905,-4.5975,-4.5997,-4.5997,-4.5997,-4.5997,-4.5997,-4.5997,-4.5997,-4.5997,-4.5997,-4.5997,-4.5997,-4.5997,-4.5997,-4.5997,-4.5997,-4.553,-4.4715,-4.3757,-4.2862,-4.1989,-4.1105,-4.079,-4.079,0.0,0.0,0.0,0.0,0.0,0.0,0.0,0.0,0.0,0.0,0.0,0.0,0.0,0.0,0.0,0.0,0.0,0.0,-2.4713,-2.6004,-2.7294,-2.8684,-3.0412,-3.175,-3.2622,-3.3997,-3.4884,-3.5245,-3.5741,-3.6445,-3.7303,-3.7633,-3.8251,-3.9055,-3.9419,-3.9579,-3.9555,-3.9544,-3.9552,-3.9507,-3.9142,-3.8459,-3.7541,-3.6673,-3.5773,-3.4835,-3.3606,-3.2822,0.0,0.0,-3.0559,-3.0569,-3.0569,-3.0318,-2.9931,-2.9419,-2.8502,0.0,-2.7007,-2.694,0.0,0.0,-2.9025,-3.0075,-3.0433,-3.2154,-3.3674,-3.3712,-3.5015,-3.626,-3.6585,-3.7368,-3.819,0.0,-3.9449,-3.9905,-4.0358,-4.0449,-4.0466,-4.0495,-4.0508,-4.0835,-4.172,-4.2645,-4.3559,-4.4427,-4.5312,-4.58,-4.58,-4.5854,-4.5912,-4.5905,-4.5972,-4.6005,-4.5997,-4.5997,-4.5997,-4.5997,-4.5997,-4.5997,-4.5997,-4.5997,-4.5997,-4.5997,-4.5997,-4.5997,-4.5997,-4.5997,-4.553,-4.4715,-4.376,-4.2865,-4.1989,-4.1105,-4.079,-4.079,0.0,0.0,0.0,0.0,0.0,0.0,0.0,0.0,0.0,0.0,0.0,0.0,0.0,0.0,0.0,0.0,0.0,0.0,0.0,-2.4727,-2.6154,-2.7439,-2.9377,0.0,-3.1726,-3.3204,-3.4092,-3.4332,-3.5208,-3.5956,-3.6582,-3.707,-3.7615,-3.8188,-3.8417,-3.8521,-3.851,-3.8502,-3.8507,-3.8453,-3.7987,-3.7384,-3.6644,-3.5539,-3.4416,-3.3378,-3.2732,-3.2076,0.0,0.0,-2.9919,-2.9919,-2.9919,-3.0074,-3.0152,-2.9495,-2.9303,-2.9187,-2.8743,0.0,0.0,-3.0083,-3.1443,-3.2679,-3.264,-3.44,-3.6017,-3.6017,-3.6938,-3.7747,-3.7747,-3.8454,-3.9045,-3.908,-3.9789,-4.0379,-4.0466,-4.0502,-4.0499,-4.0508,-4.0489,-4.0773,-4.1408,-4.2526,-4.3559,-4.4427,-4.5312,-4.58,-4.58,-4.586,-4.5899,-4.5905,-4.596,-4.5994,-4.5997,-4.5997,-4.5997,-4.5997,-4.5997,-4.5997,-4.5997,-4.5997,-4.5997,-4.5997,-4.5997,-4.5997,-4.5997,-4.5997,-4.5375,-4.4365,-4.3673,-4.2721,-4.166,-4.1021,-4.0803,-4.079,0.0,0.0,0.0,0.0,0.0,0.0,0.0,0.0,0.0,0.0,0.0,0.0,0.0,0.0,0.0,0.0,0.0,0.0,0.0,-2.372,-2.5613,-2.5671,-2.8159,-2.9956,-3.0828,-3.1718,-3.2596,-3.3437,-3.4312,-3.4749,-3.482,-3.6504,-3.7305,-3.7363,-3.8212,-3.8551,-3.8492,-3.8492,-3.8502,-3.8356,-3.666,-3.5967,-3.5747,-3.4037,-3.2312,-3.0808,-3.0711,0.0,0.0,0.0,-2.8179,-2.8179,-2.8179,-2.876,0.0,-2.9337,-2.9302,0.0,0.0,0.0,-3.0846,-3.249,-3.4148,-3.5359,-3.5297,-3.6592,-3.7824,-3.7824,-3.7865,-3.7888,-3.7888,-3.8556,-3.9112,-3.9092,-3.984,-4.0415,-4.0502,-4.0502,-4.0499,-4.0508,-4.0489,-4.0543,0.0,-4.2193,-4.3559,-4.4427,-4.5312,-4.58,-4.58,-4.586,-4.5899,-4.5905,-4.596,-4.5994,-4.5997,-4.5997,-4.5997,-4.5997,-4.5997,-4.5997,-4.5997,-4.5997,-4.5997,-4.5997,-4.5997,-4.5997,-4.5997,-4.5997,-4.5025,-4.353,-4.3441,-4.2352,-4.0846,-4.0812,-4.0796,-4.079,0.0,0.0,0.0,0.0,0.0,0.0,0.0,0.0,0.0,0.0,0.0,0.0,0.0,0.0,0.0,0.0,0.0,0.0,0.0,-2.15,-2.3178,-2.5498,-2.6435,-2.7585,-2.904,-2.9922,-3.0802,-3.1668,-3.2541,-3.3275,-3.3853,-3.4443,-3.4703,-3.4726,-3.5018,-3.5131,-3.5128,-3.5118,-3.5129,-3.5064,-3.4484,-3.3891,-3.3239,-3.2085,-3.092,-2.9752,0.0,0.0,0.0,0.0,0.0,0.0,-2.8102,0.0,0.0,-3.0012,-3.0576,-3.1071,0.0,0.0,-3.4013,-3.4588,-3.5997,-3.7222,-3.7209,-3.8016,-3.8604,-3.8012,-3.8323,-3.8536,-3.8,-3.8134,-3.8479,-3.9068,-3.9413,-3.9813,-4.0434,-4.0492,-4.0492,-4.0489,-4.0539,0.0,0.0,0.0,0.0,-4.3564,-4.4496,-4.5239,-4.5761,-4.5814,-4.5854,-4.5905,-4.5917,-4.5953,-4.5997,-4.5997,-4.5997,-4.5997,-4.5997,-4.5997,-4.5997,-4.5997,-4.5997,-4.5997,-4.5997,-4.5997,-4.5958,-4.5414,-4.452,-4.3452,-4.284,-4.1858,-4.0807,-4.0796,-4.08,-4.079,0.0,0.0,0.0,0.0,0.0,0.0,0.0,0.0,0.0,0.0,0.0,0.0,0.0,0.0,0.0,0.0,0.0,0.0,0.0,0.0,-2.1062,-2.3624,-2.4341,-2.5349,-2.6771,-2.7965,-2.8841,-2.9401,-3.0591,-3.1464,-3.2001,-3.2321,-3.2465,-3.2475,-3.2498,-3.2519,-3.2517,-3.251,-3.2506,-3.2485,-3.216,-3.1705,-3.1116,-3.0217,-2.9332,0.0,0.0,0.0,0.0,0.0,0.0,0.0,0.0,-2.8468,-2.9625,-3.0742,-3.1454,-3.2095,-3.2958,-3.438,-3.5778,-3.6373,-3.7553,-3.8472,-3.8175,-3.8691,-3.8977,-3.8116,-3.7871,-3.7648,-3.713,-3.7034,-3.7241,-3.779,-3.8635,-3.9438,-3.9988,-4.0315,-4.0489,-4.0489,-4.0573,-4.0723,0.0,0.0,0.0,-4.3134,-4.4336,-4.5258,-4.5761,-4.58,-4.5841,-4.5905,-4.5905,-4.5922,-4.5997,-4.5997,-4.5997,-4.5997,-4.5997,-4.5997,-4.5997,-4.5997,-4.5997,-4.5997,-4.5997,-4.5997,-4.5958,-4.5433,-4.4559,-4.3452,-4.2889,-4.1907,-4.0807,-4.0807,-4.0792,-4.079,0.0,0.0,0.0,0.0,0.0,0.0,0.0,0.0,0.0,0.0,0.0,0.0,0.0,0.0,0.0,0.0,0.0,0.0,0.0,0.0,0.0,-2.0295,-2.192,-2.3236,-2.4144,-2.5782,-2.6684,-2.6777,-2.8427,-2.9254,-2.9328,-3.0147,-3.0545,-3.0545,-3.0609,-3.0639,-3.0625,-3.0625,-3.0623,-3.056,-2.9732,-2.9374,-2.9235,-2.8346,0.0,0.0,0.0,0.0,0.0,0.0,0.0,0.0,0.0,0.0,-2.9797,-3.1433,-3.1992,-3.2635,-3.5059,-3.5796,-3.6288,-3.7862,-3.8832,-3.92,-3.8362,-3.8695,-3.8917,-3.806,-3.6565,-3.543,0.0,0.0,-3.5411,-3.5488,-3.7526,-3.9142,-3.9277,-3.995,-4.0466,0.0,0.0,0.0,0.0,0.0,0.0,-4.3206,0.0,-4.5761,-4.58,-4.58,-4.5841,-4.5905,-4.5905,-4.5922,-4.5997,-4.5997,-4.5997,-4.5997,-4.5997,-4.5997,-4.5997,-4.5997,-4.5997,-4.5997,-4.5997,-4.5997,-4.5997,-4.5958,-4.4986,-4.351,-4.3452,-4.2354,-4.0807,-4.0807,-4.0792,-4.079,0.0,0.0,0.0,0.0,0.0,0.0,0.0,0.0,0.0,0.0,0.0,0.0,0.0,0.0,0.0,0.0,0.0,0.0,0.0,0.0,0.0,0.0,0.0,0.0,0.0,0.0,0.0,0.0,0.0,-2.5979,-2.6665,-2.6906,-2.6994,0.0,-2.7013,-2.7038,-2.7025,-2.7029,-2.7031,-2.701,0.0,-2.6319,-2.5703,0.0,0.0,0.0,0.0,0.0,0.0,0.0,0.0,0.0,0.0,0.0,-3.0574,-3.1663,-3.3313,-3.4939,-3.5609,-3.7153,-3.8703,-3.9077,-3.9313,-3.9393,-3.9123,-3.8215,-3.7186,-3.6331,-3.5277,-3.434,0.0,0.0,0.0,-3.5295,-3.6045,0.0,-3.9027,-3.9469,0.0,-4.0496,0.0,-4.1668,-4.1961,-4.3148,0.0,0.0,-4.4645,-4.5162,-4.5761,-4.58,-4.5841,-4.5905,-4.5905,-4.5922,-4.5997,-4.5997,-4.5997,-4.5997,-4.5997,-4.5997,-4.5997,-4.5997,-4.5997,-4.5997,-4.5997,-4.5997,-4.5938,-4.5356,-4.4462,-4.3452,-4.2792,-4.1829,-4.0807,-4.0807,-4.0792,-4.079,0.0,0.0,0.0,0.0,0.0,0.0,0.0,0.0,0.0,0.0,0.0,0.0,0.0,0.0,0.0,0.0,0.0,0.0,0.0,0.0,0.0,0.0,0.0,0.0,0.0,0.0,0.0,0.0,0.0,0.0,0.0,-2.3809,-2.3998,-2.4007,-2.4388,-2.4551,-2.4555,0.0,0.0,0.0,0.0,0.0,0.0,0.0,0.0,0.0,0.0,0.0,0.0,0.0,0.0,-2.7775,-2.9513,-3.0637,-3.1551,-3.2779,0.0,-3.5998,-3.6731,-3.8248,-3.9675,-4.0031,-3.9805,-3.9294,-3.8496,-3.7262,-3.5816,-3.4179,-3.3164,0.0,0.0,0.0,0.0,0.0,0.0,0.0,-3.7911,-3.8815,-3.9619,0.0,-4.1384,0.0,-4.2497,-4.378,-4.4755,0.0,-4.5123,-4.5316,-4.578,-4.58,-4.5841,-4.5905,-4.5905,-4.5922,-4.5997,-4.5997,-4.5997,-4.5997,-4.5997,-4.5997,-4.5997,-4.5997,-4.5997,-4.5997,-4.5997,-4.5997,-4.5958,-4.5511,-4.4598,-4.3452,-4.2966,-4.1965,-4.0807,-4.0807,-4.0792,-4.079,0.0,0.0,0.0,0.0,0.0,0.0,0.0,0.0,0.0,0.0,0.0,0.0,0.0,0.0,0.0,0.0,0.0,0.0,0.0,0.0,0.0,0.0,0.0,0.0,0.0,0.0,0.0,0.0,0.0,0.0,0.0,0.0,0.0,0.0,0.0,0.0,0.0,0.0,0.0,0.0,0.0,0.0,0.0,0.0,0.0,0.0,0.0,0.0,0.0,0.0,-2.8064,-2.854,-3.039,-3.1568,-3.258,-3.414,-3.5379,-3.6559,-3.8016,-3.908,-3.9927,-4.0558,-4.0031,-3.8883,-3.7138,-3.5886,-3.4422,-3.2023,0.0,-2.9794,-2.9156,0.0,-3.0021,-3.0352,0.0,-3.5238,-3.6392,-3.793,-3.9326,-4.0318,-4.1306,-4.2256,-4.3129,-4.4045,-4.4929,-4.5742,-4.58,-4.58,-4.58,-4.58,-4.5841,-4.5905,-4.5917,-4.5953,-4.5997,-4.5997,-4.5997,-4.5997,-4.5997,-4.5997,-4.5997,-4.5997,-4.5997,-4.5997,-4.5997,-4.5997,-4.5997,-4.5997,-4.5084,-4.3666,-4.3549,-4.247,-4.0962,-4.0846,-4.0792,-4.079,0.0,0.0,0.0,0.0,0.0,0.0,0.0,0.0,0.0,0.0,0.0,0.0,0.0,0.0,0.0,0.0,0.0,0.0,0.0,0.0,0.0,0.0,0.0,0.0,0.0,0.0,0.0,0.0,0.0,0.0,0.0,0.0,0.0,0.0,0.0,0.0,0.0,0.0,0.0,0.0,0.0,0.0,0.0,0.0,0.0,0.0,0.0,0.0,0.0,0.0,-2.7095,-2.8707,-3.1109,-3.2469,-3.3361,-3.4314,-3.6236,-3.8098,-3.8346,-3.9544,-4.0615,-3.9985,-3.916,-3.8044,-3.6308,-3.4109,0.0,0.0,0.0,-2.7527,-2.8039,-2.7701,0.0,-3.0059,0.0,0.0,0.0,0.0,-3.7828,0.0,0.0,0.0,0.0,0.0,0.0,0.0,-4.58,-4.58,-4.58,-4.58,-4.5841,-4.5905,-4.5944,-4.5986,-4.5997,-4.5997,-4.5997,-4.5997,-4.5997,-4.5997,-4.5997,-4.5997,-4.5997,-4.5997,-4.5997,-4.5997,-4.5997,-4.5997,-4.5433,-4.4501,-4.3782,-4.2839,-4.1787,-4.1059,-4.0792,-4.079,0.0,0.0,0.0,0.0,0.0,0.0,0.0,0.0,0.0,0.0,-1.0785,0.0,0.0,0.0,0.0,0.0,0.0,0.0,0.0,0.0,0.0,0.0,0.0,0.0,0.0,0.0,0.0,0.0,0.0,0.0,0.0,0.0,0.0,0.0,0.0,0.0,0.0,0.0,0.0,0.0,0.0,0.0,0.0,0.0,0.0,0.0,0.0,0.0,0.0,0.0,-2.6266,-2.7471,-3.0478,-3.2322,-3.3565,-3.4408,-3.6156,-3.7819,-3.7773,-3.8692,-3.9532,-3.909,-3.7986,-3.6532,-3.4807,0.0,0.0,0.0,0.0,-2.5912,-2.5385,0.0,0.0,0.0,0.0,0.0,0.0,0.0,0.0,0.0,0.0,0.0,0.0,0.0,0.0,-4.5742,-4.58,-4.58,-4.58,-4.5822,-4.588,-4.5949,-4.5975,-4.5997,-4.5997,-4.5997,-4.5997,-4.5997,-4.5997,-4.5997,-4.5997,-4.5997,-4.5997,-4.5997,-4.5997,-4.5997,-4.5997,-4.5997,-4.553,-4.4753,-4.4345,-4.3354,-4.2089,-4.1632,-4.1191,-4.0796,0.0,0.0,0.0,0.0,0.0,0.0,0.0,-0.9457,-1.0675,-1.0899,-1.1649,-1.1962,-1.1425,-1.1147,0.0,0.0,0.0,0.0,0.0,0.0,0.0,0.0,0.0,0.0,0.0,0.0,0.0,0.0,0.0,0.0,0.0,0.0,0.0,0.0,0.0,0.0,0.0,0.0,0.0,0.0,0.0,0.0,0.0,0.0,0.0,0.0,0.0,0.0,0.0,0.0,-2.5121,-2.592,-2.8795,-3.1145,-3.3009,-3.3897,-3.5451,-3.6921,-3.6917,-3.7656,-3.8303,-3.793,-3.6809,-3.5251,-3.3147,-3.1319,0.0,0.0,-2.5066,-2.4324,-2.3118,0.0,0.0,0.0,0.0,0.0,0.0,0.0,0.0,0.0,0.0,0.0,0.0,0.0,0.0,-4.5722,-4.5814,-4.5814,-4.5814,-4.588,-4.5929,-4.5991,-4.6005,-4.5997,-4.5997,-4.5997,-4.5997,-4.5997,-4.5997,-4.5997,-4.5997,-4.5997,-4.5997,-4.5997,-4.5997,-4.5997,-4.5997,-4.5997,-4.5627,-4.5045,-4.487,-4.385,-4.244,-4.2186,-4.1552,-4.0788,0.0,0.0,0.0,0.0,0.0,0.0,0.0,-0.91,-1.0859,-1.1595,-1.2457,-1.2977,-1.2891,-1.1717,0.0,0.0,0.0,0.0,0.0,0.0,0.0,0.0,0.0,0.0,0.0,0.0,0.0,0.0,0.0,0.0,0.0,0.0,0.0,0.0,0.0,0.0,0.0,0.0,0.0,0.0,0.0,0.0,0.0,0.0,0.0,0.0,0.0,0.0,0.0,0.0,0.0,-2.4713,-2.5822,-2.8413,-3.1211,-3.2073,0.0,0.0,-3.6027,-3.717,-3.8011,-3.6433,-3.5915,-3.495,-3.167,0.0,0.0,0.0,-2.3668,-2.223,-2.2784,-2.2436,-2.2777,0.0,0.0,0.0,0.0,0.0,0.0,0.0,0.0,0.0,0.0,0.0,0.0,-4.5684,-4.586,-4.5893,-4.5893,-4.5912,-4.5929,-4.5991,-4.6005,-4.5997,-4.5997,-4.5997,-4.5997,-4.5997,-4.5997,-4.5997,-4.5997,-4.5997,-4.5997,-4.5997,-4.5997,-4.5997,-4.5997,-4.5997,-4.5958,-4.5822,-4.5084,-4.418,-4.3197,-4.2399,-4.1552,-4.0788,0.0,0.0,0.0,0.0,0.0,0.0,0.0,-0.901,-1.0834,-1.168,-1.2531,-1.3239,-1.3763,-1.2477,0.0,0.0,0.0,0.0,0.0,0.0,0.0,0.0,0.0,0.0,0.0,0.0,0.0,0.0,0.0,0.0,0.0,0.0,0.0,0.0,0.0,0.0,0.0,0.0,0.0,0.0,0.0,0.0,0.0,0.0,0.0,0.0,0.0,0.0,0.0,0.0,0.0,0.0,-2.313,-2.5039,0.0,0.0,-3.1999,-3.3604,-3.3614,-3.4444,-3.5159,-3.4464,-3.3502,-3.2093,-2.9671,0.0,0.0,-2.3005,-2.1617,-2.0869,-2.0656,-2.0772,-2.1411,0.0,0.0,0.0,0.0,0.0,0.0,0.0,0.0,0.0,0.0,0.0,0.0,-4.5725,-4.5874,-4.5919,-4.5956,-4.5949,-4.5972,-4.6005,-4.5997,-4.5997,-4.5997,-4.5997,-4.5997,-4.5997,-4.5997,-4.5997,-4.5997,-4.5997,-4.5997,-4.5997,-4.5997,-4.5997,-4.5997,-4.5997,-4.5997,-4.5958,-4.5647,-4.5006,-4.4131,-4.3216,-4.236,-4.1563,0.0,0.0,0.0,0.0,0.0,0.0,-0.6921,-0.8771,-1.0447,-1.129,-1.2137,-1.2896,-1.3522,-1.2426,-1.1442,-1.0946,0.0,0.0,0.0,0.0,0.0,0.0,0.0,0.0,0.0,0.0,0.0,0.0,0.0,0.0,0.0,0.0,0.0,0.0,0.0,0.0,0.0,0.0,0.0,0.0,0.0,0.0,0.0,0.0,0.0,0.0,0.0,0.0,0.0,0.0,0.0,0.0,0.0,0.0,0.0,0.0,-2.9393,-3.0958,-3.0958,-3.1748,-3.2499,-3.224,-3.1054,-2.9493,0.0,0.0,-2.3928,-2.1003,-2.0191,-1.9753,-1.8877,-1.9438,-2.0308,0.0,0.0,0.0,0.0,0.0,0.0,0.0,0.0,0.0,0.0,0.0,-4.4299,-4.5796,-4.5919,-4.5944,-4.5991,-4.6003,-4.5994,-4.5997,-4.5997,-4.5997,-4.5997,-4.5997,-4.5997,-4.5997,-4.5997,-4.5997,-4.5997,-4.5997,-4.5997,-4.5997,-4.5997,-4.5997,-4.5997,-4.5997,-4.5997,-4.5997,-4.5997,-4.5511,-4.4695,-4.3751,-4.2886,-4.2061,0.0,0.0,0.0,0.0,0.0,0.0,0.0,-0.8276,-0.9604,-1.0408,-1.1263,-1.1841,-1.192,-1.1265,-1.0831,-1.0884,0.0,0.0,0.0,0.0,0.0,0.0,0.0,0.0,0.0,0.0,0.0,-1.1412,-1.2214,0.0,0.0,0.0,0.0,0.0,0.0,0.0,0.0,0.0,0.0,0.0,0.0,0.0,0.0,0.0,0.0,0.0,0.0,0.0,0.0,0.0,0.0,0.0,0.0,0.0,0.0,0.0,-2.6256,-2.8239,-2.8248,-2.9513,-3.0617,-2.975,-2.8882,-2.7776,0.0,0.0,-2.253,-2.0768,-1.9704,-1.8855,-1.7973,-1.8529,-1.9399,-2.0263,-2.1836,0.0,0.0,0.0,0.0,0.0,0.0,0.0,0.0,0.0,-4.4944,-4.5815,-4.5956,0.0,-4.5991,-4.6005,-4.5997,-4.5997,-4.5997,-4.5997,-4.5997,-4.5997,-4.5997,-4.5997,-4.5997,-4.5997,-4.5997,-4.5997,-4.5997,-4.5997,-4.5997,-4.5997,-4.5997,-4.5997,-4.5997,-4.5997,-4.5997,-4.5511,-4.4695,-4.3751,-4.2886,-4.2071,0.0,0.0,0.0,0.0,0.0,0.0,0.0,-0.7521,-0.8833,-0.9631,-1.0504,-1.1247,-1.178,-1.1219,-1.0804,-1.0821,0.0,0.0,0.0,0.0,0.0,0.0,0.0,0.0,0.0,0.0,-1.0761,-1.2218,-1.2472,-1.3368,-1.4835,-1.5085,0.0,0.0,0.0,0.0,0.0,0.0,0.0,0.0,0.0,0.0,0.0,0.0,0.0,0.0,0.0,0.0,0.0,0.0,0.0,0.0,0.0,0.0,0.0,0.0,0.0,0.0,-2.5447,-2.64,-2.7172,-2.6894,-2.6179,-2.5074,-2.3328,-2.2056,-2.057,-1.8285,-1.7573,-1.7307,-1.7025,-1.7658,-1.8509,-1.938,-2.1411,0.0,0.0,0.0,0.0,0.0,0.0,0.0,0.0,0.0,-4.4388,-4.5871,-4.598,-4.6003,-4.6005,-4.5997,-4.5997,-4.5997,-4.5997,-4.5997,-4.5997,-4.5997,-4.5997,-4.5997,-4.5997,-4.5997,-4.5997,-4.5997,-4.5997,-4.5997,-4.5997,-4.5997,-4.5997,-4.5997,-4.5997,-4.5997,-4.5997,-4.5841,-4.5511,-4.4665,-4.4199,-4.3772,0.0,0.0,0.0,0.0,0.0,0.0,0.0,-0.6689,-0.7718,-0.8815,-0.9448,-1.0077,-1.0843,-1.0585,-1.0348,-1.0347,0.0,0.0,0.0,0.0,0.0,0.0,0.0,0.0,0.0,-1.0315,-1.119,-1.2607,-1.2928,-1.3805,-1.5201,-1.5201,-1.5251,-1.5291,0.0,0.0,0.0,0.0,0.0,0.0,0.0,0.0,-1.5402,0.0,0.0,0.0,0.0,0.0,0.0,0.0,0.0,0.0,0.0,0.0,0.0,0.0,-1.9023,0.0,0.0,-2.3059,-2.3677,-2.3683,-2.3008,0.0,0.0,-2.008,-1.8906,-1.6991,-1.659,-1.66,-1.66,-1.7252,-1.82,-1.9399,-2.1449,0.0,0.0,0.0,0.0,0.0,0.0,0.0,0.0,-4.34,-4.4114,-4.5875,-4.6003,-4.6005,-4.5997,-4.5997,-4.5997,-4.5997,-4.5997,-4.5997,-4.5997,-4.5997,-4.5997,-4.5997,-4.5997,-4.5997,-4.5997,-4.5997,-4.5997,-4.5997,-4.5997,-4.5997,0.0,-4.5997,-4.5997,-4.5997,-4.5997,-4.5997,-4.5899,-4.5103,-4.4792,-4.4598,0.0,0.0,0.0,0.0,0.0,0.0,0.0,0.0,0.0,0.0,-0.8129,-0.852,-0.9319,-0.9478,-0.9528,0.0,0.0,0.0,0.0,0.0,0.0,0.0,0.0,0.0,0.0,-1.0842,-1.1719,-1.2607,-1.3465,-1.4376,-1.5298,-1.5303,-1.5328,-1.5388,-1.5392,0.0,0.0,0.0,0.0,0.0,0.0,0.0,0.0,0.0,0.0,0.0,0.0,0.0,0.0,0.0,0.0,0.0,0.0,0.0,0.0,0.0,0.0,0.0,0.0,0.0,0.0,0.0,0.0,0.0,0.0,-1.8395,0.0,-1.67,-1.656,-1.6609,-1.6605,-1.731,-1.8432,-2.0128,0.0,0.0,0.0,0.0,0.0,0.0,0.0,0.0,-4.3078,-4.3455,-4.4187,-4.5867,-4.6005,-4.5997,-4.5997,-4.5997,-4.5997,-4.5997,-4.5997,-4.5997,-4.5997,-4.5997,-4.5997,-4.5997,-4.5997,-4.5997,-4.5997,-4.6007,-4.6007,-4.5997,-4.6007,-4.6007,-4.5997,-4.5997,-4.5997,-4.5997,-4.5997,-4.5997,-4.5899,-4.5161,-4.4889,-4.4753,0.0,0.0,0.0,0.0,0.0,0.0,0.0,0.0,0.0,0.0,0.0,-0.7684,-0.8502,-0.8643,0.0,0.0,0.0,0.0,0.0,0.0,0.0,0.0,0.0,0.0,0.0,-1.0842,-1.1719,-1.2607,-1.3462,-1.4682,-1.6204,-1.6251,-1.6276,-1.6299,-1.6292,0.0,0.0,0.0,0.0,0.0,0.0,0.0,0.0,0.0,0.0,0.0,-1.539,-1.4961,0.0,0.0,0.0,0.0,0.0,0.0,0.0,0.0,-1.376,-1.395,-1.5038,0.0,-1.8585,-1.8526,0.0,0.0,0.0,0.0,0.0,0.0,0.0,0.0,0.0,0.0,0.0,0.0,0.0,0.0,0.0,0.0,0.0,0.0,0.0,0.0,-4.3194,-4.4001,-4.4838,-4.5908,-4.5997,-4.5997,-4.5997,-4.5997,-4.5997,-4.5997,-4.5997,-4.5997,-4.5997,-4.5997,-4.5997,-4.5997,-4.5997,-4.5997,-4.5997,-4.6037,-4.6056,-4.5997,-4.6047,-4.6056,-4.5997,-4.5997,-4.5997,-4.5997,-4.5997,-4.5997,-4.5977,-4.5783,-4.5725,-4.5589,0.0,0.0,0.0,0.0,0.0,0.0,0.0,0.0,0.0,0.0,0.0,0.0,0.0,0.0,0.0,0.0,0.0,0.0,0.0,0.0,0.0,0.0,0.0,0.0,-1.0537,-1.1394,-1.2292,-1.3204,-1.4442,-1.5553,-1.6513,-1.6952,-1.6958,-1.659,-1.6212,-1.5809,-1.5399,0.0,0.0,0.0,-1.5392,0.0,0.0,0.0,0.0,0.0,-1.4257,-1.3945,0.0,-1.3555,-1.3261,-1.2904,0.0,0.0,0.0,0.0,-1.2822,-1.2993,-1.3864,-1.5124,-1.6305,-1.6658,-1.6752,-1.6613,0.0,0.0,0.0,0.0,0.0,0.0,0.0,0.0,0.0,0.0,0.0,0.0,0.0,0.0,0.0,0.0,0.0,-4.1526,0.0,-4.4217,-4.5093,-4.5938,-4.5997,-4.5997,-4.5997,-4.5997,-4.5997,-4.5997,-4.6037,-4.6037,-4.5997,-4.5997,-4.6026,-4.6056,-4.6056,-4.6047,-4.6056,-4.6075,-4.6085,-4.6056,-4.6075,-4.6085,-4.6056,-4.6056,-4.6047,-4.6056,-4.6056,-4.6026,-4.5997,-4.5997,-4.5997,-4.5938,0.0,0.0,0.0,0.0,0.0,0.0,0.0,0.0,0.0,0.0,0.0,0.0,0.0,0.0,0.0,0.0,0.0,0.0,0.0,0.0,0.0,0.0,0.0,-1.0433,-1.1175,-1.2186,-1.3151,-1.4073,-1.5645,-1.6586,-1.6904,-1.7653,-1.7563,-1.6754,-1.5825,-1.534,-1.519,-1.5204,-1.5114,-1.5001,-1.5004,0.0,0.0,0.0,0.0,0.0,0.0,0.0,0.0,-1.2695,-1.2616,-1.2494,-1.2494,0.0,0.0,0.0,0.0,0.0,-1.3625,-1.3896,-1.4145,-1.5146,-1.5393,-1.5423,0.0,0.0,0.0,0.0,0.0,0.0,0.0,0.0,0.0,0.0,0.0,0.0,0.0,0.0,0.0,0.0,0.0,0.0,-4.3285,-4.4374,-4.5258,-4.5938,-4.5997,-4.5997,-4.5997,-4.6007,-4.6026,-4.6026,-4.6076,-4.6076,-4.6017,-4.6017,-4.6047,-4.6105,-4.6105,-4.6173,-4.6288,-4.6297,-4.6374,-4.6482,-4.6355,-4.6297,-4.6288,-4.6152,-4.6104,-4.6105,-4.6105,-4.6076,-4.6017,-4.6017,-4.6017,-4.6017,0.0,0.0,0.0,0.0,0.0,0.0,0.0,0.0,0.0,0.0,0.0,0.0,0.0,0.0,0.0,0.0,0.0,0.0,0.0,0.0,0.0,0.0,-1.057,-1.1068,-1.1194,-1.2781,-1.4022,-1.4922,-1.5965,-1.7254,-1.8699,-1.8836,-1.847,-1.763,-1.6088,-1.499,-1.4299,-1.4309,-1.3866,-1.3207,-1.327,0.0,0.0,0.0,0.0,0.0,0.0,0.0,0.0,-1.1794,-1.1305,-1.07,-1.0697,0.0,0.0,0.0,0.0,0.0,-1.2588,-1.2994,-1.3398,-1.5007,-1.5407,-1.5589,0.0,0.0,0.0,0.0,0.0,0.0,0.0,0.0,0.0,0.0,0.0,0.0,0.0,0.0,0.0,0.0,0.0,-4.313,-4.3442,-4.4909,-4.5861,-4.5977,-4.5997,-4.5997,-4.5997,-4.6047,-4.6076,-4.6076,-4.6095,-4.6113,-4.6084,-4.6084,-4.6084,-4.6093,-4.6093,-4.6482,-4.7211,-4.7209,-4.7598,-4.8262,-4.752,-4.7201,-4.7144,-4.6405,-4.6093,-4.6093,-4.6093,-4.6084,-4.6084,-4.6084,-4.6084,-4.6084,0.0,0.0,0.0,0.0,0.0,0.0,0.0,0.0,0.0,0.0,0.0,0.0,0.0,0.0,0.0,0.0,0.0,0.0,0.0,0.0,0.0,-1.0471,-1.1366,-1.186,-1.1843,-1.3135,-1.4454,-1.5809,-1.6721,-1.7819,-1.9085,-1.8667,-1.8017,-1.7193,-1.5941,-1.492,-1.411,-1.41,-1.3596,-1.2816,0.0,0.0,0.0,0.0,0.0,0.0,0.0,0.0,0.0,0.0,-1.0639,-1.0308,-1.0304,0.0,0.0,0.0,0.0,0.0,-1.2331,-1.2807,-1.3323,-1.5495,-1.6052,-1.6157,0.0,0.0,0.0,0.0,0.0,0.0,0.0,0.0,0.0,0.0,0.0,0.0,0.0,0.0,0.0,0.0,0.0,-4.2956,-4.3452,-4.4617,-4.553,-4.5958,-4.6037,-4.6047,-4.6047,-4.6085,-4.6104,-4.6104,-4.6141,-4.6158,-4.6158,-4.6146,-4.638,-4.6792,-4.6792,-4.7287,-4.816,-4.8168,-4.8382,-4.8725,-4.8324,-4.8168,-4.8102,-4.7225,-4.6847,-4.6761,-4.6333,-4.613,-4.6093,-4.6093,-4.6093,-4.6093,0.0,0.0,0.0,0.0,0.0,0.0,0.0,0.0,0.0,0.0,0.0,0.0,0.0,0.0,0.0,0.0,0.0,0.0,0.0,0.0,-1.0096,-1.0784,-1.1835,-1.2501,-1.2692,-1.361,-1.4949,-1.6701,-1.7374,-1.8178,-1.9085,-1.8271,-1.7462,-1.6652,-1.5579,-1.4615,-1.3783,-1.3596,-1.3012,-1.2211,0.0,0.0,0.0,0.0,0.0,0.0,0.0,0.0,0.0,0.0,0.0,0.0,0.0,0.0,0.0,-1.0296,-1.029,-1.0675,-1.2342,-1.2798,-1.3406,-1.5959,0.0,0.0,0.0,0.0,0.0,0.0,0.0,0.0,0.0,0.0,0.0,0.0,0.0,0.0,0.0,0.0,-3.8694,-3.977,-4.1247,-4.2539,-4.3413,-4.4287,-4.5142,-4.5949,-4.6066,-4.6105,-4.6105,-4.6113,-4.6122,-4.6122,-4.6166,-4.6193,-4.6193,-4.6189,-4.6617,-4.742,-4.742,-4.8012,-4.9079,-4.9079,-4.9196,-4.9372,-4.9177,-4.9079,-4.9001,-4.793,-4.7474,-4.7342,-4.6524,-4.6166,-4.6111,-4.6111,-4.6111,-4.6111,0.0,0.0,0.0,0.0,0.0,0.0,0.0,0.0,0.0,0.0,0.0,0.0,0.0,0.0,0.0,0.0,0.0,0.0,0.0,0.0,-0.985,-0.9988,-1.1549,-1.2772,-1.3584,-1.4472,-1.5796,-1.7604,-1.767,-1.8184,-1.9084,-1.828,-1.747,-1.6632,-1.4937,-1.3701,-1.2832,-1.2093,-1.1276,-1.048,-1.05,0.0,0.0,0.0,0.0,0.0,0.0,0.0,0.0,0.0,0.0,0.0,0.0,0.0,-1.0295,-1.029,-1.0305,-1.0668,-1.2345,-1.2806,-1.3403,-1.5955,0.0,0.0,-1.9583,0.0,0.0,0.0,0.0,0.0,0.0,0.0,0.0,0.0,0.0,0.0,0.0,0.0,-3.8907,-4.0516,-4.1597,-4.2539,-4.3413,-4.4287,-4.5152,-4.6037,-4.6095,-4.6105,-4.6093,-4.6158,-4.6185,-4.6185,-4.6208,-4.6196,-4.6196,-4.6196,-4.6644,-4.7482,-4.7482,-4.8339,-4.9917,-4.9917,-5.0346,-5.1086,-5.0268,-4.9917,-4.9781,-4.8164,-4.7501,-4.7404,-4.6546,-4.6196,-4.6196,-4.6196,-4.6196,-4.6196,0.0,0.0,0.0,0.0,0.0,0.0,0.0,0.0,0.0,0.0,0.0,0.0,0.0,0.0,0.0,0.0,0.0,0.0,0.0,0.0,-1.0107,-1.0614,-1.1803,-1.2865,-1.3735,-1.4574,-1.5617,-1.6896,-1.7478,-1.77,-1.7539,-1.7236,-1.6661,-1.5844,-1.4634,-1.3629,-1.2754,-1.1941,-1.1105,-1.0305,-1.0305,-1.0308,0.0,0.0,0.0,0.0,0.0,0.0,0.0,0.0,-1.0303,-1.0303,0.0,-1.0296,-1.029,-1.0305,-1.0649,-1.13,-1.2476,-1.3208,-1.4228,-1.6777,0.0,0.0,0.0,0.0,0.0,0.0,0.0,0.0,0.0,0.0,0.0,0.0,0.0,0.0,-3.7536,-3.8537,-3.9538,-4.0712,-4.1179,-4.1956,-4.3355,-4.3792,-4.4589,-4.5979,-4.6143,-4.6169,-4.6158,-4.6193,-4.6208,-4.6208,-4.6196,-4.6196,-4.6196,-4.6209,-4.6645,-4.7522,-4.8048,-4.9198,-5.0816,-5.0842,-5.1044,-5.1336,-5.0972,-5.0816,-5.068,-4.9009,-4.8307,-4.8165,-4.6748,-4.6189,-4.6189,-4.6189,-4.6203,-4.6196,0.0,0.0,0.0,0.0,0.0,0.0,0.0,0.0,0.0,0.0,0.0,0.0,0.0,0.0,0.0,0.0,0.0,0.0,0.0,-0.9772,-1.0169,-1.0728,-1.161,-1.2502,-1.3391,-1.4204,-1.5219,-1.6412,-1.7336,-1.7393,-1.6594,-1.6627,-1.6185,-1.5368,-1.4483,-1.3611,-1.2754,-1.1945,-1.1107,-1.0305,-1.0308,-1.0292,0.0,0.0,0.0,0.0,0.0,0.0,0.0,0.0,0.0,0.0,0.0,0.0,0.0,-1.061,-1.1069,-1.1743,-1.2901,-1.3824,0.0,0.0,0.0,0.0,0.0,0.0,0.0,0.0,0.0,0.0,0.0,0.0,0.0,0.0,0.0,-3.6605,-3.8089,-3.9051,-3.9906,-4.08,-4.0908,-4.1587,-4.3335,-4.3491,-4.4209,-4.5978,-4.6169,-4.6193,-4.6201,-4.6189,-4.6196,-4.6196,-4.6196,-4.6203,-4.6209,-4.6196,-4.6638,-4.7515,-4.8106,-4.9276,-5.0933,-5.1252,-5.1394,-5.1394,-5.1343,-5.1187,-5.081,-4.9393,-4.8484,-4.7866,-4.6669,-4.6206,-4.6206,-4.6206,-4.6201,-4.6189,0.0,0.0,0.0,0.0,0.0,0.0,0.0,0.0,0.0,0.0,0.0,0.0,0.0,0.0,0.0,0.0,0.0,0.0,-0.8694,-0.9508,-1.0006,-1.0006,-1.0776,-1.1647,-1.2565,-1.3379,-1.4635,-1.6388,-1.7327,-1.7379,-1.6592,-1.6658,-1.6233,-1.5353,-1.4485,-1.3611,-1.2756,-1.1948,-1.1091,-1.0306,-1.0292,-1.0293,-1.0293,0.0,0.0,0.0,0.0,0.0,0.0,0.0,-1.0303,0.0,0.0,0.0,0.0,0.0,-1.1509,-1.1896,-1.3626,-1.4686,0.0,0.0,0.0,0.0,0.0,0.0,0.0,0.0,0.0,0.0,0.0,0.0,0.0,-3.4408,-3.582,-3.7243,-3.8167,-3.9051,-3.9926,-4.08,-4.0908,-4.1587,-4.3316,-4.3491,-4.4219,-4.5957,-4.6158,-4.6201,-4.6196,-4.6196,-4.6196,-4.6196,-4.6196,-4.6209,-4.6203,-4.6203,-4.6624,-4.7493,-4.7509,-4.8406,-5.0126,-5.0985,-5.1375,-5.1375,-5.1375,-5.0887,-5.0009,-4.9151,-4.7766,-4.6206,-4.6206,-4.6206,-4.6206,-4.6206,-4.6206,-4.6206,0.0,0.0,0.0,0.0,0.0,0.0,0.0,0.0,0.0,0.0,0.0,0.0,0.0,0.0,0.0,0.0,0.0,0.0,-0.8726,-0.9534,-0.9991,-1.0,-1.0809,-1.1403,-1.1673,-1.2568,-1.3854,-1.557,-1.5874,-1.5916,-1.5691,-1.5754,-1.5655,-1.5362,-1.4487,-1.3634,-1.2801,-1.1969,-1.1094,-1.0291,-1.031,-1.029,-1.0292,0.0,0.0,0.0,0.0,0.0,0.0,0.0,0.0,0.0,0.0,0.0,0.0,-1.1259,-1.1934,-1.2667,-1.3781,0.0,0.0,0.0,0.0,0.0,0.0,0.0,0.0,0.0,0.0,0.0,0.0,0.0,0.0,-3.5201,-3.6729,-3.792,-3.8246,-3.9547,-4.0557,-4.0849,-4.0898,-4.1335,-4.2481,-4.3179,-4.4022,-4.5101,-4.5823,-4.6189,-4.6196,-4.6196,-4.6196,-4.6196,-4.619,-4.6196,-4.6203,-4.6245,-4.6392,-4.667,-4.7283,-4.8142,-4.9181,-4.945,-4.9571,-4.9567,-4.9577,-4.9416,-4.9123,-4.8245,-4.7255,-4.626,-4.6269,-4.6273,-4.6273,-4.6273,-4.6269,-4.6279,0.0,0.0,0.0,0.0,0.0,0.0,0.0,0.0,0.0,0.0,0.0,0.0,0.0,0.0,0.0,0.0,0.0,0.0,0.0,0.0,-1.0049,-1.0039,-1.0541,-1.0995,-1.1321,-1.2223,-1.318,-1.4217,-1.4596,-1.4799,-1.4827,-1.5212,-1.5407,-1.5385,-1.4859,-1.3986,-1.2862,-1.2341,-1.1406,-1.0305,-1.0305,-1.0306,-1.0309,0.0,0.0,0.0,0.0,0.0,0.0,0.0,0.0,0.0,0.0,0.0,0.0,-1.1665,-1.2398,-1.3131,-1.4686,0.0,0.0,0.0,0.0,0.0,0.0,0.0,0.0,0.0,0.0,0.0,0.0,0.0,0.0,-3.6033,-3.734,-3.8369,-3.8771,-3.9984,-4.0858,-4.0898,-4.0907,-4.1238,-4.2131,-4.3061,-4.3942,-4.4787,-4.5675,-4.6196,-4.6196,-4.6196,-4.6203,-4.6209,-4.6196,-4.6209,-4.624,-4.6279,-4.6308,-4.6312,-4.6823,-4.7331,-4.783,-4.8502,-4.8798,-4.8779,-4.8459,-4.8318,-4.8259,-4.7381,-4.6741,-4.6292,-4.63,-4.63,-4.63,-4.63,-4.6296,-4.6292,0.0,0.0,0.0,0.0,0.0,0.0,0.0,0.0,0.0,0.0,0.0,0.0,0.0,0.0,0.0,0.0,0.0,0.0,0.0,0.0,-1.01,-1.01,-1.01,-1.0462,-1.1276,-1.208,-1.2471,-1.2467,-1.3508,-1.4034,-1.412,-1.4985,-1.5409,-1.5409,-1.5407,-1.4513,-1.3,-1.2928,-1.1933,-1.0402,-1.0324,-1.0305,-1.0305,-1.0305,0.0,0.0,0.0,0.0,0.0,0.0,0.0,0.0,0.0,0.0,-1.0544,-1.2284,-1.2806,-1.3364,0.0,0.0,0.0,0.0,0.0,0.0,0.0,0.0,0.0,0.0,0.0,0.0,0.0,-3.5704,-3.5955,-3.6767,-3.7691,-3.8614,-3.9469,-4.0343,-4.0898,-4.0907,-4.0907,-4.1208,-4.2004,-4.3002,-4.3922,-4.4725,-4.5663,-4.6196,-4.6196,-4.6203,-4.6209,-4.6203,-4.6209,-4.624,-4.6303,-4.6303,-4.6292,-4.63,-4.63,-4.63,-4.6358,-4.7881,-4.8564,-4.8525,-4.7803,-4.749,-4.7412,-4.6632,-4.63,-4.63,-4.63,-4.63,-4.63,-4.6303,-4.6303,-4.6303,0.0,0.0,0.0,0.0,0.0,0.0,0.0,0.0,0.0,0.0,0.0,0.0,0.0,0.0,0.0,0.0,0.0,0.0,0.0,0.0,-1.0101,-1.0093,-1.009,-1.021,-1.0443,-1.0631,-1.0741,-1.0731,-1.2976,-1.4083,-1.4126,-1.4993,-1.5397,-1.5409,-1.5391,-1.4813,-1.3805,-1.3163,-1.2285,-1.1263,-1.0576,-1.0303,-1.0305,-1.0303,-1.0302,0.0,0.0,0.0,0.0,0.0,0.0,0.0,-1.0219,-1.0195,-1.0544,-1.2284,-1.2806,-1.3364,0.0,0.0,0.0,0.0,0.0,0.0,0.0,0.0,0.0,0.0,0.0,0.0,0.0,-3.5704,-3.5955,-3.6767,-3.7691,-3.8614,-3.9469,-4.0343,-4.0898,-4.0907,-4.0907,-4.0994,-4.1235,-4.268,-4.3669,-4.3868,-4.5312,-4.6196,-4.6196,-4.619,-4.6203,-4.6203,-4.6245,-4.6299,-4.6303,-4.6292,-4.63,-4.63,-4.63,-4.63,-4.63,-4.6671,-4.6846,-4.6827,-4.6651,-4.6573,-4.6573,-4.6378,-4.63,-4.63,-4.63,-4.63,-4.6303,-4.6295,-4.6297,-4.6297,0.0,0.0,0.0,0.0,0.0,0.0,0.0,0.0,0.0,0.0,0.0,0.0,0.0,0.0,0.0,0.0,0.0,0.0,0.0,0.0,0.0,-1.0144,-1.0159,-1.0154,-1.0209,-1.0199,-1.0208,-1.0197,-1.2406,0.0,0.0,0.0,0.0,-1.5409,-1.5391,-1.4913,-1.4042,-1.3242,-1.2401,-1.1515,-1.0655,-1.0303,-1.0303,-1.0301,-1.0301,-1.0301,-1.0298,0.0,0.0,0.0,0.0,0.0,0.0,0.0,-1.0462,-1.1796,-1.2473,-1.3267,0.0,0.0,0.0,0.0,0.0,0.0,0.0,0.0,0.0,0.0,0.0,0.0,-3.5693,-3.5704,-3.5966,-3.6809,-3.7702,-3.8606,-3.9471,-4.0344,-4.0888,-4.0907,-4.0936,-4.0954,-4.0999,-4.221,-4.314,-4.3571,-4.4825,-4.5767,-4.6176,-4.6196,-4.6209,-4.6195,-4.6275,-4.6308,-4.6292,-4.6296,-4.63,-4.63,-4.63,-4.63,-4.63,-4.63,-4.63,-4.63,-4.63,-4.6306,-4.6293,-4.6293,-4.6293,-4.6293,-4.6293,-4.6306,-4.6303,-4.629,-4.6301,-4.6307,0.0,0.0,0.0,0.0,0.0,0.0,0.0,0.0,0.0,0.0,0.0,0.0,0.0,0.0,0.0,0.0,0.0,0.0,0.0,0.0,0.0,0.0,-1.0203,-1.0193,-1.0199,-1.0208,-1.0197,-1.0205,0.0,0.0,0.0,0.0,0.0,-1.5625,0.0,-1.5227,-1.4473,-1.3377,-1.2475,-1.1748,-1.0713,-1.0302,-1.0299,-1.0298,-1.0298,-1.0298,-1.0295,-1.0295,-1.0293,-1.031,0.0,0.0,0.0,0.0,-1.0379,-1.1249,-1.2007,-1.2975,0.0,0.0,0.0,0.0,0.0,0.0,0.0,0.0,0.0,0.0,0.0,0.0,-3.5693,-3.5704,-3.5985,-3.6859,-3.7723,-3.8607,-3.9491,-4.0345,-4.0907,-4.0907,-4.0954,-4.0991,-4.0996,-4.1797,-4.2649,-4.352,-4.4403,-4.5287,-4.6144,-4.6196,-4.6215,-4.6211,-4.626,-4.6292,-4.63,-4.63,-4.63,-4.63,-4.6303,-4.6303,-4.63,-4.63,-4.6303,-4.6303,-4.6303,-4.6309,-4.63,-4.6303,-4.6303,-4.6303,-4.6303,-4.63,-4.6309,-4.6309,-4.6301,-4.6308,0.0,0.0,0.0,0.0,0.0,0.0,0.0,0.0,0.0,0.0,0.0,0.0,0.0,0.0,0.0,0.0,0.0,0.0,-0.9971,0.0,0.0,-1.0203,-1.0199,-1.0208,-1.0208,-1.0197,-1.0205,-1.0193,0.0,0.0,0.0,0.0,0.0,-1.6527,0.0,0.0,-1.6191,-1.3881,-1.2821,-1.2588,-1.0943,-1.0296,-1.0296,-1.0292,-1.029,-1.029,-1.031,-1.0308,-1.0308,-1.0308,-1.0305,0.0,0.0,0.0,-1.0379,-1.1249,-1.1577,0.0,0.0,0.0,0.0,0.0,0.0,0.0,0.0,0.0,0.0,0.0,0.0,-3.5631,-3.5684,-3.5704,-3.5985,-3.6859,-3.7723,-3.8607,-3.9491,-4.0345,-4.0907,-4.0907,-4.0954,-4.0991,-4.0996,-4.1797,-4.2649,-4.352,-4.4403,-4.5287,-4.6144,-4.6195,-4.6231,-4.6284,-4.6292,-4.63,-4.63,-4.63,-4.63,-4.63,-4.6295,-4.6295,-4.63,-4.63,-4.6309,-4.63,-4.6306,-4.6303,-4.6306,-4.6306,-4.6308,-4.6308,-4.6308,-4.6308,-4.6308,-4.6308,-4.6308,-4.6308,0.0,0.0,0.0,0.0,0.0,0.0,0.0,0.0,0.0,0.0,0.0,0.0,0.0,0.0,0.0,-0.9549,-0.9636,-0.98,-1.017,-1.0193,-1.0193,-1.0199,-1.0208,-1.0194,-1.0197,-1.0205,-1.0193,0.0,0.0,0.0,0.0,-1.5974,-1.7169,0.0,0.0,0.0,0.0,0.0,-1.3578,-1.3462,-1.2207,-1.1695,-1.1694,-1.1692,-1.169,-1.1632,-1.1145,-1.0969,-1.0891,-1.0442,-1.0281,-1.0236,-1.0211,0.0,0.0,0.0,-1.1111,0.0,0.0,0.0,0.0,0.0,0.0,0.0,0.0,0.0,0.0,0.0,0.0,-3.5093,-3.5607,-3.5695,-3.5833,-3.6212,-3.7027,-3.7929,-3.8811,-3.9674,-4.0412,-4.0906,-4.0991,-4.0988,-4.0991,-4.1383,-4.1981,-4.2799,-4.3676,-4.454,-4.5423,-4.5972,-4.6279,-4.6303,-4.6296,-4.63,-4.63,-4.63,-4.63,-4.63,-4.6309,-4.6306,-4.63,-4.63,-4.6295,-4.6307,-4.6305,-4.6303,-4.6303,-4.6308,-4.6308,-4.6308,-4.6308,-4.6307,-4.63,-4.63,-4.6303,-4.6307,0.0,0.0,0.0,0.0,0.0,0.0,0.0,0.0,0.0,0.0,0.0,0.0,0.0,0.0,0.0,0.0,-1.0196,-1.0206,-1.0196,-1.0199,-1.0205,-1.0191,-1.0194,-1.0197,-1.0202,-1.0193,0.0,0.0,0.0,0.0,-1.2871,-1.6134,-1.7447,0.0,-1.7265,0.0,0.0,0.0,0.0,0.0,-1.3139,-1.2803,-1.2801,-1.2801,-1.2801,-1.2703,-1.206,-1.1827,-1.1747,-1.1139,-1.0744,-1.0522,-1.0537,-1.0375,0.0,0.0,0.0,0.0,0.0,0.0,0.0,0.0,0.0,0.0,0.0,0.0,0.0,0.0,-3.2696,-3.406,-3.5173,-3.5562,-3.5698,-3.5699,-3.6484,-3.7326,-3.7974,-3.9004,-3.9945,-4.0593,-4.0863,-4.1003,-4.1006,-4.1059,-4.1442,-4.2266,-4.2922,-4.3772,-4.4869,-4.5592,-4.6069,-4.6288,-4.6296,-4.63,-4.63,-4.63,-4.63,-4.63,-4.6309,-4.6293,-4.6293,-4.63,-4.6307,-4.6307,-4.6308,-4.6308,-4.6307,-4.6307,-4.6307,-4.6308,-4.6308,-4.6303,-4.6306,-4.6303,-4.6309,-4.6297,0.0,0.0,0.0,0.0,0.0,0.0,0.0,0.0,0.0,0.0,0.0,0.0,-1.0037,-1.0048,-1.0078,-1.0186,-1.0196,-1.0206,-1.0196,-1.0205,-1.0191,-1.0191,-1.02,0.0,-1.0202,-1.0198,0.0,0.0,0.0,0.0,-1.2852,-1.5527,-1.7181,-1.7969,-1.8809,-1.871,-1.7825,0.0,0.0,0.0,0.0,0.0,0.0,0.0,-1.2801,0.0,0.0,-1.2738,-1.2734,-1.2676,-1.2124,-1.1431,-1.1431,-1.0863,-1.0195,0.0,0.0,0.0,0.0,0.0,0.0,0.0,0.0,0.0,0.0,0.0,0.0,0.0,-3.1352,-3.2445,-3.4158,-3.5146,-3.5698,-3.5699,-3.6484,-3.7113,-3.7159,-3.8635,-3.9712,-3.9757,-4.0493,-4.1003,-4.1006,-4.1059,-4.1467,-4.2323,-4.244,-4.3192,-4.4894,-4.5035,-4.5449,-4.6261,-4.63,-4.63,-4.63,-4.63,-4.63,-4.63,-4.6305,-4.6308,-4.6308,-4.6297,-4.6306,-4.6306,-4.6307,-4.6305,-4.6303,-4.6303,-4.6293,-4.6301,-4.6301,-4.6301,-4.63,-4.6306,-4.63,-4.6303,0.0,0.0,0.0,0.0,0.0,0.0,0.0,0.0,0.0,0.0,0.0,0.0,0.0,-1.0602,-1.0722,-1.0175,-1.0173,-1.0206,-1.0196,-1.0205,-1.0191,-1.0191,-1.02,-1.0207,-1.0198,-1.0207,0.0,0.0,0.0,-1.2325,-1.2917,-1.4913,-1.6326,-1.7207,-1.8086,-1.83,-1.792,-1.674,0.0,0.0,0.0,0.0,0.0,0.0,0.0,0.0,0.0,0.0,0.0,-1.4017,-1.3423,-1.3062,-1.2518,-1.1735,-1.0916,-1.0351,-1.0819,0.0,0.0,0.0,0.0,0.0,0.0,0.0,0.0,0.0,0.0,0.0,-3.0442,-3.1399,-3.259,-3.3964,-3.5107,-3.5669,-3.6045,-3.647,-3.7023,-3.7644,-3.8458,-3.9579,-3.9976,-4.0408,-4.1,-4.1097,-4.1226,-4.1543,-4.2086,-4.2666,-4.3298,-4.4399,-4.5145,-4.546,-4.6007,-4.63,-4.63,-4.63,-4.6293,-4.6305,-4.6306,-4.6297,-4.6297,-4.6295,-4.629,-4.63,-4.6293,-4.6297,-4.6295,-4.6306,-4.6303,-4.6309,-4.6309,-4.6309,-4.6309,-4.6303,-4.63,-4.63,0.0,0.0,0.0,0.0,0.0,0.0,0.0,0.0,0.0,0.0,0.0,0.0,0.0,0.0,-1.1607,-1.1023,-1.1003,-1.0921,-1.0641,-1.0634,-1.0504,-1.0211,-1.0202,-1.0193,-1.0205,-1.0191,0.0,0.0,0.0,0.0,0.0,-1.4175,-1.5429,-1.6308,-1.7167,-1.7555,0.0,0.0,0.0,-1.5892,0.0,0.0,-1.7594,0.0,0.0,0.0,0.0,0.0,0.0,0.0,-1.5611,-1.5174,-1.4008,-1.2862,-1.1813,-1.1247,-1.148,0.0,0.0,0.0,0.0,0.0,0.0,0.0,0.0,0.0,0.0,0.0,-2.8949,-3.0128,-3.1271,-3.2432,-3.3691,-3.5124,-3.5607,-3.6012,-3.6576,-3.6914,-3.7533,-3.8712,-3.9369,-3.9948,-4.0598,-4.0928,-4.1095,-4.11,-4.1632,-4.2093,-4.2389,-4.3505,-4.441,-4.4979,-4.5854,-4.63,-4.63,-4.6293,-4.6306,-4.6306,-4.6293,-4.63,-4.63,-4.6293,-4.629,-4.63,-4.63,-4.6306,-4.6295,-4.6306,-4.63,-4.63,-4.63,-4.63,-4.6296,-4.6296,-4.6292,-4.6269,0.0,0.0,0.0,0.0,0.0,0.0,0.0,0.0,0.0,-1.2511,0.0,0.0,0.0,0.0,0.0,-1.277,-1.2741,-1.2405,-1.1585,-1.1509,-1.1127,-1.0288,-1.0207,-1.0198,-1.0205,-1.0191,-1.024,0.0,0.0,0.0,0.0,0.0,-1.4492,0.0,-1.6244,-1.663,-1.6665,0.0,-1.6692,-1.6707,0.0,-1.775,-1.9233,0.0,0.0,0.0,-2.062,-2.0609,0.0,-1.9616,0.0,0.0,0.0,0.0,-1.2865,-1.2845,0.0,0.0,0.0,0.0,0.0,0.0,0.0,0.0,0.0,0.0,0.0,0.0,-2.6842,-2.8555,-3.0304,-3.0661,-3.1515,-3.3979,-3.5161,-3.576,-3.576,-3.6514,-3.7102,-3.7182,-3.8643,-3.9669,-3.9786,-4.0563,-4.1061,-4.1091,-4.1105,-4.1468,-4.2318,-4.2396,-4.3183,-4.4913,-4.5782,-4.6245,-4.6264,-4.6267,-4.6265,-4.63,-4.63,-4.63,-4.63,-4.63,-4.63,-4.63,-4.63,-4.63,-4.63,-4.63,-4.63,-4.63,-4.63,-4.6292,-4.6303,-4.6303,-4.6255,-4.6206,0.0,0.0,0.0,0.0,0.0,0.0,0.0,0.0,-1.2347,0.0,0.0,0.0,-1.3574,-1.4137,-1.4514,-1.4516,-1.3986,-1.3286,-1.2413,-1.1815,-1.1399,-1.1147,-1.0537,-1.02,-1.0191,-1.0193,-1.0224,-1.0297,0.0,0.0,0.0,0.0,0.0,0.0,-1.47,-1.5165,-1.5804,-1.6423,0.0,0.0,-1.7382,-1.8646,0.0,0.0,0.0,0.0,0.0,-2.3287,-2.3115,0.0,-2.1016,-1.9361,0.0,0.0,0.0,0.0,0.0,0.0,-1.3869,0.0,0.0,0.0,0.0,0.0,0.0,0.0,0.0,-2.5117,-2.5925,-2.6812,-2.8507,-2.986,-3.0936,-3.1635,-3.3507,-3.4874,-3.4929,-3.5628,-3.6421,-3.7125,-3.7618,-3.839,-3.9686,-4.0009,-4.0413,-4.1051,-4.1097,-4.1202,-4.1459,-4.2064,-4.2907,-4.4022,-4.429,-4.4726,-4.5346,-4.536,-4.569,-4.6297,-4.6306,-4.63,-4.63,-4.63,-4.63,-4.63,-4.6292,-4.6308,-4.6308,-4.6308,-4.6308,-4.6308,-4.624,-4.6236,-4.6231,-4.6231,-4.6211,-4.6206,0.0,0.0,0.0,0.0,0.0,0.0,0.0,0.0,-1.3901,0.0,0.0,0.0,-1.5497,-1.5945,-1.624,-1.6278,-1.5851,-1.5076,-1.3855,-1.3353,-1.2768,-1.2077,-1.1214,-1.0744,-1.074,-1.039,-1.0226,-1.0301,0.0,0.0,0.0,0.0,0.0,0.0,0.0,0.0,0.0,0.0,0.0,0.0,-1.8161,0.0,0.0,-2.2952,-2.4277,0.0,0.0,0.0,-2.5741,-2.455,-2.2746,0.0,0.0,0.0,0.0,0.0,0.0,0.0,0.0,0.0,0.0,0.0,0.0,0.0,-2.0323,-2.1191,-2.2117,0.0,-2.4238,-2.5046,-2.6735,-2.7887,-2.8813,-2.9538,-3.1501,-3.3308,-3.4431,-3.5009,-3.5645,-3.6547,-3.6988,-3.7609,-3.8619,-3.9043,-3.9622,-4.0489,-4.0574,-4.0756,-4.1088,-4.1931,-4.2636,-4.3134,-4.3515,-4.3937,-4.4445,-4.4816,-4.5249,-4.5768,-4.6131,-4.63,-4.63,-4.6296,-4.6296,-4.6292,-4.6264,-4.626,-4.6255,-4.625,-4.6255,-4.6255,-4.6211,-4.6206,-4.6201,-4.6201,-4.6209,-4.6196,0.0,0.0,0.0,0.0,0.0,0.0,0.0,0.0,0.0,0.0,-1.7991,-1.8167,-1.8254,-1.828,-1.8241,-1.8216,-1.8121,-1.7406,-1.5834,-1.5468,-1.4635,-1.314,-1.2161,-1.1596,-1.1499,-1.074,-1.0323,-1.0301,0.0,0.0,0.0,0.0,0.0,0.0,0.0,0.0,0.0,0.0,0.0,-1.8074,-1.8885,-2.0773,0.0,0.0,-2.6264,-2.7156,-2.8024,-2.8345,-2.8076,-2.6334,-2.4141,0.0,0.0,0.0,0.0,0.0,-1.8259,0.0,0.0,0.0,0.0,0.0,0.0,0.0,-1.9312,-2.0497,-2.158,-2.1702,-2.2323,-2.3373,-2.5024,-2.5471,-2.6118,-2.7665,-2.9317,-3.1307,-3.3815,-3.4328,-3.4756,-3.5521,-3.6381,-3.6962,-3.7064,-3.7862,-3.8733,-3.9611,-3.9813,-4.021,-4.0932,-4.1797,-4.2257,-4.2265,-4.3017,-4.3453,-4.3551,-4.4328,-4.4816,-4.5012,-4.5792,-4.6202,-4.63,-4.6308,-4.6303,-4.6284,-4.6231,-4.6206,-4.6206,-4.6209,-4.6209,-4.6206,-4.6201,-4.6189,-4.6196,-4.6196,-4.6196,-4.6185,-1.1175,0.0,0.0,0.0,0.0,0.0,0.0,0.0,0.0,-1.8532,-1.9896,-2.1034,-2.1735,-2.1793,-2.1551,-2.0905,-2.0215,-1.9406,-1.8422,-1.6435,-1.5158,-1.4826,-1.336,-1.2215,-1.1518,-1.1324,-1.0946,-1.0301,0.0,0.0,0.0,0.0,0.0,0.0,0.0,0.0,0.0,0.0,0.0,-1.8065,-1.8932,0.0,-2.3293,-2.504,-2.6634,-2.8052,-2.8929,-2.925,-2.8987,-2.7229,-2.5846,-2.4688,0.0,0.0,0.0,0.0,0.0,0.0,0.0,0.0,0.0,0.0,0.0,0.0,-2.0091,-2.05,-2.0927,0.0,-2.1924,-2.2347,-2.3393,-2.4696,-2.5712,-2.6043,-2.7556,-2.9357,-3.1265,-3.2711,-3.3638,-3.3868,-3.4657,-3.547,-3.6169,-3.7012,-3.7897,-3.8759,-3.9504,-3.9976,-4.0132,-4.0951,-4.1406,-4.1353,-4.1523,-4.1947,-4.265,-4.2825,-4.3606,-4.4992,-4.5168,-4.5613,-4.6308,-4.6303,-4.6279,-4.6211,-4.6215,-4.6209,-4.6209,-4.6196,-4.6203,-4.6209,-4.6196,-4.6201,-4.6201,-4.6138,-4.6111,-4.6122,-1.2284,0.0,0.0,0.0,0.0,0.0,0.0,0.0,-1.9151,-2.0028,-2.1664,-2.3083,-2.3947,-2.4043,-2.3889,-2.3475,-2.2684,-2.1853,-2.1046,-1.8988,-1.762,-1.7215,-1.5175,-1.3836,-1.3409,-1.2584,-1.1741,-1.0896,0.0,0.0,0.0,0.0,0.0,0.0,0.0,0.0,0.0,0.0,-1.7195,-1.8147,-1.9856,0.0,-2.3985,-2.6139,-2.7733,-2.8961,-2.9849,-2.9878,-2.9362,-2.8454,-2.7581,0.0,0.0,-2.4358,-2.3464,0.0,-2.2051,-2.1648,0.0,0.0,0.0,-2.1146,0.0,0.0,0.0,-2.115,-2.115,-2.115,-2.115,-2.1422,-2.2293,-2.313,-2.3854,-2.4287,-2.5795,-2.7225,-2.813,-3.0443,-3.2221,-3.2708,-3.3516,-3.423,-3.4651,-3.5106,-3.5896,-3.7212,-3.8514,-3.9259,-3.9252,-3.9667,-4.0088,-4.0483,-4.0503,-4.0893,-4.1732,-4.2181,-4.2842,-4.3716,-4.4575,-4.5215,-4.5611,-4.6055,-4.6226,-4.6195,-4.6209,-4.6196,-4.6196,-4.6166,-4.6146,-4.6142,-4.6138,-4.6149,-4.6149,-4.6102,-4.6104,-4.6095,-1.3429,0.0,0.0,0.0,0.0,0.0,0.0,0.0,-2.0776,-2.1991,-2.3515,-2.4889,-2.5918,-2.6043,-2.6101,-2.6264,-2.538,-2.4561,-2.3904,-2.1941,-2.0514,-1.9869,-1.7389,-1.5954,-1.58,-1.415,-1.2861,-1.1994,0.0,0.0,0.0,0.0,0.0,0.0,0.0,0.0,0.0,0.0,0.0,-1.8719,0.0,-2.2981,-2.4673,-2.7241,-2.8759,-2.9616,-3.0496,-3.0351,-2.9732,-2.9685,-2.9135,-2.819,-2.6779,-2.6229,0.0,0.0,0.0,0.0,0.0,0.0,0.0,0.0,0.0,-2.2929,0.0,0.0,0.0,0.0,0.0,0.0,0.0,0.0,0.0,0.0,0.0,0.0,0.0,-2.7714,0.0,-3.1211,-3.212,-3.2658,-3.2664,-3.2963,-3.379,-3.5382,-3.696,-3.7922,-3.8085,-3.8251,-3.8746,-3.9624,-3.9819,-4.021,-4.0834,-4.1709,-4.2233,-4.2424,-4.3997,-4.4792,-4.4938,-4.5799,-4.6196,-4.619,-4.6201,-4.6185,-4.6177,-4.6122,-4.6113,-4.6113,-4.6113,-4.6113,-4.6104,-4.6095,-4.6085,-4.6085,-1.3656,-1.4311,0.0,0.0,0.0,0.0,0.0,0.0,-2.2115,-2.453,-2.5704,-2.6897,0.0,0.0,0.0,0.0,0.0,0.0,-2.7335,0.0,-2.2554,-2.2473,-2.0037,-1.8329,-1.7625,-1.5901,-1.4617,-1.3805,0.0,0.0,0.0,0.0,0.0,0.0,-1.359,0.0,0.0,0.0,-1.8807,0.0,-2.2237,-2.3538,0.0,-2.7306,-2.8789,-2.9608,-3.049,-3.0745,-3.0647,0.0,-3.0072,-2.9316,0.0,-2.8481,-2.7879,-2.7665,0.0,0.0,0.0,0.0,0.0,0.0,-2.31,0.0,0.0,0.0,-2.1763,-2.1666,0.0,0.0,0.0,0.0,0.0,0.0,0.0,0.0,-2.34,-2.4394,-2.6016,-2.8444,-2.9442,-2.9974,-3.004,-3.1385,-3.2653,-3.361,-3.4586,-3.5487,-3.6253,-3.7031,-3.7848,-3.8726,-3.9507,-3.9917,-3.9956,-4.0808,-4.164,-4.2405,-4.3387,-4.4211,-4.4922,-4.58,-4.6189,-4.6193,-4.613,-4.6122,-4.6122,-4.6095,-4.6105,-4.6105,-4.6105,-4.6105,-4.6095,-4.6035,-4.6014,-4.6003,-1.4309,-1.472,0.0,0.0,0.0,0.0,0.0,0.0,0.0,-2.6359,-2.7865,0.0,0.0,0.0,0.0,0.0,0.0,-3.0606,0.0,0.0,-2.583,-2.5865,-2.2924,-2.0933,-2.0117,-1.8431,-1.6643,-1.4792,-1.4462,0.0,0.0,0.0,0.0,0.0,-1.4485,0.0,-1.6305,0.0,0.0,0.0,0.0,0.0,0.0,-2.7693,-2.9422,-3.1129,-3.1995,-3.1987,-3.1549,0.0,-3.0978,0.0,0.0,0.0,0.0,0.0,0.0,0.0,0.0,0.0,0.0,0.0,0.0,0.0,-2.4082,0.0,-2.3176,0.0,0.0,0.0,0.0,0.0,0.0,0.0,-2.1781,0.0,0.0,0.0,-2.423,-2.5852,0.0,0.0,-2.8791,-2.994,-3.1014,-3.1873,-3.2715,-3.3564,-3.4435,-3.531,-3.6189,-3.7067,-3.7946,-3.884,-3.979,-4.0157,-4.0773,-4.1661,-4.2529,-4.337,-4.4182,-4.5051,-4.5706,-4.6149,-4.6104,-4.6095,-4.6095,-4.6046,-4.6035,-4.6035,-4.5994,-4.6014,-4.6025,-4.596,-4.5949,-4.6007,-1.4791,0.0,0.0,0.0,0.0,0.0,0.0,0.0,0.0,0.0,0.0,0.0,-3.2442,-3.3709,0.0,0.0,-3.407,-3.3603,0.0,0.0,-2.9214,0.0,0.0,0.0,0.0,-2.1183,-1.9071,-1.6736,0.0,0.0,0.0,0.0,0.0,0.0,0.0,-1.6727,-1.7899,0.0,0.0,-2.2206,-2.4706,-2.666,-2.8157,-2.9029,-3.0482,-3.2205,-3.3099,-3.2994,-3.2459,-3.246,-3.204,-3.1393,-3.0753,-3.0397,0.0,0.0,0.0,0.0,-2.8627,0.0,0.0,0.0,0.0,0.0,0.0,0.0,0.0,0.0,0.0,0.0,0.0,0.0,-2.1596,-2.095,0.0,-2.146,0.0,-2.2014,0.0,0.0,0.0,0.0,0.0,-2.8164,-2.899,-3.0092,-3.0739,-3.1546,-3.2658,-3.33,-3.4276,-3.5603,-3.6498,-3.7744,-3.9431,-3.9681,-4.0238,-4.1114,-4.1967,-4.2799,-4.3627,-4.4476,-4.5324,-4.6104,-4.6076,-4.6075,-4.6075,-4.6003,-4.596,-4.596,-4.5925,-4.5925,-4.5968,-4.5925,-4.5893,-4.6009,-1.4895,-1.4947,0.0,0.0,0.0,0.0,0.0,0.0,0.0,0.0,0.0,0.0,0.0,0.0,0.0,0.0,0.0,-3.6234,-3.5416,0.0,-3.2466,0.0,0.0,-2.743,0.0,0.0,0.0,0.0,0.0,0.0,0.0,0.0,0.0,0.0,0.0,-1.8867,-2.0476,-2.0555,-2.2506,-2.5549,-2.5657,-2.7734,-3.0862,0.0,-3.2031,-3.2202,-3.3096,0.0,-3.336,-3.3356,-3.3351,-3.3298,-3.3204,-3.2633,0.0,0.0,0.0,0.0,0.0,0.0,0.0,-2.8388,0.0,0.0,0.0,0.0,-2.4397,0.0,0.0,0.0,0.0,-2.2379,-2.1798,-2.1759,-2.1138,0.0,0.0,0.0,0.0,0.0,0.0,0.0,0.0,-2.5805,-2.654,-2.8252,-2.8405,-2.9164,-3.0899,-3.1016,-3.2168,-3.4666,-3.5594,-3.6859,-3.8537,-3.9375,-4.0237,-4.1114,-4.1922,-4.2758,-4.3627,-4.4442,-4.5279,-4.6095,-4.6025,-4.6003,-4.5991,-4.5929,-4.5886,-4.5905,-4.5899,-4.5906,-4.5906,-4.5906,-4.5906,-4.6009,0.0,0.0,0.0,0.0,0.0,0.0,0.0,-2.4901,0.0,0.0,0.0,0.0,0.0,-3.728,-3.8637,0.0,0.0,-3.8818,-3.8001,-3.6383,0.0,0.0,0.0,-3.0642,0.0,0.0,0.0,0.0,0.0,0.0,0.0,0.0,0.0,0.0,0.0,-1.9441,0.0,0.0,0.0,0.0,0.0,-3.0172,-3.1795,0.0,-3.3326,-3.3925,-3.482,-3.4755,-3.4254,-3.4269,-3.3886,-3.339,-3.3366,-3.3186,-3.2961,-3.2961,-3.2747,-3.246,-3.2157,-3.1655,-3.1012,-3.0143,-2.9289,-2.8512,0.0,0.0,0.0,0.0,0.0,0.0,0.0,-2.3712,-2.3168,-2.2057,-2.1649,-2.126,0.0,0.0,0.0,0.0,0.0,0.0,0.0,0.0,-2.4704,-2.6451,-2.6585,-2.7581,-2.9923,-3.0548,-3.1755,-3.3779,-3.4693,-3.5935,-3.762,-3.8507,-3.9349,-4.0188,-4.1032,-4.2179,-4.3547,-4.3831,-4.4715,-4.6025,-4.596,-4.5929,-4.5929,-4.5912,-4.5899,-4.5887,-4.5852,-4.5824,-4.5824,-4.5824,-4.6211,-4.6892,-1.7374,0.0,0.0,0.0,0.0,0.0,0.0,0.0,0.0,0.0,-3.3032,0.0,-3.6886,0.0,-4.0327,0.0,-4.0936,-4.0916,-4.0123,-3.9048,0.0,-3.768,-3.5809,0.0,0.0,0.0,0.0,0.0,0.0,-2.1892,0.0,0.0,0.0,0.0,0.0,0.0,0.0,0.0,-2.4751,0.0,0.0,-3.1823,0.0,0.0,-3.4217,-3.4814,-3.5684,-3.5639,-3.5165,-3.5155,-3.4796,-3.432,-3.432,-3.412,-3.3858,-3.3858,-3.3643,-3.3395,-3.3403,-3.2994,-3.235,-3.148,-3.0606,-2.9751,-2.8951,-2.8527,-2.8142,0.0,0.0,0.0,0.0,-2.5068,-2.4404,-2.3019,-2.2298,-2.1598,0.0,-2.0604,0.0,0.0,0.0,0.0,0.0,-2.2675,-2.3252,-2.4672,-2.5063,-2.6117,-2.8108,-2.9296,-3.0696,-3.243,-3.3614,-3.5045,-3.6718,-3.7901,-3.8903,-3.9714,-4.0583,-4.1883,-4.3491,-4.3481,-4.4372,-4.596,-4.5925,-4.5893,-4.5912,-4.586,-4.5866,-4.5852,-4.5795,-4.5765,-4.5765,-4.5765,-4.6519,-4.7719,0.0,0.0,0.0,0.0,-2.1001,0.0,0.0,0.0,-2.9894,0.0,-3.4276,-3.6604,-3.9929,-4.0425,-4.1132,-4.2718,-4.2872,-4.2546,-4.1778,-4.1682,0.0,0.0,-3.8558,-3.6969,-3.4507,0.0,0.0,0.0,0.0,0.0,0.0,0.0,0.0,0.0,-2.0126,0.0,-2.3166,-2.4023,-2.5944,-2.8633,-3.1148,-3.2695,-3.3554,-3.4425,-3.4763,-3.4863,-3.5691,-3.5994,-3.5991,-3.6004,-3.5994,-3.6005,-3.6005,-3.542,-3.4757,-3.4757,-3.4172,-3.3532,-3.3532,-3.3493,-3.3278,-3.2436,-3.1568,-3.0716,-2.991,-2.9079,-2.8459,-2.8381,0.0,0.0,0.0,-2.6345,-2.5486,-2.4606,-2.3066,-2.1679,-2.0837,-2.0719,-2.0719,0.0,0.0,0.0,0.0,-2.1832,-2.2162,-2.2974,-2.3794,-2.4692,0.0,-2.7259,-2.8973,-3.0732,-3.2448,-3.4145,-3.5811,-3.7605,-3.887,-3.9645,-4.0563,-4.1859,-4.3481,-4.343,-4.4319,-4.5905,-4.5906,-4.5893,-4.5893,-4.581,-4.58,-4.58,-4.5715,-4.57,-4.5719,-4.5796,-4.6877,-4.842,-2.101,-2.1941,-2.2874,0.0,-2.3923,-2.5145,0.0,0.0,0.0,0.0,-3.5982,-3.7869,-3.9986,-4.1934,-4.3214,-4.3655,-4.3693,0.0,0.0,0.0,0.0,-4.1968,-4.06,-3.925,-3.7935,-3.5688,0.0,-3.0422,0.0,0.0,-2.3209,0.0,0.0,0.0,0.0,0.0,-2.3143,-2.3975,-2.6582,-3.0325,-3.228,-3.3597,-3.4459,-3.533,-3.5667,-3.5693,-3.5918,-3.6007,-3.5991,-3.601,-3.6007,-3.6004,-3.5997,-3.5853,-3.5674,-3.5674,-3.5518,-3.5323,-3.533,-3.4866,-3.4319,-3.4092,-3.3375,-3.2519,-3.1658,-3.1296,-3.0775,-2.9524,-2.9266,-2.8992,-2.8124,-2.7244,-2.6383,-2.5507,-2.3922,-2.2707,0.0,0.0,0.0,-2.247,0.0,0.0,0.0,-2.0928,-2.1278,-2.2071,-2.2344,-2.3417,-2.5579,-2.6122,-2.7735,-3.0712,-3.1865,-3.3234,-3.4917,-3.7254,-3.8529,-3.8741,-4.0217,-4.1811,-4.3427,-4.3354,-4.4272,-4.5906,-4.5852,-4.5829,-4.581,-4.5746,-4.5715,-4.5715,-4.5722,-4.5673,-4.5791,-4.708,-4.7812,-4.8373,-2.3333,0.0,0.0,-2.6919,0.0,0.0,-2.9209,-3.0687,0.0,-3.5283,-3.7452,0.0,-4.1052,-4.2865,-4.4109,-4.4491,-4.455,0.0,-4.4611,0.0,0.0,-4.3446,-4.2544,-4.1351,-3.9807,-3.7647,0.0,-3.2278,0.0,0.0,-2.4173,0.0,0.0,0.0,0.0,-2.1769,0.0,-2.5167,-2.8062,-3.1451,-3.2844,-3.391,0.0,-3.5666,-3.6007,-3.5994,-3.6009,-3.5996,-3.6007,-3.6003,-3.5999,-3.5991,-3.6007,-3.6001,-3.5997,-3.5997,-3.5997,-3.5997,-3.6004,-3.5633,-3.5188,-3.4808,-3.4324,-3.3738,-3.2873,-3.2669,-3.2402,-3.1464,-3.0957,-3.0448,-2.9589,-2.8722,-2.7602,-2.5968,-2.4871,-2.397,0.0,0.0,0.0,0.0,-2.3098,0.0,-2.1249,-2.1113,-2.115,-2.1225,-2.1579,-2.2611,0.0,-2.5294,-2.6926,-2.9585,-3.1227,-3.2692,-3.4017,-3.6946,-3.8399,-3.8384,-4.0063,-4.172,-4.3361,-4.3305,-4.4241,-4.5852,-4.5781,-4.5765,-4.575,-4.5719,-4.5703,-4.5687,-4.564,-4.5817,-4.6281,-4.7625,-4.8087,-4.8299,0.0,0.0,0.0,0.0,0.0,0.0,0.0,-3.2743,0.0,-3.654,0.0,-4.0895,-4.2572,-4.3547,-4.435,-4.5135,0.0,-4.5297,-4.5297,-4.5297,-4.4993,-4.4287,-4.4173,-4.3063,-4.085,-3.9007,-3.6503,0.0,0.0,0.0,0.0,0.0,0.0,0.0,0.0,0.0,0.0,-2.7107,-2.9938,-3.224,-3.3184,-3.4033,-3.4856,-3.568,-3.5994,-3.5988,-3.5991,-3.6007,-3.5996,-3.5994,-3.6007,-3.5999,-3.5996,-3.5996,-3.5996,-3.5996,-3.5996,-3.5996,-3.5996,-3.5994,-3.5821,-3.5052,-3.486,-3.4645,-3.3779,-3.3572,-3.3533,-3.3417,-3.2799,-3.2064,-3.1361,-3.0417,-2.8945,-2.6427,0.0,0.0,0.0,0.0,0.0,0.0,0.0,0.0,-2.2249,-2.1937,-2.1433,-2.0575,-2.1201,0.0,0.0,-2.4466,-2.617,-2.7974,-3.0506,-3.2298,-3.3283,-3.6673,-3.8355,-3.8307,-3.9993,-4.1656,-4.3286,-4.3285,-4.4206,-4.5781,-4.5735,-4.57,-4.57,-4.569,-4.5676,-4.564,-4.5531,-4.6032,-4.6877,-4.7702,-4.8047,-4.8375,0.0,0.0,0.0,0.0,0.0,-3.4812,-3.5872,-3.5874,-3.6614,-3.8965,-4.0336,-4.1727,-4.3418,-4.4357,-4.4954,-4.5106,-4.517,0.0,0.0,0.0,0.0,-4.5107,-4.4459,-4.3561,-4.2412,-4.0091,-3.7609,0.0,0.0,0.0,0.0,0.0,0.0,0.0,0.0,0.0,-2.632,-2.9091,0.0,-3.3063,-3.4011,-3.4899,-3.5678,-3.585,-3.5919,-3.5929,-3.5981,-3.6003,-3.5993,-3.5996,-3.5996,-3.5995,-3.5991,-3.6009,-3.6009,-3.6009,-3.6009,-3.6009,-3.6009,-3.6001,-3.596,-3.5819,-3.5778,-3.5537,-3.4666,-3.4471,-3.4271,-3.3554,-3.3278,-3.3124,-3.299,-3.1658,-2.9971,-2.807,-2.7758,0.0,0.0,0.0,0.0,0.0,0.0,-2.5691,0.0,0.0,0.0,0.0,0.0,0.0,0.0,-2.2995,-2.4642,-2.7055,-2.9602,-3.1663,-3.3204,-3.6617,-3.8287,-3.8236,-3.9917,-4.1603,-4.3225,-4.3217,-4.4114,-4.5715,-4.5706,-4.569,-4.569,-4.5586,-4.5495,-4.5438,-4.5419,-4.5956,-4.6819,-4.762,-4.8348,-4.9077,0.0,0.0,0.0,0.0,0.0,0.0,0.0,-3.8965,-3.9615,-4.0457,-4.1715,-4.2857,-4.3653,-4.4915,-4.5722,-4.5722,-4.6168,-4.6443,-4.6443,-4.6069,-4.5865,-4.5865,-4.5125,-4.4134,-4.2833,-4.1225,-3.8961,-3.6017,0.0,0.0,-2.7852,0.0,0.0,0.0,0.0,-2.5929,0.0,0.0,-3.1903,-3.3902,-3.4377,-3.5072,-3.585,-3.5892,-3.5897,-3.5894,-3.5938,-3.5978,-3.5996,-3.6007,-3.5992,-3.5995,-3.5996,-3.5996,-3.5996,-3.5996,-3.5996,-3.5996,-3.5996,-3.5996,-3.5995,-3.5995,-3.6007,-3.5896,-3.5474,-3.5378,-3.5259,-3.4842,-3.4387,-3.3936,-3.3484,-3.2349,-3.1055,-2.976,-2.9175,0.0,0.0,0.0,0.0,0.0,0.0,0.0,0.0,0.0,0.0,0.0,0.0,0.0,-2.1741,-2.2633,-2.4258,-2.6771,-2.8916,-3.1059,-3.3184,-3.6144,-3.781,-3.821,-3.9908,-4.1569,-4.3202,-4.3158,-4.4068,-4.5706,-4.562,-4.5605,-4.5586,-4.5495,-4.5419,-4.5438,-4.586,-4.6568,-4.7409,-4.8228,-4.9029,-4.9794,0.0,-3.5496,0.0,0.0,-3.8507,0.0,-4.0419,-4.1763,-4.2491,-4.1798,-4.2863,-4.381,-4.4194,-4.5456,-4.6334,-4.6505,-4.7186,-4.7571,-4.7571,-4.6991,-4.658,-4.6412,-4.5846,-4.4743,-4.3082,-4.2087,-4.0116,0.0,0.0,-3.2102,-2.9555,0.0,0.0,0.0,0.0,0.0,0.0,-3.1243,-3.2705,-3.4768,-3.495,-3.5549,-3.6334,-3.6414,-3.6313,-3.617,-3.6175,-3.6099,-3.5981,-3.6001,-3.5999,-3.6007,-3.6007,-3.6007,-3.6007,-3.6007,-3.6007,-3.6007,-3.6007,-3.6007,-3.6007,-3.6007,-3.6001,-3.5991,-3.601,-3.601,-3.6007,-3.6007,-3.5454,-3.4706,-3.3836,-3.3115,-3.2374,-3.1488,-3.0767,-3.0002,0.0,0.0,0.0,0.0,0.0,0.0,-2.5965,-2.4355,0.0,0.0,0.0,0.0,-2.1725,-2.262,-2.4219,-2.6709,-2.8657,-3.0789,-3.3151,-3.5901,-3.7572,-3.8194,-3.9876,-4.1567,-4.3177,-4.3111,-4.4003,-4.564,-4.5531,-4.5476,-4.5457,-4.5419,-4.5496,-4.5687,-4.6336,-4.7214,-4.8247,-4.8872,-4.9614,-5.0302,0.0,0.0,0.0,0.0,0.0,-4.1312,-4.2817,-4.3849,-4.4209,-4.3472,-4.351,-4.4196,-4.5786,-4.6108,-4.6487,-4.7252,-4.7435,-4.7498,-4.7498,-4.7495,-4.7143,-4.6431,-4.6336,-4.5538,-4.3921,-4.2316,-4.0615,0.0,0.0,-3.3757,-3.127,-3.0355,0.0,0.0,-2.964,-3.0644,-3.1795,-3.3363,-3.4642,-3.5659,-3.6455,-3.7298,-3.8074,-3.814,-3.768,-3.6993,-3.706,-3.6571,-3.5919,-3.5981,-3.6001,-3.5994,-3.5994,-3.5994,-3.5994,-3.5994,-3.5994,-3.5994,-3.5994,-3.5994,-3.5994,-3.5994,-3.5994,-3.5991,-3.6004,-3.6001,-3.5997,-3.6009,-3.5947,-3.5615,-3.4744,-3.451,-3.4174,-3.3303,-3.3039,-3.2658,-3.184,0.0,-3.1073,-2.9555,0.0,0.0,-2.6848,-2.5221,0.0,0.0,-2.1857,0.0,-2.1663,-2.2546,-2.4179,-2.672,-2.9195,-3.1321,-3.3093,-3.6419,-3.8098,-3.8132,-3.9807,-4.1489,-4.3111,-4.3049,-4.3938,-4.5513,-4.5438,-4.54,-4.5399,-4.5399,-4.5779,-4.6407,-4.6481,-4.7513,-4.9006,-4.906,-4.9614,-5.0302,0.0,0.0,0.0,0.0,0.0,0.0,0.0,-4.5209,-4.5998,-4.5714,-4.573,-4.6029,-4.6788,-4.7318,-4.778,-4.8155,-4.8636,-4.8946,-4.8946,-4.8542,-4.8175,-4.7857,-4.6934,-4.5852,-4.4671,-4.3533,-4.1895,0.0,0.0,0.0,-3.3757,-3.244,-3.1411,-3.0664,-3.0991,-3.2259,-3.4137,-3.4824,-3.5941,-3.722,-3.7583,-3.7934,-3.8257,-3.8307,-3.8141,-3.7886,-3.7918,-3.7357,-3.6625,-3.6693,-3.6411,-3.5997,-3.5997,-3.5997,-3.5997,-3.5997,-3.5997,-3.6114,-3.6583,-3.6719,-3.6852,-3.7359,-3.7496,-3.7359,-3.6848,-3.6711,-3.6575,-3.6103,-3.5962,-3.5836,-3.5471,-3.4998,-3.452,-3.4183,-3.3659,-3.318,-3.2869,0.0,0.0,-3.1074,0.0,0.0,0.0,-2.6081,0.0,0.0,0.0,0.0,-2.246,-2.3754,-2.5221,-2.6749,-2.9231,-3.1352,-3.3081,-3.5917,-3.7591,-3.8059,-4.0284,-4.1928,-4.3069,-4.3499,-4.4364,-4.5438,-4.54,-4.5379,-4.5338,-4.5338,-4.5795,-4.6557,-4.7092,-4.8028,-4.9156,-4.9633,-5.0015,-5.0302,-3.8042,0.0,-4.1379,0.0,-4.367,-4.4721,-4.5378,-4.6467,-4.7285,-4.7408,-4.7692,-4.7787,-4.7634,-4.8163,-4.8672,-4.9,-4.9549,-4.9871,-4.9898,-4.9402,-4.901,-4.8808,-4.7718,0.0,-4.5498,-4.4668,-4.3262,-4.1261,-3.9986,-3.8341,-3.6315,-3.4412,-3.336,-3.3064,-3.3096,-3.4289,-3.6305,-3.6318,-3.7173,-3.8543,-3.8549,-3.8702,-3.8949,-3.9021,-3.8917,-3.8743,-3.8762,-3.8205,-3.7498,-3.754,-3.7019,-3.6294,-3.6079,-3.6005,-3.6044,-3.6278,-3.6356,-3.6532,-3.7366,-3.7581,-3.7737,-3.8341,-3.8497,-3.8341,-3.7713,-3.7576,-3.7342,-3.6518,-3.6114,-3.5908,-3.5897,-3.5398,-3.4983,-3.4983,-3.4458,-3.3958,-3.3725,-3.2934,0.0,-3.2025,-3.0457,-2.9162,-2.8546,-2.718,0.0,0.0,0.0,0.0,-2.3754,-2.4871,-2.6231,-2.7832,-2.9815,-3.1804,-3.379,-3.6029,-3.7564,-3.8387,-4.0684,-4.2192,-4.3019,-4.4077,-4.4844,-4.5359,-4.5359,-4.5338,-4.5297,-4.5275,-4.5906,-4.6918,-4.7525,-4.8399,-4.9472,-5.0045,-5.0255,-5.0255,-4.1219,-4.3118,-4.3933,-4.2291,-4.3407,-4.5247,-4.7425,-4.7781,-4.7894,-4.8138,-4.8945,-4.9194,-4.8456,-4.8409,-4.8777,-4.9712,-4.9807,-4.9816,-4.9898,-4.9879,-4.9572,0.0,0.0,-4.8017,-4.6416,-4.554,-4.4642,-4.3751,0.0,-3.9719,-3.8785,-3.6392,-3.5729,-3.6546,-3.6607,-3.7132,-3.7969,-3.7973,-3.8521,-3.9392,-3.9393,-3.9895,-4.0687,-4.075,-4.0269,-3.9585,-3.9587,-3.9072,-3.8382,-3.8393,-3.7805,-3.6956,-3.6221,-3.6005,-3.6161,-3.6957,-3.7191,-3.7386,-3.8244,-3.8478,-3.8497,-3.8497,-3.8497,-3.8493,-3.8483,-3.8483,-3.8238,-3.7371,-3.6495,-3.5905,-3.5905,-3.5885,-3.5885,-3.5885,-3.5826,-3.55,-3.4703,-3.3833,0.0,-3.2108,-3.0455,-2.9392,-2.9392,-2.8582,0.0,0.0,0.0,-2.7213,-2.5553,-2.5492,-2.7013,-3.0346,-3.1262,-3.2906,-3.5451,-3.7137,-3.8396,-3.9215,-4.0893,-4.2122,-4.2946,-4.4633,-4.5359,-4.5297,-4.5297,-4.5297,-4.5297,-4.5213,-4.6183,-4.769,-4.7619,-4.8623,-5.0089,-5.0108,-5.0108,-5.0108,-4.3132,-4.3744,-4.4778,-4.6776,-4.7556,-4.7763,-4.7331,-4.8232,-4.8983,-4.9077,-4.934,-4.9427,-4.9175,-4.9179,-4.9351,0.0,-4.9721,-4.975,-4.9835,-4.9816,-4.9757,-4.9546,-4.9041,-4.8491,-4.7985,-4.6605,-4.5489,-4.4634,-4.3314,-4.1947,-4.0577,-3.8651,-3.7941,-3.8295,-3.7718,-3.7923,-3.8757,-3.8808,-3.9335,-4.0149,-4.0198,-4.0376,-4.0629,-4.0713,-4.0578,-4.0362,-4.0397,-3.9896,-3.9218,-3.9219,-3.8674,-3.7961,-3.7707,-3.7242,-3.68,-3.7053,-3.754,-3.8202,-3.9078,-3.9312,-3.9448,-4.0052,-4.0188,-4.0052,-3.9448,-3.8857,-3.8351,-3.8084,-3.7318,-3.6715,-3.6715,-3.6234,-3.5838,-3.5838,-3.5823,-3.571,-3.5457,-3.4664,-3.3794,-3.292,-3.2333,-3.1521,-3.033,-3.0496,-3.0412,0.0,0.0,-2.8965,-2.7293,-2.829,-2.9409,-3.046,-3.2983,-3.4661,-3.5424,-3.767,-3.9234,-4.0049,-4.1664,-4.3178,-4.4555,-4.509,-4.5317,-4.5297,-4.5235,-4.5213,-4.5271,-4.5818,-4.6648,-4.7696,-4.8262,-4.9156,-5.0108,-5.0108,-5.0108,-5.0108,-4.5602,-4.5844,-4.6559,-4.8875,-4.9281,-4.8958,-4.807,-4.8833,-4.9509,-4.9509,-4.9509,-4.9509,-4.9509,-4.9551,-4.9593,-4.9682,-4.9663,-4.9692,-4.975,-4.975,-4.9807,-4.9871,-4.9397,-4.8981,-4.8704,-4.7391,-4.629,-4.5456,-4.433,-4.3142,-4.1833,-4.0805,-4.0368,-4.0425,-3.9906,-3.9808,-4.0036,-4.0106,-4.0271,-4.0492,-4.0558,-4.0569,-4.0593,-4.0654,-4.0662,-4.0668,-4.0745,-4.044,-4.0018,-4.0042,-3.9519,-3.886,-3.885,-3.8479,-3.805,-3.8062,-3.8466,-3.9089,-3.9945,-4.0198,-4.0315,-4.0859,-4.0996,-4.0859,-4.0315,-3.9509,-3.8879,-3.8879,-3.8191,-3.7588,-3.7588,-3.6872,-3.6281,-3.6281,-3.6012,-3.5801,-3.5801,-3.5047,-3.4292,-3.3749,-3.3382,-3.2724,-3.1641,-3.2029,-3.2116,-3.1525,0.0,-3.0992,-2.993,-3.0565,-3.1391,-3.2336,-3.4379,-3.5911,-3.6825,-3.8377,-3.9744,-4.0879,-4.247,-4.398,-4.5297,-4.5256,-4.5256,-4.5275,-4.5192,-4.517,-4.5205,-4.6035,-4.6849,-4.7642,-4.8473,-4.9328,-5.0031,-5.0031,-5.0031,-5.0031,-4.8296,-4.8909,-4.8909,-4.8909,-4.8909,-4.9012,-4.9396,-4.9459,-4.9459,-4.9509,-4.949,-4.949,-4.9509,-4.9509,-4.9521,-4.9593,-4.9593,-4.9623,-4.9692,-4.9692,-4.9721,-4.9778,-4.9807,-4.9475,-4.878,-4.7927,-4.7055,-4.6184,-4.4645,-4.3494,-4.2759,-4.2766,-4.2768,-4.2789,-4.2794,-4.2374,-4.1666,-4.1683,-4.1257,-4.0578,-4.0531,-4.0523,-4.0592,-4.0593,-4.0588,-4.0588,-4.0668,-4.0694,-4.0694,-4.0773,-4.0292,-3.9672,-3.9672,-3.9672,-3.9684,-3.9699,-3.9743,-3.9957,-4.0774,-4.0988,-4.0988,-4.0988,-4.0988,-4.0988,-4.0988,-4.0368,-3.9777,-3.9768,-3.9099,-3.8479,-3.8479,-3.7722,-3.7092,-3.7092,-3.6356,-3.5794,-3.5794,-3.5097,-3.4555,-3.4497,-3.3781,-3.3258,-3.32,-3.3285,-3.3349,-3.3368,0.0,-3.3345,-3.3345,-3.2582,-3.3166,-3.5432,-3.5595,-3.6799,-3.9161,-3.925,-4.0098,-4.1781,-4.3349,-4.4532,-4.5297,-4.5213,-4.5192,-4.5192,-4.5125,-4.5103,-4.516,-4.6022,-4.6814,-4.7593,-4.8472,-4.9261,-4.9925,-4.9925,-4.9906,-4.9898,-4.876,-4.8909,-4.8909,-4.8909,-4.8909,-4.8943,-4.9012,-4.9046,-4.9164,-4.9459,-4.9409,-4.939,-4.949,-4.9509,-4.9509,-4.9521,-4.9521,-4.9551,-4.9623,-4.9604,-4.9634,-4.9721,-4.9721,-4.9627,-4.9467,-4.8617,-4.7492,-4.6126,-4.5141,-4.4564,-4.4425,-4.3821,-4.3539,-4.3526,-4.2961,-4.262,-4.241,-4.1877,-4.1512,-4.13,-4.0665,-4.043,-4.0447,-4.0489,-4.0519,-4.0534,-4.0588,-4.0615,-4.0615,-4.0642,-4.0546,-4.0447,-4.0447,-4.0483,-4.04,-3.981,-4.0073,-4.0577,-4.0791,-4.0878,-4.0908,-4.0908,-4.0927,-4.0917,-4.0917,-4.0752,-4.0607,-4.0548,-3.9878,-3.9315,-3.9315,-3.8064,-3.7017,-3.7017,-3.63,-3.5718,-3.5718,-3.5553,-3.5175,-3.4497,-3.4807,-3.4795,-3.4097,-3.5226,-3.5982,-3.5933,-3.6485,-3.6818,-3.6829,-3.6575,-3.6118,-3.5446,-3.7294,-3.8569,-3.9118,-4.0384,-4.182,-4.3424,-4.4494,-4.5105,-4.5297,-4.5213,-4.5192,-4.5192,-4.508,-4.5014,-4.5147,-4.6605,-4.7327,-4.765,-4.9157,-4.986,-4.9978,-4.9978,-4.9933,-4.9898,-4.8909,-4.8909,-4.8909,-4.8909,-4.8909,-4.8909,-4.8909,-4.8909,-4.8978,-4.9197,-4.9262,-4.9327,-4.9345,-4.9377,-4.9409,-4.9409,-4.9459,-4.9521,-4.9532,-4.9532,-4.9593,-4.9634,-4.9634,-4.9663,-4.9692,-4.8843,-4.7645,-4.6048,-4.5256,-4.487,-4.4895,-4.4531,-4.4349,-4.4315,-4.3964,-4.3586,-4.3166,-4.2811,-4.245,-4.203,-4.1263,-4.0973,-4.0952,-4.0581,-4.0444,-4.046,-4.0534,-4.0545,-4.0564,-4.0588,-4.0615,-4.0655,-4.0655,-4.0681,-4.0629,-4.0203,-4.0413,-4.0807,-4.0807,-4.0837,-4.0848,-4.0848,-4.0839,-4.0849,-4.0848,-4.0848,-4.0848,-4.0807,-4.0458,-4.0148,-4.0148,-3.9081,-3.8063,-3.7666,-3.6861,-3.6154,-3.5766,-3.5707,-3.5512,-3.5018,-3.5712,-3.6037,-3.55,-3.6626,-3.7392,-3.7352,-3.7762,-3.8003,-3.7959,-3.8293,-3.8066,-3.7179,-3.8457,-3.95,-4.025,-4.1858,-4.3139,-4.4017,-4.4876,-4.5297,-4.5297,-4.5213,-4.5192,-4.5192,-4.5103,-4.5266,-4.5741,-4.7015,-4.7775,-4.827,-4.9588,-5.0057,-5.0005,-5.0005,-4.9952,-4.9898,-4.8785,-4.8874,-4.8909,-4.8909,-4.8909,-4.8909,-4.8909,-4.8909,-4.8909,-4.8909,-4.9098,-4.9249,-4.9197,-4.9244,-4.9257,-4.9257,-4.9409,-4.9459,-4.9509,-4.9509,-4.9521,-4.9593,-4.9593,-4.9623,-4.9682,-4.8701,-4.7532,-4.6183,-4.5236,-4.477,-4.4789,-4.4895,-4.4967,-4.4967,-4.5057,-4.4661,-4.398,-4.3909,-4.3476,-4.2812,-4.2049,-4.1723,-4.1568,-4.084,-4.0494,-4.0396,-4.046,-4.0473,-4.0489,-4.0549,-4.0579,-4.0574,-4.0574,-4.0588,-4.0588,-4.0588,-4.0681,-4.0765,-4.0765,-4.0784,-4.0796,-4.0807,-4.0807,-4.0807,-4.0807,-4.0796,-4.0796,-4.0796,-4.0796,-4.0796,-4.0796,-4.0137,-3.9342,-3.8606,-3.7635,-3.6723,-3.5987,-3.5889,-3.5867,-3.5794,-3.6535,-3.7044,-3.6987,-3.7731,-3.8185,-3.8204,-3.831,-3.8343,-3.8297,-3.9103,-3.9547,-3.9547,-3.9519,-4.027,-4.1953,-4.333,-4.4074,-4.4208,-4.4953,-4.5297,-4.5297,-4.5213,-4.5192,-4.5192,-4.5258,-4.5712,-4.6473,-4.7405,-4.8267,-4.9009,-4.9784,-5.0082,-5.0012,-5.0005,-4.9952,-4.9898,-4.8382,-4.8678,-4.8909,-4.8909,-4.8909,-4.8909,-4.8909,-4.8909,-4.8909,-4.8909,-4.8943,-4.9012,-4.9179,-4.9211,-4.923,-4.923,-4.9211,-4.9313,-4.9509,-4.9509,-4.949,-4.9521,-4.9521,-4.9521,-4.9521,-4.8058,-4.7165,-4.692,-4.544,-4.4712,-4.4738,-4.4796,-4.4821,-4.4821,-4.4943,-4.4938,-4.4767,-4.4113,-4.3735,-4.3545,-4.2764,-4.2044,-4.1437,-4.1361,-4.0902,-4.0325,-4.0396,-4.0413,-4.0413,-4.043,-4.046,-4.0519,-4.0519,-4.0545,-4.0588,-4.0588,-4.0602,-4.0629,-4.0629,-4.0668,-4.073,-4.0796,-4.0807,-4.0796,-4.0792,-4.08,-4.08,-4.0796,-4.0796,-4.0796,-4.0796,-4.0099,-3.948,-3.9344,-3.7959,-3.6864,-3.6725,-3.6714,-3.6702,-3.6614,-3.7385,-3.7893,-3.7814,-3.8584,-3.9109,-3.9099,-3.9727,-4.0098,-4.0098,-4.082,-4.1225,-4.1225,-4.1226,-4.1973,-4.3615,-4.3883,-4.438,-4.5105,-4.5239,-4.5297,-4.5297,-4.5213,-4.5192,-4.523,-4.5906,-4.6263,-4.6511,-4.8124,-4.8872,-4.9063,-4.9883,-5.0139,-5.0082,-5.0031,-4.9952,-4.9898,-4.8306,-4.8458,-4.8642,-4.8874,-4.8909,-4.8909,-4.8909,-4.8909,-4.8909,-4.8909,-4.8909,-4.8943,-4.9012,-4.9098,-4.915,-4.915,-4.9164,-4.923,-4.9345,-4.9345,-4.9345,-4.939,-4.939,-4.9409,-4.9509,-4.83,-4.7484,-4.707,-4.5866,-4.5074,-4.4659,-4.4693,-4.4764,-4.4764,-4.4846,-4.4895,-4.4876,-4.4573,-4.4448,-4.4372,-4.3558,-4.3031,-4.2652,-4.2254,-4.1894,-4.1552,-4.1131,-4.1015,-4.0994,-4.0551,-4.0413,-4.0463,-4.0463,-4.046,-4.0492,-4.0492,-4.0549,-4.0588,-4.0588,-4.0615,-4.0655,-4.0681,-4.0694,-4.0681,-4.0688,-4.0688,-4.0694,-4.0681,-4.0681,-4.0681,-4.0681,-4.0353,-3.9947,-3.9522,-3.8775,-3.808,-3.7623,-3.7553,-3.752,-3.7442,-3.8213,-3.8719,-3.8691,-3.9461,-3.9946,-3.9938,-4.0691,-4.1121,-4.1106,-4.1818,-4.224,-4.2259,-4.2661,-4.3253,-4.3997,-4.4475,-4.4895,-4.5297,-4.5297,-4.5297,-4.5297,-4.5715,-4.5903,-4.5941,-4.6797,-4.7404,-4.7922,-4.8709,-4.93,-4.972,-5.0078,-5.0158,-5.0082,-5.0031,-4.9952,-4.9898,-4.8306,-4.8306,-4.8382,-4.8714,-4.875,-4.8785,-4.8909,-4.8909,-4.8909,-4.8909,-4.8909,-4.8909,-4.8909,-4.8996,-4.9049,-4.9049,-4.9098,-4.9113,-4.9113,-4.9113,-4.9179,-4.9276,-4.9289,-4.9358,-4.9459,-4.8645,-4.7894,-4.7274,-4.6468,-4.5763,-4.5161,-4.5036,-4.4968,-4.4949,-4.4839,-4.4789,-4.477,-4.4895,-4.4943,-4.4887,-4.4292,-4.3958,-4.3729,-4.3121,-4.2781,-4.2597,-4.1989,-4.18,-4.1762,-4.1149,-4.0803,-4.0686,-4.0686,-4.0551,-4.0398,-4.0398,-4.0476,-4.0564,-4.0593,-4.0593,-4.0593,-4.0607,-4.0588,-4.0588,-4.0588,-4.0588,-4.0588,-4.0588,-4.0588,-4.0588,-4.0588,-4.0588,-4.0395,-3.9778,-3.9513,-3.9166,-3.8477,-3.8381,-3.8348,-3.8301,-3.9244,-3.9884,-3.9873,-4.0623,-4.1072,-4.1078,-4.162,-4.193,-4.1876,-4.2642,-4.3177,-4.3367,-4.3787,-4.4112,-4.4303,-4.4972,-4.5297,-4.5297,-4.5488,-4.5583,-4.5602,-4.6424,-4.6806,-4.6863,-4.7723,-4.8487,-4.9098,-4.9289,-4.9729,-5.0278,-5.0188,-5.0133,-5.0082,-5.0005,-4.9933,-4.9898,-4.8306,-4.8306,-4.8306,-4.8344,-4.8344,-4.8458,-4.882,-4.8909,-4.8909,-4.8909,-4.8909,-4.8909,-4.8909,-4.8909,-4.8909,-4.8909,-4.8909,-4.8943,-4.8943,-4.8943,-4.9012,-4.9197,-4.9276,-4.9289,-4.9308,-4.8577,-4.8157,-4.8101,-4.7312,-4.688,-4.6805,-4.6064,-4.5716,-4.5678,-4.5006,-4.4712,-4.4712,-4.477,-4.4796,-4.4821,-4.4814,-4.4412,-4.3776,-4.3719,-4.3251,-4.261,-4.2552,-4.2557,-4.2598,-4.2541,-4.2087,-4.1513,-4.1513,-4.1013,-4.0398,-4.0398,-4.0415,-4.043,-4.0558,-4.0588,-4.0603,-4.0607,-4.0588,-4.0588,-4.0588,-4.0588,-4.0588,-4.0588,-4.0588,-4.0588,-4.0588,-4.0588,-4.0568,-4.0511,-3.9893,-3.9359,-3.922,-3.9201,-3.9206,-3.9196,-4.0623,-4.1623,-4.1623,-4.2324,-4.2825,-4.2825,-4.2755,-4.2718,-4.2699,-4.3463,-4.4284,-4.5086,-4.4399,-4.4399,-4.5201,-4.5258,-4.5297,-4.5297,-4.6061,-4.6405,-4.6443,-4.7322,-4.7704,-4.7761,-4.8621,-4.9041,-4.9156,-4.9901,-5.0221,-5.0188,-5.0133,-5.0082,-5.0005,-4.9933,-4.9906,-4.9898,-4.8306,-4.8306,-4.8306,-4.8306,-4.8306,-4.8344,-4.8495,-4.8532,-4.8569,-4.8714,-4.8714,-4.875,-4.8822,-4.8857,-4.8839,-4.8909,-4.8909,-4.8909,-4.8909,-4.8909,-4.8978,-4.9116,-4.9197,-4.9244,-4.9244,-4.899,-4.8628,-4.8122,-4.7864,-4.75,-4.6993,-4.6684,-4.6534,-4.6525,-4.5716,-4.5367,-4.5356,-4.4919,-4.4738,-4.4745,-4.4796,-4.4675,-4.4416,-4.4464,-4.4322,-4.4007,-4.3513,-4.3349,-4.3319,-4.2845,-4.2504,-4.2297,-4.2336,-4.1762,-4.0978,-4.0478,-4.0325,-4.0362,-4.0447,-4.0482,-4.0499,-4.0527,-4.0543,-4.0543,-4.0534,-4.0534,-4.0534,-4.0534,-4.0534,-4.0534,-4.0534,-4.0534,-4.0534,-4.0534,-4.0284,-4.0072,-4.0057,-4.0504,-4.085,-4.0854,-4.1841,-4.2535,-4.2535,-4.2789,-4.2908,-4.287,-4.3331,-4.3579,-4.354,-4.4341,-4.4932,-4.5235,-4.493,-4.4911,-4.5235,-4.5192,-4.5437,-4.5989,-4.6294,-4.6717,-4.7255,-4.8151,-4.8556,-4.864,-4.948,-4.9843,-4.9862,-5.0168,-5.0255,-5.0188,-5.0133,-5.0057,-5.0005,-4.9906,-4.9898,-4.9898,-4.8306,-4.8306,-4.8306,-4.8306,-4.8306,-4.8306,-4.8306,-4.8306,-4.8344,-4.8495,-4.8514,-4.8569,-4.8732,-4.8732,-4.8768,-4.8874,-4.8874,-4.8874,-4.8909,-4.8909,-4.8943,-4.9049,-4.9098,-4.9164,-4.9164,-4.9244,-4.9014,-4.8471,-4.8496,-4.8258,-4.7733,-4.75,-4.7387,-4.735,-4.6544,-4.6196,-4.6158,-4.5649,-4.5432,-4.544,-4.5255,-4.5186,-4.5148,-4.4959,-4.4895,-4.4887,-4.4336,-4.4178,-4.4091,-4.3602,-4.3262,-4.3054,-4.3096,-4.2544,-4.1762,-4.1246,-4.1092,-4.1035,-4.0823,-4.0746,-4.0706,-4.0507,-4.0485,-4.0466,-4.046,-4.0476,-4.0476,-4.0476,-4.0476,-4.0476,-4.0476,-4.0476,-4.0492,-4.0492,-4.0739,-4.0912,-4.0912,-4.1646,-4.2168,-4.2168,-4.2883,-4.3366,-4.3366,-4.356,-4.3675,-4.3618,-4.4153,-4.4459,-4.4418,-4.4972,-4.5275,-4.5192,-4.517,-4.5281,-4.5548,-4.5525,-4.5807,-4.6416,-4.693,-4.7505,-4.8124,-4.8958,-4.9387,-4.9453,-4.9983,-5.0231,-5.0231,-5.0231,-5.0207,-5.0114,-5.0082,-5.0031,-4.9978,-4.9925,-4.9898,-4.9898,-4.8306,-4.8306,-4.8306,-4.8306,-4.8306,-4.8306,-4.8306,-4.8306,-4.8306,-4.8306,-4.8306,-4.8382,-4.8587,-4.8587,-4.8642,-4.8787,-4.8787,-4.8822,-4.8909,-4.8909,-4.8909,-4.8909,-4.9015,-4.9101,-4.9101,-4.9164,-4.9197,-4.9197,-4.9276,-4.9308,-4.927,-4.8558,-4.8213,-4.8176,-4.7368,-4.7012,-4.7012,-4.7051,-4.7109,-4.7052,-4.6307,-4.6013,-4.5927,-4.5129,-4.4815,-4.4815,-4.4889,-4.4943,-4.501,-4.4991,-4.4467,-4.3808,-4.3789,-4.33,-4.2713,-4.2774,-4.2794,-4.2603,-4.1743,-4.1514,-4.1323,-4.0591,-4.0398,-4.0398,-4.0398,-4.0398,-4.0398,-4.0398,-4.0398,-4.0398,-4.0398,-4.0468,-4.0502,-4.0502,-4.1245,-4.1816,-4.1816,-4.2497,-4.3017,-4.3017,-4.3712,-4.4211,-4.4211,-4.494,-4.5398,-4.5398,-4.5338,-4.5297,-4.5297,-4.5297,-4.5275,-4.5192,-4.5148,-4.5498,-4.6282,-4.6373,-4.6416,-4.6435,-4.8109,-4.8909,-4.8947,-4.9746,-5.0108,-5.0108,-5.0108,-5.0108,-5.0108,-5.0108,-5.0057,-5.0005,-5.0005,-4.9978,-4.9898,-4.9898,-4.9898,-4.9898,-4.7888,-4.813,-4.8306,-4.8306,-4.8306,-4.8306,-4.8306,-4.8306,-4.8306,-4.8306,-4.8306,-4.8344,-4.8513,-4.8532,-4.8606,-4.8787,-4.8787,-4.8822,-4.8909,-4.8909,-4.8909,-4.8909,-4.8943,-4.8962,-4.8962,-4.9083,-4.9116,-4.9116,-4.9197,-4.9211,-4.9244,-4.9046,-4.8965,-4.8927,-4.8183,-4.7838,-4.78,-4.7266,-4.7022,-4.7003,-4.6845,-4.676,-4.6685,-4.5919,-4.5625,-4.5576,-4.5023,-4.4846,-4.487,-4.4967,-4.4843,-4.4543,-4.3999,-4.3659,-4.3354,-4.2824,-4.2692,-4.2676,-4.2409,-4.2372,-4.2087,-4.0671,-4.0325,-4.0325,-4.0379,-4.0398,-4.0398,-4.0398,-4.0398,-4.0398,-4.0398,-4.0914,-4.1334,-4.1334,-4.2042,-4.2579,-4.2579,-4.3309,-4.3847,-4.3847,-4.4557,-4.5035,-4.5035,-4.5225,-4.5317,-4.5317,-4.5317,-4.5297,-4.5297,-4.5297,-4.5275,-4.5192,-4.5738,-4.6107,-4.6301,-4.6277,-4.6865,-4.8023,-4.8536,-4.9067,-4.967,-4.9917,-5.0057,-5.0108,-5.0108,-5.0108,-5.0108,-5.0108,-5.0057,-5.0005,-5.0005,-4.9978,-4.9898,-4.9898,-4.9898,-4.9898,-4.7717,-4.7907,-4.8111,-4.8267,-4.8306,-4.8306,-4.8306,-4.8306,-4.8306,-4.8306,-4.8306,-4.8306,-4.8401,-4.8419,-4.8494,-4.8661,-4.8751,-4.8822,-4.8909,-4.8909,-4.8909,-4.8909,-4.8909,-4.8909,-4.8909,-4.8962,-4.9015,-4.9015,-4.9098,-4.9183,-4.9164,-4.9211,-4.9276,-4.9257,-4.8784,-4.8621,-4.8584,-4.8115,-4.7939,-4.795,-4.7671,-4.754,-4.7456,-4.6704,-4.6204,-4.5854,-4.5417,-4.5047,-4.4789,-4.487,-4.4919,-4.4891,-4.4429,-4.4258,-4.4186,-4.371,-4.3621,-4.3566,-4.3224,-4.317,-4.2906,-4.1571,-4.1017,-4.071,-4.0422,-4.0345,-4.0345,-4.0345,-4.0594,-4.0842,-4.0842,-4.1549,-4.2124,-4.2124,-4.2851,-4.3425,-4.3425,-4.4135,-4.4652,-4.4652,-4.5073,-4.5359,-4.5359,-4.5317,-4.5297,-4.5297,-4.5297,-4.5297,-4.5297,-4.5297,-4.5428,-4.5707,-4.6153,-4.6697,-4.727,-4.7239,-4.77,-4.8685,-4.9007,-4.9451,-4.9978,-4.9978,-4.9978,-5.0031,-5.0031,-5.0031,-5.0031,-5.0031,-5.0005,-4.9978,-4.9978,-4.9952,-4.9898,-4.9898,-4.9898,-4.9898,-4.7717,-4.7717,-4.7824,-4.819,-4.8267,-4.8306,-4.8306,-4.8306,-4.8306,-4.8306,-4.8306,-4.8306,-4.8306,-4.8306,-4.8363,-4.8513,-4.8679,-4.8822,-4.8874,-4.8874,-4.8909,-4.8909,-4.8909,-4.8909,-4.8909,-4.8909,-4.8909,-4.8909,-4.9015,-4.9068,-4.9101,-4.9183,-4.9197,-4.9197,-4.9197,-4.9244,-4.9308,-4.9308,-4.9358,-4.9415,-4.8626,-4.8307,-4.8213,-4.7494,-4.6704,-4.6017,-4.5986,-4.5485,-4.4806,-4.4808,-4.4821,-4.4895,-4.4943,-4.4967,-4.501,-4.5061,-4.5103,-4.4931,-4.4132,-4.3945,-4.3817,-4.2997,-4.2237,-4.1495,-4.0711,-4.052,-4.052,-4.052,-4.1113,-4.1609,-4.1609,-4.2317,-4.291,-4.291,-4.3695,-4.4288,-4.4288,-4.492,-4.5398,-4.5398,-4.5338,-4.5297,-4.5297,-4.5297,-4.5297,-4.5297,-4.5297,-4.5316,-4.5392,-4.5411,-4.5772,-4.6584,-4.6633,-4.7324,-4.877,-4.8814,-4.8825,-4.8818,-4.9538,-4.9898,-4.9898,-4.9898,-4.9898,-4.9898,-4.9898,-4.9898,-4.9898,-4.9898,-4.9898,-4.9898,-4.9898,-4.9898,-4.9898,-4.9898,-4.9898,-4.9898,-4.7717,-4.7717,-4.7741,-4.7824,-4.8072,-4.8306,-4.8306,-4.8306,-4.8306,-4.8306,-4.8306,-4.8306,-4.8306,-4.8306,-4.8363,-4.8513,-4.8587,-4.8642,-4.866,-4.8768,-4.8822,-4.8822,-4.8874,-4.8909,-4.8909,-4.8909,-4.8909,-4.8909,-4.8909,-4.8943,-4.8962,-4.9083,-4.9116,-4.9116,-4.9164,-4.923,-4.9211,-4.9211,-4.9276,-4.934,-4.9134,-4.9109,-4.9133,-4.83,-4.7849,-4.7511,-4.6299,-4.5725,-4.548,-4.4919,-4.4719,-4.4764,-4.4821,-4.4846,-4.4846,-4.4919,-4.4967,-4.4976,-4.4786,-4.4794,-4.463,-4.3773,-4.3431,-4.313,-4.243,-4.2259,-4.2259,-4.2259,-4.2393,-4.2526,-4.2526,-4.3176,-4.373,-4.373,-4.4476,-4.507,-4.507,-4.5203,-4.5317,-4.5317,-4.5317,-4.5297,-4.5297,-4.5297,-4.5297,-4.5297,-4.5297,-4.5583,-4.6214,-4.6233,-4.6634,-4.7491,-4.8109,-4.8596,-4.8884,-4.9461,-4.9686,-4.9633,-4.9803,-4.9898,-4.9898,-4.9898,-4.9898,-4.9898,-4.9898,-4.9898,-4.9898,-4.9898,-4.9898,-4.9898,-4.9898,-4.9898,-4.9898,-4.9898,-4.9898,-4.9898,-4.7717,-4.7717,-4.7717,-4.7717,-4.7847,-4.809,-4.8267,-4.8306,-4.8306,-4.8306,-4.8306,-4.8306,-4.8306,-4.8306,-4.8363,-4.8513,-4.8863,-4.9159,-4.9178,-4.9233,-4.9288,-4.9288,-4.8918,-4.875,-4.875,-4.875,-4.8785,-4.8909,-4.8909,-4.8909,-4.8909,-4.8962,-4.8996,-4.9015,-4.9046,-4.9098,-4.915,-4.915,-4.9197,-4.9244,-4.9244,-4.9308,-4.9352,-4.8902,-4.8502,-4.8082,-4.7258,-4.6723,-4.6299,-4.548,-4.527,-4.524,-4.4851,-4.4745,-4.4764,-4.4821,-4.487,-4.4895,-4.4943,-4.4991,-4.4943,-4.4486,-4.4395,-4.4116,-4.2959,-4.2694,-4.2694,-4.2694,-4.3039,-4.3326,-4.3326,-4.4034,-4.4628,-4.4628,-4.4991,-4.5297,-4.5297,-4.5297,-4.5297,-4.5297,-4.5297,-4.5297,-4.5297,-4.5297,-4.5449,-4.5831,-4.587,-4.6233,-4.7092,-4.7131,-4.7532,-4.8391,-4.88,-4.9172,-4.951,-4.9848,-4.9978,-4.9952,-4.9925,-4.9898,-4.9898,-4.9933,-4.9952,-4.9952,-4.9952,-4.9952,-4.9952,-4.9906,-4.9898,-4.9898,-4.9898,-4.9898,-4.9898,-4.9898,-4.9898,-4.9898,-4.7717,-4.7717,-4.7717,-4.7717,-4.7717,-4.7824,-4.8151,-4.819,-4.8229,-4.8306,-4.8306,-4.8306,-4.8306,-4.8306,-4.8418,-4.8678,-4.9285,-4.9746,-4.9952,-4.999,-4.9934,-4.9787,-4.9159,-4.8735,-4.8587,-4.8587,-4.866,-4.8855,-4.8855,-4.8874,-4.8874,-4.8874,-4.8909,-4.8909,-4.8909,-4.8962,-4.9068,-4.9068,-4.9116,-4.9197,-4.9197,-4.9211,-4.9276,-4.9276,-4.8909,-4.8352,-4.822,-4.7717,-4.6967,-4.6252,-4.6082,-4.6062,-4.5327,-4.51,-4.5108,-4.5028,-4.4997,-4.4985,-4.4927,-4.4919,-4.4967,-4.4967,-4.5014,-4.4699,-4.3308,-4.3006,-4.3025,-4.3025,-4.3602,-4.4122,-4.4122,-4.4737,-4.5275,-4.5275,-4.5275,-4.5297,-4.5297,-4.5297,-4.5297,-4.5297,-4.5411,-4.5564,-4.5698,-4.5736,-4.6003,-4.6672,-4.6729,-4.7111,-4.799,-4.8028,-4.843,-4.927,-4.9262,-4.9539,-5.0188,-5.0089,-5.0031,-5.0031,-4.9978,-4.9925,-4.9925,-4.9959,-5.0005,-5.0031,-5.0031,-5.0005,-5.0005,-4.9952,-4.9925,-4.9898,-4.9898,-4.9898,-4.9879,-4.9906,-4.9925,-4.9925,-4.7717,-4.7717,-4.7717,-4.7717,-4.7717,-4.7717,-4.7783,-4.7783,-4.7907,-4.8267,-4.8306,-4.8306,-4.8306,-4.8306,-4.86,-4.9391,-4.9556,-4.9905,-5.0622,-5.072,-5.0428,-4.9728,-4.9676,-4.9307,-4.8605,-4.8587,-4.8623,-4.8623,-4.8623,-4.8714,-4.8822,-4.8822,-4.8839,-4.8909,-4.8909,-4.8909,-4.8909,-4.8909,-4.8996,-4.9101,-4.9101,-4.915,-4.9211,-4.9211,-4.9155,-4.8982,-4.8322,-4.7646,-4.6993,-4.6861,-4.6853,-4.6834,-4.6807,-4.677,-4.6647,-4.6032,-4.5851,-4.5682,-4.5004,-4.4821,-4.4821,-4.4895,-4.4919,-4.4862,-4.4635,-4.4691,-4.476,-4.476,-4.4855,-4.4954,-4.4954,-4.5049,-4.5125,-4.5125,-4.517,-4.5213,-4.5213,-4.5256,-4.5297,-4.5297,-4.5908,-4.6634,-4.7398,-4.7474,-4.7513,-4.7627,-4.7627,-4.8009,-4.8869,-4.8907,-4.9289,-5.0111,-5.013,-5.014,-5.0188,-5.0188,-5.0139,-5.0082,-5.0082,-5.0057,-5.0005,-5.0005,-5.0031,-5.0082,-5.0082,-5.0057,-5.0005,-5.0005,-4.9933,-4.9898,-4.9898,-4.9898,-4.9925,-4.9978,-5.0005,-4.9986,-4.7717,-4.7717,-4.7717,-4.7717,-4.7717,-4.7717,-4.7717,-4.7717,-4.7741,-4.7929,-4.797,-4.801,-4.8169,-4.8208,-4.8595,-4.942,-4.9955,-5.06,-5.1408,-5.1081,-5.0717,-5.0349,-4.9469,-4.8788,-4.8458,-4.8439,-4.8439,-4.8439,-4.855,-4.8642,-4.8697,-4.8697,-4.8714,-4.875,-4.8804,-4.8839,-4.8857,-4.8874,-4.8943,-4.8996,-4.8996,-4.9049,-4.915,-4.915,-4.9164,-4.9174,-4.8819,-4.8527,-4.8184,-4.7747,-4.7597,-4.7552,-4.7172,-4.7051,-4.6995,-4.6704,-4.6619,-4.6543,-4.6229,-4.6135,-4.6161,-4.6188,-4.6169,-4.6169,-4.6221,-4.6291,-4.6057,-4.5157,-4.5033,-4.5038,-4.5038,-4.5061,-4.5103,-4.5103,-4.5125,-4.5319,-4.5795,-4.5894,-4.6088,-4.6523,-4.6885,-4.7266,-4.7647,-4.7686,-4.7876,-4.8372,-4.8457,-4.8842,-4.9663,-4.9744,-4.992,-5.0283,-5.0302,-5.0278,-5.0188,-5.0163,-5.0108,-5.0057,-5.0005,-5.0005,-5.0057,-5.0089,-5.0133,-5.0158,-5.0158,-5.0158,-5.0108,-5.0031,-4.9978,-4.9933,-4.9906,-4.9898,-4.9925,-4.9978,-5.0005,-5.0005]}]]